<?xml version="1.0" encoding="UTF-8" standalone="no" ?>
<gpx xmlns="http://www.topografix.com/GPX/1/1" xmlns:xsi="http://www.w3.org/2001/XMLSchema-instance" xsi:schemaLocation="http://www.topografix.com/GPX/1/1 http://www.topografix.com/GPX/1/1/gpx.xsd" version="1.1" creator="VisuGPX - https://www.visugpx.com">
  <metadata>
    <name>20221025-bois d'ennenbourg</name>
    <desc><![CDATA[Boucle A-R au départ de l'Eglise]]></desc>
  </metadata>
  <trk>
    <name><![CDATA[SityTrail - 20221025-bois d'ennenbourg]]></name>
    <desc><![CDATA[Boucle A-R au départ de l'Eglise]]></desc>
    <trkseg>
      <trkpt lat="49.43309" lon="1.25669">
        <ele>153</ele>
        <time>2022-10-25T11:57:51.311Z</time>
      </trkpt>
      <trkpt lat="49.43309" lon="1.25669">
        <ele>153</ele>
        <time>2022-10-25T11:57:51.311Z</time>
      </trkpt>
      <trkpt lat="49.43311" lon="1.25668">
        <ele>153</ele>
        <time>2022-10-25T11:59:06.307Z</time>
      </trkpt>
      <trkpt lat="49.43311" lon="1.25666">
        <ele>153</ele>
        <time>2022-10-25T11:59:10.331Z</time>
      </trkpt>
      <trkpt lat="49.4331" lon="1.25659">
        <ele>153</ele>
        <time>2022-10-25T11:59:15.328Z</time>
      </trkpt>
      <trkpt lat="49.4331" lon="1.2565">
        <ele>154</ele>
        <time>2022-10-25T11:59:20.294Z</time>
      </trkpt>
      <trkpt lat="49.43311" lon="1.25642">
        <ele>154</ele>
        <time>2022-10-25T11:59:25.312Z</time>
      </trkpt>
      <trkpt lat="49.43311" lon="1.25636">
        <ele>154</ele>
        <time>2022-10-25T11:59:29.321Z</time>
      </trkpt>
      <trkpt lat="49.43311" lon="1.2563">
        <ele>154</ele>
        <time>2022-10-25T11:59:33.347Z</time>
      </trkpt>
      <trkpt lat="49.4331" lon="1.25622">
        <ele>155</ele>
        <time>2022-10-25T11:59:38.333Z</time>
      </trkpt>
      <trkpt lat="49.43308" lon="1.25613">
        <ele>155</ele>
        <time>2022-10-25T11:59:43.333Z</time>
      </trkpt>
      <trkpt lat="49.43308" lon="1.25604">
        <ele>155</ele>
        <time>2022-10-25T11:59:48.333Z</time>
      </trkpt>
      <trkpt lat="49.43306" lon="1.25595">
        <ele>155</ele>
        <time>2022-10-25T11:59:53.317Z</time>
      </trkpt>
      <trkpt lat="49.43305" lon="1.25587">
        <ele>155</ele>
        <time>2022-10-25T11:59:58.343Z</time>
      </trkpt>
      <trkpt lat="49.43304" lon="1.25578">
        <ele>155</ele>
        <time>2022-10-25T12:00:03.339Z</time>
      </trkpt>
      <trkpt lat="49.43299" lon="1.25572">
        <ele>155</ele>
        <time>2022-10-25T12:00:08.321Z</time>
      </trkpt>
      <trkpt lat="49.43293" lon="1.2557">
        <ele>155</ele>
        <time>2022-10-25T12:00:13.334Z</time>
      </trkpt>
      <trkpt lat="49.43287" lon="1.2557">
        <ele>154</ele>
        <time>2022-10-25T12:00:18.303Z</time>
      </trkpt>
      <trkpt lat="49.43283" lon="1.25569">
        <ele>153</ele>
        <time>2022-10-25T12:00:22.315Z</time>
      </trkpt>
      <trkpt lat="49.43278" lon="1.25569">
        <ele>153</ele>
        <time>2022-10-25T12:00:27.317Z</time>
      </trkpt>
      <trkpt lat="49.43272" lon="1.25568">
        <ele>153</ele>
        <time>2022-10-25T12:00:31.333Z</time>
      </trkpt>
      <trkpt lat="49.43267" lon="1.25568">
        <ele>153</ele>
        <time>2022-10-25T12:00:35.336Z</time>
      </trkpt>
      <trkpt lat="49.43262" lon="1.25567">
        <ele>153</ele>
        <time>2022-10-25T12:00:40.326Z</time>
      </trkpt>
      <trkpt lat="49.43257" lon="1.25567">
        <ele>153</ele>
        <time>2022-10-25T12:00:44.327Z</time>
      </trkpt>
      <trkpt lat="49.43253" lon="1.25566">
        <ele>153</ele>
        <time>2022-10-25T12:00:48.342Z</time>
      </trkpt>
      <trkpt lat="49.43247" lon="1.25565">
        <ele>153</ele>
        <time>2022-10-25T12:00:53.333Z</time>
      </trkpt>
      <trkpt lat="49.43241" lon="1.25565">
        <ele>153</ele>
        <time>2022-10-25T12:00:58.331Z</time>
      </trkpt>
      <trkpt lat="49.43235" lon="1.25564">
        <ele>153</ele>
        <time>2022-10-25T12:01:03.324Z</time>
      </trkpt>
      <trkpt lat="49.43229" lon="1.25564">
        <ele>153</ele>
        <time>2022-10-25T12:01:08.337Z</time>
      </trkpt>
      <trkpt lat="49.43223" lon="1.25563">
        <ele>153</ele>
        <time>2022-10-25T12:01:13.322Z</time>
      </trkpt>
      <trkpt lat="49.43217" lon="1.25564">
        <ele>153</ele>
        <time>2022-10-25T12:01:18.347Z</time>
      </trkpt>
      <trkpt lat="49.43211" lon="1.25564">
        <ele>153</ele>
        <time>2022-10-25T12:01:23.329Z</time>
      </trkpt>
      <trkpt lat="49.43205" lon="1.25565">
        <ele>151</ele>
        <time>2022-10-25T12:01:28.337Z</time>
      </trkpt>
      <trkpt lat="49.43199" lon="1.25565">
        <ele>151</ele>
        <time>2022-10-25T12:01:33.344Z</time>
      </trkpt>
      <trkpt lat="49.43194" lon="1.25565">
        <ele>151</ele>
        <time>2022-10-25T12:01:37.343Z</time>
      </trkpt>
      <trkpt lat="49.43187" lon="1.25564">
        <ele>151</ele>
        <time>2022-10-25T12:01:42.303Z</time>
      </trkpt>
      <trkpt lat="49.43181" lon="1.25564">
        <ele>151</ele>
        <time>2022-10-25T12:01:47.311Z</time>
      </trkpt>
      <trkpt lat="49.43176" lon="1.25565">
        <ele>150</ele>
        <time>2022-10-25T12:01:52.315Z</time>
      </trkpt>
      <trkpt lat="49.43171" lon="1.25565">
        <ele>150</ele>
        <time>2022-10-25T12:01:56.333Z</time>
      </trkpt>
      <trkpt lat="49.43166" lon="1.25565">
        <ele>150</ele>
        <time>2022-10-25T12:02:01.344Z</time>
      </trkpt>
      <trkpt lat="49.4316" lon="1.25564">
        <ele>150</ele>
        <time>2022-10-25T12:02:06.327Z</time>
      </trkpt>
      <trkpt lat="49.43153" lon="1.25564">
        <ele>150</ele>
        <time>2022-10-25T12:02:11.334Z</time>
      </trkpt>
      <trkpt lat="49.43147" lon="1.25565">
        <ele>148</ele>
        <time>2022-10-25T12:02:16.314Z</time>
      </trkpt>
      <trkpt lat="49.43142" lon="1.25566">
        <ele>148</ele>
        <time>2022-10-25T12:02:20.331Z</time>
      </trkpt>
      <trkpt lat="49.43136" lon="1.25566">
        <ele>148</ele>
        <time>2022-10-25T12:02:25.334Z</time>
      </trkpt>
      <trkpt lat="49.43132" lon="1.25566">
        <ele>148</ele>
        <time>2022-10-25T12:02:29.344Z</time>
      </trkpt>
      <trkpt lat="49.4313" lon="1.25567">
        <ele>148</ele>
        <time>2022-10-25T12:02:34.313Z</time>
      </trkpt>
      <trkpt lat="49.43131" lon="1.25568">
        <ele>148</ele>
        <time>2022-10-25T12:02:39.331Z</time>
      </trkpt>
      <trkpt lat="49.43129" lon="1.25569">
        <ele>148</ele>
        <time>2022-10-25T12:02:43.338Z</time>
      </trkpt>
      <trkpt lat="49.43124" lon="1.2557">
        <ele>149</ele>
        <time>2022-10-25T12:02:48.324Z</time>
      </trkpt>
      <trkpt lat="49.43117" lon="1.25571">
        <ele>149</ele>
        <time>2022-10-25T12:02:53.333Z</time>
      </trkpt>
      <trkpt lat="49.4311" lon="1.25572">
        <ele>149</ele>
        <time>2022-10-25T12:02:58.341Z</time>
      </trkpt>
      <trkpt lat="49.43106" lon="1.25572">
        <ele>149</ele>
        <time>2022-10-25T12:03:03.333Z</time>
      </trkpt>
      <trkpt lat="49.43101" lon="1.25571">
        <ele>149</ele>
        <time>2022-10-25T12:03:08.323Z</time>
      </trkpt>
      <trkpt lat="49.43096" lon="1.25572">
        <ele>150</ele>
        <time>2022-10-25T12:03:12.295Z</time>
      </trkpt>
      <trkpt lat="49.4309" lon="1.25576">
        <ele>150</ele>
        <time>2022-10-25T12:03:17.299Z</time>
      </trkpt>
      <trkpt lat="49.43086" lon="1.25578">
        <ele>150</ele>
        <time>2022-10-25T12:03:21.325Z</time>
      </trkpt>
      <trkpt lat="49.43081" lon="1.25579">
        <ele>150</ele>
        <time>2022-10-25T12:03:25.323Z</time>
      </trkpt>
      <trkpt lat="49.43075" lon="1.25579">
        <ele>150</ele>
        <time>2022-10-25T12:03:30.298Z</time>
      </trkpt>
      <trkpt lat="49.43073" lon="1.25577">
        <ele>150</ele>
        <time>2022-10-25T12:03:34.353Z</time>
      </trkpt>
      <trkpt lat="49.43067" lon="1.25574">
        <ele>150</ele>
        <time>2022-10-25T12:03:39.342Z</time>
      </trkpt>
      <trkpt lat="49.43062" lon="1.25572">
        <ele>150</ele>
        <time>2022-10-25T12:03:43.338Z</time>
      </trkpt>
      <trkpt lat="49.43056" lon="1.25569">
        <ele>150</ele>
        <time>2022-10-25T12:03:48.327Z</time>
      </trkpt>
      <trkpt lat="49.43052" lon="1.25567">
        <ele>150</ele>
        <time>2022-10-25T12:03:52.356Z</time>
      </trkpt>
      <trkpt lat="49.43046" lon="1.25566">
        <ele>150</ele>
        <time>2022-10-25T12:03:57.332Z</time>
      </trkpt>
      <trkpt lat="49.43039" lon="1.25565">
        <ele>149</ele>
        <time>2022-10-25T12:04:02.333Z</time>
      </trkpt>
      <trkpt lat="49.43033" lon="1.25564">
        <ele>149</ele>
        <time>2022-10-25T12:04:07.352Z</time>
      </trkpt>
      <trkpt lat="49.43027" lon="1.25563">
        <ele>149</ele>
        <time>2022-10-25T12:04:12.299Z</time>
      </trkpt>
      <trkpt lat="49.43022" lon="1.25562">
        <ele>149</ele>
        <time>2022-10-25T12:04:16.326Z</time>
      </trkpt>
      <trkpt lat="49.43016" lon="1.25561">
        <ele>149</ele>
        <time>2022-10-25T12:04:21.328Z</time>
      </trkpt>
      <trkpt lat="49.43011" lon="1.2556">
        <ele>148</ele>
        <time>2022-10-25T12:04:25.341Z</time>
      </trkpt>
      <trkpt lat="49.43004" lon="1.2556">
        <ele>148</ele>
        <time>2022-10-25T12:04:30.300Z</time>
      </trkpt>
      <trkpt lat="49.42999" lon="1.25559">
        <ele>148</ele>
        <time>2022-10-25T12:04:34.318Z</time>
      </trkpt>
      <trkpt lat="49.42993" lon="1.25558">
        <ele>148</ele>
        <time>2022-10-25T12:04:39.339Z</time>
      </trkpt>
      <trkpt lat="49.42987" lon="1.25558">
        <ele>148</ele>
        <time>2022-10-25T12:04:44.347Z</time>
      </trkpt>
      <trkpt lat="49.42981" lon="1.25556">
        <ele>150</ele>
        <time>2022-10-25T12:04:49.348Z</time>
      </trkpt>
      <trkpt lat="49.42976" lon="1.25556">
        <ele>150</ele>
        <time>2022-10-25T12:04:53.364Z</time>
      </trkpt>
      <trkpt lat="49.4297" lon="1.25555">
        <ele>150</ele>
        <time>2022-10-25T12:04:58.301Z</time>
      </trkpt>
      <trkpt lat="49.42964" lon="1.25555">
        <ele>150</ele>
        <time>2022-10-25T12:05:02.310Z</time>
      </trkpt>
      <trkpt lat="49.42959" lon="1.25554">
        <ele>150</ele>
        <time>2022-10-25T12:05:06.336Z</time>
      </trkpt>
      <trkpt lat="49.42953" lon="1.25552">
        <ele>151</ele>
        <time>2022-10-25T12:05:11.319Z</time>
      </trkpt>
      <trkpt lat="49.42948" lon="1.25551">
        <ele>151</ele>
        <time>2022-10-25T12:05:15.336Z</time>
      </trkpt>
      <trkpt lat="49.42942" lon="1.25549">
        <ele>151</ele>
        <time>2022-10-25T12:05:20.300Z</time>
      </trkpt>
      <trkpt lat="49.42938" lon="1.25548">
        <ele>151</ele>
        <time>2022-10-25T12:05:24.335Z</time>
      </trkpt>
      <trkpt lat="49.42932" lon="1.2555">
        <ele>151</ele>
        <time>2022-10-25T12:05:29.341Z</time>
      </trkpt>
      <trkpt lat="49.42926" lon="1.2555">
        <ele>152</ele>
        <time>2022-10-25T12:05:34.296Z</time>
      </trkpt>
      <trkpt lat="49.42921" lon="1.25552">
        <ele>152</ele>
        <time>2022-10-25T12:05:38.329Z</time>
      </trkpt>
      <trkpt lat="49.42916" lon="1.25554">
        <ele>152</ele>
        <time>2022-10-25T12:05:43.338Z</time>
      </trkpt>
      <trkpt lat="49.4291" lon="1.25557">
        <ele>152</ele>
        <time>2022-10-25T12:05:48.331Z</time>
      </trkpt>
      <trkpt lat="49.42904" lon="1.25562">
        <ele>152</ele>
        <time>2022-10-25T12:05:53.333Z</time>
      </trkpt>
      <trkpt lat="49.42899" lon="1.25566">
        <ele>153</ele>
        <time>2022-10-25T12:05:58.330Z</time>
      </trkpt>
      <trkpt lat="49.42893" lon="1.2557">
        <ele>153</ele>
        <time>2022-10-25T12:06:03.344Z</time>
      </trkpt>
      <trkpt lat="49.42889" lon="1.25576">
        <ele>153</ele>
        <time>2022-10-25T12:06:08.299Z</time>
      </trkpt>
      <trkpt lat="49.42885" lon="1.25581">
        <ele>153</ele>
        <time>2022-10-25T12:06:12.321Z</time>
      </trkpt>
      <trkpt lat="49.4288" lon="1.25587">
        <ele>153</ele>
        <time>2022-10-25T12:06:17.328Z</time>
      </trkpt>
      <trkpt lat="49.42876" lon="1.25592">
        <ele>153</ele>
        <time>2022-10-25T12:06:21.344Z</time>
      </trkpt>
      <trkpt lat="49.42871" lon="1.25598">
        <ele>153</ele>
        <time>2022-10-25T12:06:26.322Z</time>
      </trkpt>
      <trkpt lat="49.42867" lon="1.25603">
        <ele>153</ele>
        <time>2022-10-25T12:06:30.318Z</time>
      </trkpt>
      <trkpt lat="49.42863" lon="1.25608">
        <ele>153</ele>
        <time>2022-10-25T12:06:34.335Z</time>
      </trkpt>
      <trkpt lat="49.42858" lon="1.25614">
        <ele>153</ele>
        <time>2022-10-25T12:06:39.356Z</time>
      </trkpt>
      <trkpt lat="49.42853" lon="1.25619">
        <ele>153</ele>
        <time>2022-10-25T12:06:44.320Z</time>
      </trkpt>
      <trkpt lat="49.42848" lon="1.25625">
        <ele>153</ele>
        <time>2022-10-25T12:06:49.306Z</time>
      </trkpt>
      <trkpt lat="49.42844" lon="1.25629">
        <ele>154</ele>
        <time>2022-10-25T12:06:53.351Z</time>
      </trkpt>
      <trkpt lat="49.42839" lon="1.25632">
        <ele>154</ele>
        <time>2022-10-25T12:06:58.321Z</time>
      </trkpt>
      <trkpt lat="49.42836" lon="1.25637">
        <ele>154</ele>
        <time>2022-10-25T12:07:03.335Z</time>
      </trkpt>
      <trkpt lat="49.42832" lon="1.25641">
        <ele>154</ele>
        <time>2022-10-25T12:07:07.353Z</time>
      </trkpt>
      <trkpt lat="49.42827" lon="1.25646">
        <ele>154</ele>
        <time>2022-10-25T12:07:12.316Z</time>
      </trkpt>
      <trkpt lat="49.42823" lon="1.2565">
        <ele>154</ele>
        <time>2022-10-25T12:07:16.323Z</time>
      </trkpt>
      <trkpt lat="49.42819" lon="1.25653">
        <ele>153</ele>
        <time>2022-10-25T12:07:20.326Z</time>
      </trkpt>
      <trkpt lat="49.42814" lon="1.25656">
        <ele>153</ele>
        <time>2022-10-25T12:07:24.324Z</time>
      </trkpt>
      <trkpt lat="49.42809" lon="1.25661">
        <ele>153</ele>
        <time>2022-10-25T12:07:29.335Z</time>
      </trkpt>
      <trkpt lat="49.42804" lon="1.25666">
        <ele>153</ele>
        <time>2022-10-25T12:07:34.327Z</time>
      </trkpt>
      <trkpt lat="49.42798" lon="1.25672">
        <ele>153</ele>
        <time>2022-10-25T12:07:39.345Z</time>
      </trkpt>
      <trkpt lat="49.42794" lon="1.25677">
        <ele>153</ele>
        <time>2022-10-25T12:07:43.344Z</time>
      </trkpt>
      <trkpt lat="49.42789" lon="1.25683">
        <ele>153</ele>
        <time>2022-10-25T12:07:48.313Z</time>
      </trkpt>
      <trkpt lat="49.42784" lon="1.25687">
        <ele>153</ele>
        <time>2022-10-25T12:07:52.329Z</time>
      </trkpt>
      <trkpt lat="49.42779" lon="1.25692">
        <ele>153</ele>
        <time>2022-10-25T12:07:57.317Z</time>
      </trkpt>
      <trkpt lat="49.42776" lon="1.25694">
        <ele>153</ele>
        <time>2022-10-25T12:08:01.328Z</time>
      </trkpt>
      <trkpt lat="49.42772" lon="1.25699">
        <ele>153</ele>
        <time>2022-10-25T12:08:05.347Z</time>
      </trkpt>
      <trkpt lat="49.42767" lon="1.25706">
        <ele>153</ele>
        <time>2022-10-25T12:08:10.314Z</time>
      </trkpt>
      <trkpt lat="49.42763" lon="1.2571">
        <ele>152</ele>
        <time>2022-10-25T12:08:14.330Z</time>
      </trkpt>
      <trkpt lat="49.42758" lon="1.25716">
        <ele>152</ele>
        <time>2022-10-25T12:08:19.358Z</time>
      </trkpt>
      <trkpt lat="49.42752" lon="1.25722">
        <ele>152</ele>
        <time>2022-10-25T12:08:24.326Z</time>
      </trkpt>
      <trkpt lat="49.42748" lon="1.25728">
        <ele>152</ele>
        <time>2022-10-25T12:08:29.343Z</time>
      </trkpt>
      <trkpt lat="49.42743" lon="1.25734">
        <ele>152</ele>
        <time>2022-10-25T12:08:34.320Z</time>
      </trkpt>
      <trkpt lat="49.42739" lon="1.25741">
        <ele>152</ele>
        <time>2022-10-25T12:08:39.334Z</time>
      </trkpt>
      <trkpt lat="49.42735" lon="1.25748">
        <ele>151</ele>
        <time>2022-10-25T12:08:44.311Z</time>
      </trkpt>
      <trkpt lat="49.4273" lon="1.25754">
        <ele>151</ele>
        <time>2022-10-25T12:08:49.334Z</time>
      </trkpt>
      <trkpt lat="49.42727" lon="1.2576">
        <ele>151</ele>
        <time>2022-10-25T12:08:53.352Z</time>
      </trkpt>
      <trkpt lat="49.42723" lon="1.25766">
        <ele>151</ele>
        <time>2022-10-25T12:08:58.321Z</time>
      </trkpt>
      <trkpt lat="49.42718" lon="1.25774">
        <ele>151</ele>
        <time>2022-10-25T12:09:03.301Z</time>
      </trkpt>
      <trkpt lat="49.42715" lon="1.2578">
        <ele>151</ele>
        <time>2022-10-25T12:09:07.337Z</time>
      </trkpt>
      <trkpt lat="49.42711" lon="1.25788">
        <ele>151</ele>
        <time>2022-10-25T12:09:12.334Z</time>
      </trkpt>
      <trkpt lat="49.42707" lon="1.25796">
        <ele>150</ele>
        <time>2022-10-25T12:09:17.326Z</time>
      </trkpt>
      <trkpt lat="49.42704" lon="1.25803">
        <ele>150</ele>
        <time>2022-10-25T12:09:21.333Z</time>
      </trkpt>
      <trkpt lat="49.42702" lon="1.25811">
        <ele>150</ele>
        <time>2022-10-25T12:09:26.323Z</time>
      </trkpt>
      <trkpt lat="49.427" lon="1.2582">
        <ele>150</ele>
        <time>2022-10-25T12:09:31.313Z</time>
      </trkpt>
      <trkpt lat="49.42698" lon="1.25827">
        <ele>150</ele>
        <time>2022-10-25T12:09:35.338Z</time>
      </trkpt>
      <trkpt lat="49.42697" lon="1.25832">
        <ele>150</ele>
        <time>2022-10-25T12:09:40.297Z</time>
      </trkpt>
      <trkpt lat="49.42695" lon="1.25839">
        <ele>150</ele>
        <time>2022-10-25T12:09:44.323Z</time>
      </trkpt>
      <trkpt lat="49.42692" lon="1.25848">
        <ele>150</ele>
        <time>2022-10-25T12:09:49.346Z</time>
      </trkpt>
      <trkpt lat="49.4269" lon="1.25856">
        <ele>150</ele>
        <time>2022-10-25T12:09:54.296Z</time>
      </trkpt>
      <trkpt lat="49.42688" lon="1.25863">
        <ele>150</ele>
        <time>2022-10-25T12:09:58.322Z</time>
      </trkpt>
      <trkpt lat="49.42687" lon="1.2587">
        <ele>150</ele>
        <time>2022-10-25T12:10:02.330Z</time>
      </trkpt>
      <trkpt lat="49.42684" lon="1.25878">
        <ele>150</ele>
        <time>2022-10-25T12:10:07.341Z</time>
      </trkpt>
      <trkpt lat="49.42683" lon="1.25884">
        <ele>150</ele>
        <time>2022-10-25T12:10:11.357Z</time>
      </trkpt>
      <trkpt lat="49.42681" lon="1.25893">
        <ele>150</ele>
        <time>2022-10-25T12:10:16.322Z</time>
      </trkpt>
      <trkpt lat="49.42678" lon="1.25899">
        <ele>150</ele>
        <time>2022-10-25T12:10:20.330Z</time>
      </trkpt>
      <trkpt lat="49.42676" lon="1.25907">
        <ele>149</ele>
        <time>2022-10-25T12:10:25.353Z</time>
      </trkpt>
      <trkpt lat="49.42674" lon="1.25915">
        <ele>149</ele>
        <time>2022-10-25T12:10:30.326Z</time>
      </trkpt>
      <trkpt lat="49.42672" lon="1.25923">
        <ele>149</ele>
        <time>2022-10-25T12:10:35.304Z</time>
      </trkpt>
      <trkpt lat="49.4267" lon="1.2593">
        <ele>149</ele>
        <time>2022-10-25T12:10:39.359Z</time>
      </trkpt>
      <trkpt lat="49.42667" lon="1.25938">
        <ele>149</ele>
        <time>2022-10-25T12:10:44.316Z</time>
      </trkpt>
      <trkpt lat="49.42665" lon="1.25946">
        <ele>149</ele>
        <time>2022-10-25T12:10:49.336Z</time>
      </trkpt>
      <trkpt lat="49.42663" lon="1.25955">
        <ele>149</ele>
        <time>2022-10-25T12:10:54.329Z</time>
      </trkpt>
      <trkpt lat="49.42661" lon="1.25964">
        <ele>149</ele>
        <time>2022-10-25T12:10:59.343Z</time>
      </trkpt>
      <trkpt lat="49.42658" lon="1.25974">
        <ele>149</ele>
        <time>2022-10-25T12:11:04.314Z</time>
      </trkpt>
      <trkpt lat="49.42656" lon="1.25981">
        <ele>149</ele>
        <time>2022-10-25T12:11:08.328Z</time>
      </trkpt>
      <trkpt lat="49.42654" lon="1.2599">
        <ele>149</ele>
        <time>2022-10-25T12:11:13.343Z</time>
      </trkpt>
      <trkpt lat="49.42652" lon="1.25998">
        <ele>148</ele>
        <time>2022-10-25T12:11:18.310Z</time>
      </trkpt>
      <trkpt lat="49.42651" lon="1.26005">
        <ele>148</ele>
        <time>2022-10-25T12:11:22.314Z</time>
      </trkpt>
      <trkpt lat="49.42649" lon="1.26012">
        <ele>148</ele>
        <time>2022-10-25T12:11:26.336Z</time>
      </trkpt>
      <trkpt lat="49.42647" lon="1.26021">
        <ele>149</ele>
        <time>2022-10-25T12:11:31.354Z</time>
      </trkpt>
      <trkpt lat="49.42645" lon="1.26029">
        <ele>149</ele>
        <time>2022-10-25T12:11:36.322Z</time>
      </trkpt>
      <trkpt lat="49.42643" lon="1.26037">
        <ele>149</ele>
        <time>2022-10-25T12:11:41.342Z</time>
      </trkpt>
      <trkpt lat="49.42641" lon="1.26046">
        <ele>149</ele>
        <time>2022-10-25T12:11:46.333Z</time>
      </trkpt>
      <trkpt lat="49.42639" lon="1.26055">
        <ele>149</ele>
        <time>2022-10-25T12:11:51.341Z</time>
      </trkpt>
      <trkpt lat="49.42637" lon="1.26063">
        <ele>149</ele>
        <time>2022-10-25T12:11:56.322Z</time>
      </trkpt>
      <trkpt lat="49.42635" lon="1.26071">
        <ele>149</ele>
        <time>2022-10-25T12:12:01.358Z</time>
      </trkpt>
      <trkpt lat="49.42633" lon="1.26079">
        <ele>149</ele>
        <time>2022-10-25T12:12:06.334Z</time>
      </trkpt>
      <trkpt lat="49.42631" lon="1.26086">
        <ele>149</ele>
        <time>2022-10-25T12:12:10.348Z</time>
      </trkpt>
      <trkpt lat="49.42629" lon="1.26095">
        <ele>149</ele>
        <time>2022-10-25T12:12:15.348Z</time>
      </trkpt>
      <trkpt lat="49.42627" lon="1.26103">
        <ele>148</ele>
        <time>2022-10-25T12:12:20.325Z</time>
      </trkpt>
      <trkpt lat="49.42625" lon="1.26112">
        <ele>148</ele>
        <time>2022-10-25T12:12:25.343Z</time>
      </trkpt>
      <trkpt lat="49.42623" lon="1.2612">
        <ele>148</ele>
        <time>2022-10-25T12:12:30.332Z</time>
      </trkpt>
      <trkpt lat="49.4262" lon="1.26129">
        <ele>148</ele>
        <time>2022-10-25T12:12:35.342Z</time>
      </trkpt>
      <trkpt lat="49.42618" lon="1.26137">
        <ele>148</ele>
        <time>2022-10-25T12:12:40.321Z</time>
      </trkpt>
      <trkpt lat="49.42615" lon="1.26144">
        <ele>148</ele>
        <time>2022-10-25T12:12:44.341Z</time>
      </trkpt>
      <trkpt lat="49.42613" lon="1.26152">
        <ele>148</ele>
        <time>2022-10-25T12:12:49.364Z</time>
      </trkpt>
      <trkpt lat="49.4261" lon="1.26159">
        <ele>148</ele>
        <time>2022-10-25T12:12:54.323Z</time>
      </trkpt>
      <trkpt lat="49.42608" lon="1.26166">
        <ele>148</ele>
        <time>2022-10-25T12:12:58.328Z</time>
      </trkpt>
      <trkpt lat="49.42605" lon="1.26173">
        <ele>148</ele>
        <time>2022-10-25T12:13:03.352Z</time>
      </trkpt>
      <trkpt lat="49.42602" lon="1.26181">
        <ele>149</ele>
        <time>2022-10-25T12:13:08.336Z</time>
      </trkpt>
      <trkpt lat="49.42599" lon="1.26187">
        <ele>149</ele>
        <time>2022-10-25T12:13:12.336Z</time>
      </trkpt>
      <trkpt lat="49.42596" lon="1.26195">
        <ele>148</ele>
        <time>2022-10-25T12:13:17.334Z</time>
      </trkpt>
      <trkpt lat="49.42593" lon="1.262">
        <ele>148</ele>
        <time>2022-10-25T12:13:21.339Z</time>
      </trkpt>
      <trkpt lat="49.4259" lon="1.26207">
        <ele>148</ele>
        <time>2022-10-25T12:13:26.324Z</time>
      </trkpt>
      <trkpt lat="49.42587" lon="1.26213">
        <ele>149</ele>
        <time>2022-10-25T12:13:30.341Z</time>
      </trkpt>
      <trkpt lat="49.42584" lon="1.26219">
        <ele>149</ele>
        <time>2022-10-25T12:13:34.355Z</time>
      </trkpt>
      <trkpt lat="49.42581" lon="1.26226">
        <ele>149</ele>
        <time>2022-10-25T12:13:39.334Z</time>
      </trkpt>
      <trkpt lat="49.42579" lon="1.26231">
        <ele>149</ele>
        <time>2022-10-25T12:13:43.349Z</time>
      </trkpt>
      <trkpt lat="49.42575" lon="1.26238">
        <ele>149</ele>
        <time>2022-10-25T12:13:48.327Z</time>
      </trkpt>
      <trkpt lat="49.42572" lon="1.26244">
        <ele>149</ele>
        <time>2022-10-25T12:13:52.336Z</time>
      </trkpt>
      <trkpt lat="49.42569" lon="1.26251">
        <ele>148</ele>
        <time>2022-10-25T12:13:57.343Z</time>
      </trkpt>
      <trkpt lat="49.42565" lon="1.26258">
        <ele>148</ele>
        <time>2022-10-25T12:14:02.348Z</time>
      </trkpt>
      <trkpt lat="49.42563" lon="1.26264">
        <ele>148</ele>
        <time>2022-10-25T12:14:06.348Z</time>
      </trkpt>
      <trkpt lat="49.4256" lon="1.26271">
        <ele>148</ele>
        <time>2022-10-25T12:14:11.317Z</time>
      </trkpt>
      <trkpt lat="49.42557" lon="1.26279">
        <ele>148</ele>
        <time>2022-10-25T12:14:16.330Z</time>
      </trkpt>
      <trkpt lat="49.42554" lon="1.26287">
        <ele>148</ele>
        <time>2022-10-25T12:14:21.338Z</time>
      </trkpt>
      <trkpt lat="49.42552" lon="1.26293">
        <ele>148</ele>
        <time>2022-10-25T12:14:25.357Z</time>
      </trkpt>
      <trkpt lat="49.4255" lon="1.26302">
        <ele>148</ele>
        <time>2022-10-25T12:14:30.333Z</time>
      </trkpt>
      <trkpt lat="49.42547" lon="1.2631">
        <ele>148</ele>
        <time>2022-10-25T12:14:35.344Z</time>
      </trkpt>
      <trkpt lat="49.42545" lon="1.26318">
        <ele>148</ele>
        <time>2022-10-25T12:14:40.326Z</time>
      </trkpt>
      <trkpt lat="49.42542" lon="1.26327">
        <ele>147</ele>
        <time>2022-10-25T12:14:45.331Z</time>
      </trkpt>
      <trkpt lat="49.4254" lon="1.26333">
        <ele>146</ele>
        <time>2022-10-25T12:14:50.352Z</time>
      </trkpt>
      <trkpt lat="49.42538" lon="1.26342">
        <ele>146</ele>
        <time>2022-10-25T12:14:55.329Z</time>
      </trkpt>
      <trkpt lat="49.42536" lon="1.26348">
        <ele>145</ele>
        <time>2022-10-25T12:14:59.352Z</time>
      </trkpt>
      <trkpt lat="49.42535" lon="1.26356">
        <ele>145</ele>
        <time>2022-10-25T12:15:04.333Z</time>
      </trkpt>
      <trkpt lat="49.42533" lon="1.26363">
        <ele>145</ele>
        <time>2022-10-25T12:15:08.342Z</time>
      </trkpt>
      <trkpt lat="49.42531" lon="1.26372">
        <ele>145</ele>
        <time>2022-10-25T12:15:13.356Z</time>
      </trkpt>
      <trkpt lat="49.4253" lon="1.2638">
        <ele>145</ele>
        <time>2022-10-25T12:15:18.340Z</time>
      </trkpt>
      <trkpt lat="49.42529" lon="1.2639">
        <ele>145</ele>
        <time>2022-10-25T12:15:23.355Z</time>
      </trkpt>
      <trkpt lat="49.42527" lon="1.26398">
        <ele>145</ele>
        <time>2022-10-25T12:15:28.359Z</time>
      </trkpt>
      <trkpt lat="49.42527" lon="1.26408">
        <ele>145</ele>
        <time>2022-10-25T12:15:33.355Z</time>
      </trkpt>
      <trkpt lat="49.42526" lon="1.26417">
        <ele>145</ele>
        <time>2022-10-25T12:15:38.356Z</time>
      </trkpt>
      <trkpt lat="49.42525" lon="1.26426">
        <ele>145</ele>
        <time>2022-10-25T12:15:43.358Z</time>
      </trkpt>
      <trkpt lat="49.42524" lon="1.26435">
        <ele>144</ele>
        <time>2022-10-25T12:15:48.318Z</time>
      </trkpt>
      <trkpt lat="49.42523" lon="1.26441">
        <ele>144</ele>
        <time>2022-10-25T12:15:52.366Z</time>
      </trkpt>
      <trkpt lat="49.42523" lon="1.26449">
        <ele>144</ele>
        <time>2022-10-25T12:15:57.320Z</time>
      </trkpt>
      <trkpt lat="49.42522" lon="1.26455">
        <ele>144</ele>
        <time>2022-10-25T12:16:01.332Z</time>
      </trkpt>
      <trkpt lat="49.42522" lon="1.26462">
        <ele>143</ele>
        <time>2022-10-25T12:16:05.335Z</time>
      </trkpt>
      <trkpt lat="49.42522" lon="1.26469">
        <ele>143</ele>
        <time>2022-10-25T12:16:10.331Z</time>
      </trkpt>
      <trkpt lat="49.42522" lon="1.26476">
        <ele>143</ele>
        <time>2022-10-25T12:16:14.339Z</time>
      </trkpt>
      <trkpt lat="49.42521" lon="1.26481">
        <ele>143</ele>
        <time>2022-10-25T12:16:18.337Z</time>
      </trkpt>
      <trkpt lat="49.42521" lon="1.26488">
        <ele>142</ele>
        <time>2022-10-25T12:16:23.344Z</time>
      </trkpt>
      <trkpt lat="49.42521" lon="1.26492">
        <ele>142</ele>
        <time>2022-10-25T12:16:27.350Z</time>
      </trkpt>
      <trkpt lat="49.42521" lon="1.265">
        <ele>142</ele>
        <time>2022-10-25T12:16:32.320Z</time>
      </trkpt>
      <trkpt lat="49.42522" lon="1.26505">
        <ele>142</ele>
        <time>2022-10-25T12:16:36.343Z</time>
      </trkpt>
      <trkpt lat="49.42521" lon="1.26512">
        <ele>142</ele>
        <time>2022-10-25T12:16:40.341Z</time>
      </trkpt>
      <trkpt lat="49.42523" lon="1.2652">
        <ele>141</ele>
        <time>2022-10-25T12:16:45.347Z</time>
      </trkpt>
      <trkpt lat="49.42521" lon="1.26528">
        <ele>141</ele>
        <time>2022-10-25T12:16:50.339Z</time>
      </trkpt>
      <trkpt lat="49.4252" lon="1.26537">
        <ele>141</ele>
        <time>2022-10-25T12:16:55.351Z</time>
      </trkpt>
      <trkpt lat="49.4252" lon="1.26545">
        <ele>140</ele>
        <time>2022-10-25T12:17:00.331Z</time>
      </trkpt>
      <trkpt lat="49.4252" lon="1.26553">
        <ele>140</ele>
        <time>2022-10-25T12:17:05.314Z</time>
      </trkpt>
      <trkpt lat="49.4252" lon="1.2656">
        <ele>140</ele>
        <time>2022-10-25T12:17:09.363Z</time>
      </trkpt>
      <trkpt lat="49.42519" lon="1.26568">
        <ele>140</ele>
        <time>2022-10-25T12:17:14.338Z</time>
      </trkpt>
      <trkpt lat="49.42519" lon="1.26577">
        <ele>138</ele>
        <time>2022-10-25T12:17:19.352Z</time>
      </trkpt>
      <trkpt lat="49.42518" lon="1.26586">
        <ele>138</ele>
        <time>2022-10-25T12:17:24.347Z</time>
      </trkpt>
      <trkpt lat="49.42517" lon="1.26591">
        <ele>138</ele>
        <time>2022-10-25T12:17:29.345Z</time>
      </trkpt>
      <trkpt lat="49.42517" lon="1.26601">
        <ele>137</ele>
        <time>2022-10-25T12:17:34.348Z</time>
      </trkpt>
      <trkpt lat="49.42517" lon="1.2661">
        <ele>137</ele>
        <time>2022-10-25T12:17:39.322Z</time>
      </trkpt>
      <trkpt lat="49.42515" lon="1.26616">
        <ele>137</ele>
        <time>2022-10-25T12:17:43.329Z</time>
      </trkpt>
      <trkpt lat="49.42515" lon="1.26623">
        <ele>137</ele>
        <time>2022-10-25T12:17:47.345Z</time>
      </trkpt>
      <trkpt lat="49.42515" lon="1.26632">
        <ele>136</ele>
        <time>2022-10-25T12:17:52.317Z</time>
      </trkpt>
      <trkpt lat="49.42514" lon="1.26639">
        <ele>136</ele>
        <time>2022-10-25T12:17:56.323Z</time>
      </trkpt>
      <trkpt lat="49.42513" lon="1.26647">
        <ele>135</ele>
        <time>2022-10-25T12:18:01.326Z</time>
      </trkpt>
      <trkpt lat="49.4251" lon="1.26652">
        <ele>135</ele>
        <time>2022-10-25T12:18:05.335Z</time>
      </trkpt>
      <trkpt lat="49.42507" lon="1.26654">
        <ele>134</ele>
        <time>2022-10-25T12:18:09.342Z</time>
      </trkpt>
      <trkpt lat="49.42502" lon="1.26655">
        <ele>134</ele>
        <time>2022-10-25T12:18:14.344Z</time>
      </trkpt>
      <trkpt lat="49.42497" lon="1.26657">
        <ele>134</ele>
        <time>2022-10-25T12:18:19.348Z</time>
      </trkpt>
      <trkpt lat="49.42492" lon="1.26662">
        <ele>134</ele>
        <time>2022-10-25T12:18:24.327Z</time>
      </trkpt>
      <trkpt lat="49.42488" lon="1.26665">
        <ele>134</ele>
        <time>2022-10-25T12:18:29.351Z</time>
      </trkpt>
      <trkpt lat="49.42483" lon="1.26669">
        <ele>137</ele>
        <time>2022-10-25T12:18:34.299Z</time>
      </trkpt>
      <trkpt lat="49.4248" lon="1.26672">
        <ele>137</ele>
        <time>2022-10-25T12:18:38.335Z</time>
      </trkpt>
      <trkpt lat="49.42476" lon="1.26675">
        <ele>137</ele>
        <time>2022-10-25T12:18:43.328Z</time>
      </trkpt>
      <trkpt lat="49.42473" lon="1.26677">
        <ele>137</ele>
        <time>2022-10-25T12:18:48.332Z</time>
      </trkpt>
      <trkpt lat="49.4247" lon="1.2668">
        <ele>137</ele>
        <time>2022-10-25T12:18:53.346Z</time>
      </trkpt>
      <trkpt lat="49.42467" lon="1.26684">
        <ele>138</ele>
        <time>2022-10-25T12:18:58.325Z</time>
      </trkpt>
      <trkpt lat="49.42464" lon="1.26686">
        <ele>138</ele>
        <time>2022-10-25T12:19:02.326Z</time>
      </trkpt>
      <trkpt lat="49.42461" lon="1.2669">
        <ele>138</ele>
        <time>2022-10-25T12:19:06.332Z</time>
      </trkpt>
      <trkpt lat="49.42457" lon="1.26694">
        <ele>141</ele>
        <time>2022-10-25T12:19:11.331Z</time>
      </trkpt>
      <trkpt lat="49.42453" lon="1.26698">
        <ele>141</ele>
        <time>2022-10-25T12:19:16.330Z</time>
      </trkpt>
      <trkpt lat="49.42449" lon="1.26703">
        <ele>141</ele>
        <time>2022-10-25T12:19:21.325Z</time>
      </trkpt>
      <trkpt lat="49.42444" lon="1.26707">
        <ele>141</ele>
        <time>2022-10-25T12:19:34.337Z</time>
      </trkpt>
      <trkpt lat="49.42442" lon="1.26709">
        <ele>142</ele>
        <time>2022-10-25T12:19:39.341Z</time>
      </trkpt>
      <trkpt lat="49.42438" lon="1.26712">
        <ele>142</ele>
        <time>2022-10-25T12:19:44.343Z</time>
      </trkpt>
      <trkpt lat="49.42433" lon="1.26716">
        <ele>142</ele>
        <time>2022-10-25T12:19:49.341Z</time>
      </trkpt>
      <trkpt lat="49.42429" lon="1.2672">
        <ele>145</ele>
        <time>2022-10-25T12:19:54.352Z</time>
      </trkpt>
      <trkpt lat="49.42424" lon="1.26725">
        <ele>145</ele>
        <time>2022-10-25T12:19:59.317Z</time>
      </trkpt>
      <trkpt lat="49.4242" lon="1.26728">
        <ele>145</ele>
        <time>2022-10-25T12:20:03.328Z</time>
      </trkpt>
      <trkpt lat="49.42417" lon="1.26732">
        <ele>145</ele>
        <time>2022-10-25T12:20:08.334Z</time>
      </trkpt>
      <trkpt lat="49.42413" lon="1.26737">
        <ele>145</ele>
        <time>2022-10-25T12:20:13.328Z</time>
      </trkpt>
      <trkpt lat="49.4241" lon="1.26741">
        <ele>145</ele>
        <time>2022-10-25T12:20:17.332Z</time>
      </trkpt>
      <trkpt lat="49.42405" lon="1.26745">
        <ele>145</ele>
        <time>2022-10-25T12:20:22.302Z</time>
      </trkpt>
      <trkpt lat="49.42402" lon="1.26749">
        <ele>145</ele>
        <time>2022-10-25T12:20:26.334Z</time>
      </trkpt>
      <trkpt lat="49.42398" lon="1.26754">
        <ele>145</ele>
        <time>2022-10-25T12:20:31.333Z</time>
      </trkpt>
      <trkpt lat="49.42393" lon="1.26759">
        <ele>145</ele>
        <time>2022-10-25T12:20:36.305Z</time>
      </trkpt>
      <trkpt lat="49.4239" lon="1.26763">
        <ele>145</ele>
        <time>2022-10-25T12:20:40.329Z</time>
      </trkpt>
      <trkpt lat="49.42385" lon="1.26768">
        <ele>145</ele>
        <time>2022-10-25T12:20:45.339Z</time>
      </trkpt>
      <trkpt lat="49.4238" lon="1.26773">
        <ele>145</ele>
        <time>2022-10-25T12:20:50.328Z</time>
      </trkpt>
      <trkpt lat="49.42376" lon="1.26778">
        <ele>145</ele>
        <time>2022-10-25T12:20:55.349Z</time>
      </trkpt>
      <trkpt lat="49.42372" lon="1.26783">
        <ele>145</ele>
        <time>2022-10-25T12:21:00.314Z</time>
      </trkpt>
      <trkpt lat="49.42368" lon="1.26787">
        <ele>145</ele>
        <time>2022-10-25T12:21:04.324Z</time>
      </trkpt>
      <trkpt lat="49.42364" lon="1.26792">
        <ele>145</ele>
        <time>2022-10-25T12:21:09.357Z</time>
      </trkpt>
      <trkpt lat="49.4236" lon="1.26796">
        <ele>145</ele>
        <time>2022-10-25T12:21:14.318Z</time>
      </trkpt>
      <trkpt lat="49.42355" lon="1.26802">
        <ele>145</ele>
        <time>2022-10-25T12:21:19.333Z</time>
      </trkpt>
      <trkpt lat="49.42352" lon="1.26805">
        <ele>145</ele>
        <time>2022-10-25T12:21:24.339Z</time>
      </trkpt>
      <trkpt lat="49.42347" lon="1.2681">
        <ele>145</ele>
        <time>2022-10-25T12:21:29.351Z</time>
      </trkpt>
      <trkpt lat="49.42342" lon="1.26814">
        <ele>146</ele>
        <time>2022-10-25T12:21:34.342Z</time>
      </trkpt>
      <trkpt lat="49.42338" lon="1.26819">
        <ele>146</ele>
        <time>2022-10-25T12:21:39.333Z</time>
      </trkpt>
      <trkpt lat="49.42333" lon="1.26824">
        <ele>146</ele>
        <time>2022-10-25T12:21:44.292Z</time>
      </trkpt>
      <trkpt lat="49.42329" lon="1.26828">
        <ele>146</ele>
        <time>2022-10-25T12:21:48.349Z</time>
      </trkpt>
      <trkpt lat="49.42324" lon="1.26833">
        <ele>146</ele>
        <time>2022-10-25T12:21:53.356Z</time>
      </trkpt>
      <trkpt lat="49.42319" lon="1.26837">
        <ele>146</ele>
        <time>2022-10-25T12:21:58.332Z</time>
      </trkpt>
      <trkpt lat="49.42315" lon="1.26841">
        <ele>146</ele>
        <time>2022-10-25T12:22:02.350Z</time>
      </trkpt>
      <trkpt lat="49.42311" lon="1.26846">
        <ele>146</ele>
        <time>2022-10-25T12:22:07.329Z</time>
      </trkpt>
      <trkpt lat="49.42308" lon="1.26849">
        <ele>146</ele>
        <time>2022-10-25T12:22:11.361Z</time>
      </trkpt>
      <trkpt lat="49.42304" lon="1.26854">
        <ele>146</ele>
        <time>2022-10-25T12:22:16.308Z</time>
      </trkpt>
      <trkpt lat="49.42301" lon="1.26859">
        <ele>146</ele>
        <time>2022-10-25T12:22:20.329Z</time>
      </trkpt>
      <trkpt lat="49.423" lon="1.26868">
        <ele>146</ele>
        <time>2022-10-25T12:22:25.304Z</time>
      </trkpt>
      <trkpt lat="49.42302" lon="1.26875">
        <ele>146</ele>
        <time>2022-10-25T12:22:29.343Z</time>
      </trkpt>
      <trkpt lat="49.42304" lon="1.26883">
        <ele>147</ele>
        <time>2022-10-25T12:22:34.325Z</time>
      </trkpt>
      <trkpt lat="49.42307" lon="1.26891">
        <ele>147</ele>
        <time>2022-10-25T12:22:39.340Z</time>
      </trkpt>
      <trkpt lat="49.4231" lon="1.26897">
        <ele>147</ele>
        <time>2022-10-25T12:22:43.352Z</time>
      </trkpt>
      <trkpt lat="49.42313" lon="1.26906">
        <ele>147</ele>
        <time>2022-10-25T12:22:48.326Z</time>
      </trkpt>
      <trkpt lat="49.42316" lon="1.26913">
        <ele>147</ele>
        <time>2022-10-25T12:22:53.353Z</time>
      </trkpt>
      <trkpt lat="49.42319" lon="1.26922">
        <ele>147</ele>
        <time>2022-10-25T12:22:58.351Z</time>
      </trkpt>
      <trkpt lat="49.42322" lon="1.26929">
        <ele>146</ele>
        <time>2022-10-25T12:23:03.356Z</time>
      </trkpt>
      <trkpt lat="49.42325" lon="1.26937">
        <ele>147</ele>
        <time>2022-10-25T12:23:08.297Z</time>
      </trkpt>
      <trkpt lat="49.42328" lon="1.26944">
        <ele>147</ele>
        <time>2022-10-25T12:23:12.317Z</time>
      </trkpt>
      <trkpt lat="49.4233" lon="1.2695">
        <ele>147</ele>
        <time>2022-10-25T12:23:16.329Z</time>
      </trkpt>
      <trkpt lat="49.42333" lon="1.26958">
        <ele>147</ele>
        <time>2022-10-25T12:23:21.329Z</time>
      </trkpt>
      <trkpt lat="49.42336" lon="1.26964">
        <ele>148</ele>
        <time>2022-10-25T12:23:25.341Z</time>
      </trkpt>
      <trkpt lat="49.42339" lon="1.26971">
        <ele>148</ele>
        <time>2022-10-25T12:23:29.353Z</time>
      </trkpt>
      <trkpt lat="49.42342" lon="1.26977">
        <ele>148</ele>
        <time>2022-10-25T12:23:34.341Z</time>
      </trkpt>
      <trkpt lat="49.42345" lon="1.26983">
        <ele>148</ele>
        <time>2022-10-25T12:23:38.355Z</time>
      </trkpt>
      <trkpt lat="49.42348" lon="1.26991">
        <ele>148</ele>
        <time>2022-10-25T12:23:43.331Z</time>
      </trkpt>
      <trkpt lat="49.42352" lon="1.26998">
        <ele>148</ele>
        <time>2022-10-25T12:23:48.335Z</time>
      </trkpt>
      <trkpt lat="49.42354" lon="1.27004">
        <ele>148</ele>
        <time>2022-10-25T12:23:52.339Z</time>
      </trkpt>
      <trkpt lat="49.42357" lon="1.27012">
        <ele>148</ele>
        <time>2022-10-25T12:23:57.341Z</time>
      </trkpt>
      <trkpt lat="49.42361" lon="1.2702">
        <ele>149</ele>
        <time>2022-10-25T12:24:02.320Z</time>
      </trkpt>
      <trkpt lat="49.42363" lon="1.27026">
        <ele>149</ele>
        <time>2022-10-25T12:24:06.354Z</time>
      </trkpt>
      <trkpt lat="49.42367" lon="1.27034">
        <ele>149</ele>
        <time>2022-10-25T12:24:11.323Z</time>
      </trkpt>
      <trkpt lat="49.4237" lon="1.27042">
        <ele>150</ele>
        <time>2022-10-25T12:24:16.337Z</time>
      </trkpt>
      <trkpt lat="49.42373" lon="1.27049">
        <ele>150</ele>
        <time>2022-10-25T12:24:21.317Z</time>
      </trkpt>
      <trkpt lat="49.42376" lon="1.27055">
        <ele>150</ele>
        <time>2022-10-25T12:24:25.339Z</time>
      </trkpt>
      <trkpt lat="49.42379" lon="1.27063">
        <ele>150</ele>
        <time>2022-10-25T12:24:30.342Z</time>
      </trkpt>
      <trkpt lat="49.42382" lon="1.27071">
        <ele>150</ele>
        <time>2022-10-25T12:24:35.360Z</time>
      </trkpt>
      <trkpt lat="49.42386" lon="1.27078">
        <ele>150</ele>
        <time>2022-10-25T12:24:40.348Z</time>
      </trkpt>
      <trkpt lat="49.42389" lon="1.27087">
        <ele>150</ele>
        <time>2022-10-25T12:24:45.348Z</time>
      </trkpt>
      <trkpt lat="49.42392" lon="1.27095">
        <ele>150</ele>
        <time>2022-10-25T12:24:50.339Z</time>
      </trkpt>
      <trkpt lat="49.42396" lon="1.27103">
        <ele>150</ele>
        <time>2022-10-25T12:24:55.303Z</time>
      </trkpt>
      <trkpt lat="49.42399" lon="1.27109">
        <ele>150</ele>
        <time>2022-10-25T12:24:59.326Z</time>
      </trkpt>
      <trkpt lat="49.42402" lon="1.27115">
        <ele>150</ele>
        <time>2022-10-25T12:25:03.329Z</time>
      </trkpt>
      <trkpt lat="49.42405" lon="1.27122">
        <ele>150</ele>
        <time>2022-10-25T12:25:07.349Z</time>
      </trkpt>
      <trkpt lat="49.42408" lon="1.27129">
        <ele>150</ele>
        <time>2022-10-25T12:25:12.322Z</time>
      </trkpt>
      <trkpt lat="49.42411" lon="1.27136">
        <ele>150</ele>
        <time>2022-10-25T12:25:17.348Z</time>
      </trkpt>
      <trkpt lat="49.42414" lon="1.27143">
        <ele>150</ele>
        <time>2022-10-25T12:25:22.314Z</time>
      </trkpt>
      <trkpt lat="49.42417" lon="1.2715">
        <ele>150</ele>
        <time>2022-10-25T12:25:27.364Z</time>
      </trkpt>
      <trkpt lat="49.42421" lon="1.27157">
        <ele>152</ele>
        <time>2022-10-25T12:25:32.332Z</time>
      </trkpt>
      <trkpt lat="49.42424" lon="1.27165">
        <ele>152</ele>
        <time>2022-10-25T12:25:37.334Z</time>
      </trkpt>
      <trkpt lat="49.42427" lon="1.27171">
        <ele>152</ele>
        <time>2022-10-25T12:25:41.333Z</time>
      </trkpt>
      <trkpt lat="49.4243" lon="1.27179">
        <ele>152</ele>
        <time>2022-10-25T12:25:46.344Z</time>
      </trkpt>
      <trkpt lat="49.42432" lon="1.27186">
        <ele>152</ele>
        <time>2022-10-25T12:25:51.304Z</time>
      </trkpt>
      <trkpt lat="49.42434" lon="1.2719">
        <ele>152</ele>
        <time>2022-10-25T12:25:55.343Z</time>
      </trkpt>
      <trkpt lat="49.42438" lon="1.27198">
        <ele>152</ele>
        <time>2022-10-25T12:26:00.339Z</time>
      </trkpt>
      <trkpt lat="49.42441" lon="1.27206">
        <ele>152</ele>
        <time>2022-10-25T12:26:05.304Z</time>
      </trkpt>
      <trkpt lat="49.42443" lon="1.27212">
        <ele>152</ele>
        <time>2022-10-25T12:26:09.345Z</time>
      </trkpt>
      <trkpt lat="49.42446" lon="1.2722">
        <ele>152</ele>
        <time>2022-10-25T12:26:14.340Z</time>
      </trkpt>
      <trkpt lat="49.42448" lon="1.27226">
        <ele>152</ele>
        <time>2022-10-25T12:26:18.349Z</time>
      </trkpt>
      <trkpt lat="49.42451" lon="1.27234">
        <ele>152</ele>
        <time>2022-10-25T12:26:23.319Z</time>
      </trkpt>
      <trkpt lat="49.42454" lon="1.2724">
        <ele>153</ele>
        <time>2022-10-25T12:26:27.341Z</time>
      </trkpt>
      <trkpt lat="49.42457" lon="1.27248">
        <ele>153</ele>
        <time>2022-10-25T12:26:32.330Z</time>
      </trkpt>
      <trkpt lat="49.4246" lon="1.27255">
        <ele>152</ele>
        <time>2022-10-25T12:26:36.351Z</time>
      </trkpt>
      <trkpt lat="49.42463" lon="1.27262">
        <ele>152</ele>
        <time>2022-10-25T12:26:41.333Z</time>
      </trkpt>
      <trkpt lat="49.42467" lon="1.27269">
        <ele>153</ele>
        <time>2022-10-25T12:26:46.300Z</time>
      </trkpt>
      <trkpt lat="49.42469" lon="1.27275">
        <ele>153</ele>
        <time>2022-10-25T12:26:50.324Z</time>
      </trkpt>
      <trkpt lat="49.42471" lon="1.27281">
        <ele>153</ele>
        <time>2022-10-25T12:26:54.356Z</time>
      </trkpt>
      <trkpt lat="49.42475" lon="1.27288">
        <ele>153</ele>
        <time>2022-10-25T12:26:59.329Z</time>
      </trkpt>
      <trkpt lat="49.42477" lon="1.27293">
        <ele>153</ele>
        <time>2022-10-25T12:27:03.347Z</time>
      </trkpt>
      <trkpt lat="49.4248" lon="1.27299">
        <ele>153</ele>
        <time>2022-10-25T12:27:08.298Z</time>
      </trkpt>
      <trkpt lat="49.42482" lon="1.27304">
        <ele>153</ele>
        <time>2022-10-25T12:27:12.336Z</time>
      </trkpt>
      <trkpt lat="49.42484" lon="1.2731">
        <ele>153</ele>
        <time>2022-10-25T12:27:17.341Z</time>
      </trkpt>
      <trkpt lat="49.42486" lon="1.27316">
        <ele>152</ele>
        <time>2022-10-25T12:27:22.347Z</time>
      </trkpt>
      <trkpt lat="49.4249" lon="1.27325">
        <ele>153</ele>
        <time>2022-10-25T12:29:30.317Z</time>
      </trkpt>
      <trkpt lat="49.4249" lon="1.27324">
        <ele>153</ele>
        <time>2022-10-25T12:29:34.331Z</time>
      </trkpt>
      <trkpt lat="49.42491" lon="1.27326">
        <ele>153</ele>
        <time>2022-10-25T12:29:39.349Z</time>
      </trkpt>
      <trkpt lat="49.42494" lon="1.27333">
        <ele>153</ele>
        <time>2022-10-25T12:29:44.319Z</time>
      </trkpt>
      <trkpt lat="49.42497" lon="1.27341">
        <ele>153</ele>
        <time>2022-10-25T12:29:49.300Z</time>
      </trkpt>
      <trkpt lat="49.425" lon="1.27346">
        <ele>153</ele>
        <time>2022-10-25T12:29:53.326Z</time>
      </trkpt>
      <trkpt lat="49.425" lon="1.27347">
        <ele>153</ele>
        <time>2022-10-25T12:29:57.329Z</time>
      </trkpt>
      <trkpt lat="49.42504" lon="1.27355">
        <ele>154</ele>
        <time>2022-10-25T12:30:02.300Z</time>
      </trkpt>
      <trkpt lat="49.42507" lon="1.27361">
        <ele>154</ele>
        <time>2022-10-25T12:30:06.333Z</time>
      </trkpt>
      <trkpt lat="49.4251" lon="1.27368">
        <ele>154</ele>
        <time>2022-10-25T12:30:11.335Z</time>
      </trkpt>
      <trkpt lat="49.42513" lon="1.27376">
        <ele>155</ele>
        <time>2022-10-25T12:30:16.345Z</time>
      </trkpt>
      <trkpt lat="49.42516" lon="1.27385">
        <ele>153</ele>
        <time>2022-10-25T12:30:21.354Z</time>
      </trkpt>
      <trkpt lat="49.42521" lon="1.27392">
        <ele>153</ele>
        <time>2022-10-25T12:30:26.337Z</time>
      </trkpt>
      <trkpt lat="49.42525" lon="1.274">
        <ele>153</ele>
        <time>2022-10-25T12:30:31.337Z</time>
      </trkpt>
      <trkpt lat="49.42529" lon="1.27407">
        <ele>154</ele>
        <time>2022-10-25T12:30:35.350Z</time>
      </trkpt>
      <trkpt lat="49.42532" lon="1.27415">
        <ele>154</ele>
        <time>2022-10-25T12:30:40.299Z</time>
      </trkpt>
      <trkpt lat="49.42534" lon="1.27422">
        <ele>154</ele>
        <time>2022-10-25T12:30:44.332Z</time>
      </trkpt>
      <trkpt lat="49.42536" lon="1.27429">
        <ele>154</ele>
        <time>2022-10-25T12:30:48.348Z</time>
      </trkpt>
      <trkpt lat="49.4254" lon="1.27435">
        <ele>155</ele>
        <time>2022-10-25T12:30:53.334Z</time>
      </trkpt>
      <trkpt lat="49.42543" lon="1.27443">
        <ele>153</ele>
        <time>2022-10-25T12:30:58.331Z</time>
      </trkpt>
      <trkpt lat="49.42546" lon="1.2745">
        <ele>153</ele>
        <time>2022-10-25T12:31:03.345Z</time>
      </trkpt>
      <trkpt lat="49.42549" lon="1.27457">
        <ele>153</ele>
        <time>2022-10-25T12:31:08.336Z</time>
      </trkpt>
      <trkpt lat="49.42552" lon="1.27463">
        <ele>154</ele>
        <time>2022-10-25T12:31:12.318Z</time>
      </trkpt>
      <trkpt lat="49.42554" lon="1.27471">
        <ele>154</ele>
        <time>2022-10-25T12:31:17.333Z</time>
      </trkpt>
      <trkpt lat="49.42559" lon="1.27477">
        <ele>154</ele>
        <time>2022-10-25T12:31:22.299Z</time>
      </trkpt>
      <trkpt lat="49.42562" lon="1.27477">
        <ele>154</ele>
        <time>2022-10-25T12:31:26.340Z</time>
      </trkpt>
      <trkpt lat="49.42567" lon="1.27476">
        <ele>154</ele>
        <time>2022-10-25T12:31:31.324Z</time>
      </trkpt>
      <trkpt lat="49.42573" lon="1.27471">
        <ele>153</ele>
        <time>2022-10-25T12:31:36.301Z</time>
      </trkpt>
      <trkpt lat="49.42577" lon="1.27468">
        <ele>153</ele>
        <time>2022-10-25T12:31:40.307Z</time>
      </trkpt>
      <trkpt lat="49.42582" lon="1.27465">
        <ele>153</ele>
        <time>2022-10-25T12:31:45.307Z</time>
      </trkpt>
      <trkpt lat="49.42586" lon="1.27462">
        <ele>153</ele>
        <time>2022-10-25T12:31:49.308Z</time>
      </trkpt>
      <trkpt lat="49.4259" lon="1.2746">
        <ele>153</ele>
        <time>2022-10-25T12:31:53.309Z</time>
      </trkpt>
      <trkpt lat="49.42595" lon="1.27457">
        <ele>153</ele>
        <time>2022-10-25T12:31:58.296Z</time>
      </trkpt>
      <trkpt lat="49.42599" lon="1.27454">
        <ele>153</ele>
        <time>2022-10-25T12:32:02.311Z</time>
      </trkpt>
      <trkpt lat="49.42603" lon="1.2745">
        <ele>153</ele>
        <time>2022-10-25T12:32:06.314Z</time>
      </trkpt>
      <trkpt lat="49.42608" lon="1.27446">
        <ele>153</ele>
        <time>2022-10-25T12:32:11.333Z</time>
      </trkpt>
      <trkpt lat="49.42612" lon="1.27444">
        <ele>153</ele>
        <time>2022-10-25T12:32:15.345Z</time>
      </trkpt>
      <trkpt lat="49.42617" lon="1.2744">
        <ele>153</ele>
        <time>2022-10-25T12:32:20.323Z</time>
      </trkpt>
      <trkpt lat="49.42618" lon="1.27438">
        <ele>153</ele>
        <time>2022-10-25T12:32:24.332Z</time>
      </trkpt>
      <trkpt lat="49.42623" lon="1.27436">
        <ele>153</ele>
        <time>2022-10-25T12:32:29.330Z</time>
      </trkpt>
      <trkpt lat="49.42629" lon="1.27431">
        <ele>151</ele>
        <time>2022-10-25T12:32:34.335Z</time>
      </trkpt>
      <trkpt lat="49.42633" lon="1.27427">
        <ele>152</ele>
        <time>2022-10-25T12:32:38.346Z</time>
      </trkpt>
      <trkpt lat="49.42639" lon="1.27422">
        <ele>152</ele>
        <time>2022-10-25T12:32:43.346Z</time>
      </trkpt>
      <trkpt lat="49.42645" lon="1.27417">
        <ele>152</ele>
        <time>2022-10-25T12:32:48.344Z</time>
      </trkpt>
      <trkpt lat="49.4265" lon="1.27415">
        <ele>152</ele>
        <time>2022-10-25T12:32:52.348Z</time>
      </trkpt>
      <trkpt lat="49.42655" lon="1.27411">
        <ele>148</ele>
        <time>2022-10-25T12:32:57.301Z</time>
      </trkpt>
      <trkpt lat="49.42659" lon="1.27408">
        <ele>148</ele>
        <time>2022-10-25T12:33:01.310Z</time>
      </trkpt>
      <trkpt lat="49.42663" lon="1.27405">
        <ele>148</ele>
        <time>2022-10-25T12:33:05.339Z</time>
      </trkpt>
      <trkpt lat="49.42668" lon="1.274">
        <ele>148</ele>
        <time>2022-10-25T12:33:10.329Z</time>
      </trkpt>
      <trkpt lat="49.42673" lon="1.27396">
        <ele>148</ele>
        <time>2022-10-25T12:33:14.327Z</time>
      </trkpt>
      <trkpt lat="49.42678" lon="1.27392">
        <ele>148</ele>
        <time>2022-10-25T12:33:19.336Z</time>
      </trkpt>
      <trkpt lat="49.42683" lon="1.27389">
        <ele>144</ele>
        <time>2022-10-25T12:33:23.354Z</time>
      </trkpt>
      <trkpt lat="49.42689" lon="1.27384">
        <ele>144</ele>
        <time>2022-10-25T12:33:28.324Z</time>
      </trkpt>
      <trkpt lat="49.42694" lon="1.27379">
        <ele>144</ele>
        <time>2022-10-25T12:33:33.303Z</time>
      </trkpt>
      <trkpt lat="49.42697" lon="1.27373">
        <ele>144</ele>
        <time>2022-10-25T12:33:37.325Z</time>
      </trkpt>
      <trkpt lat="49.42701" lon="1.27369">
        <ele>144</ele>
        <time>2022-10-25T12:33:41.339Z</time>
      </trkpt>
      <trkpt lat="49.42706" lon="1.27364">
        <ele>144</ele>
        <time>2022-10-25T12:33:46.331Z</time>
      </trkpt>
      <trkpt lat="49.4271" lon="1.27359">
        <ele>142</ele>
        <time>2022-10-25T12:33:50.357Z</time>
      </trkpt>
      <trkpt lat="49.42714" lon="1.27352">
        <ele>142</ele>
        <time>2022-10-25T12:33:55.338Z</time>
      </trkpt>
      <trkpt lat="49.42718" lon="1.27348">
        <ele>142</ele>
        <time>2022-10-25T12:33:59.337Z</time>
      </trkpt>
      <trkpt lat="49.42722" lon="1.27345">
        <ele>142</ele>
        <time>2022-10-25T12:34:03.328Z</time>
      </trkpt>
      <trkpt lat="49.42726" lon="1.27339">
        <ele>142</ele>
        <time>2022-10-25T12:34:08.344Z</time>
      </trkpt>
      <trkpt lat="49.4273" lon="1.27333">
        <ele>142</ele>
        <time>2022-10-25T12:34:13.334Z</time>
      </trkpt>
      <trkpt lat="49.42733" lon="1.27329">
        <ele>142</ele>
        <time>2022-10-25T12:34:17.352Z</time>
      </trkpt>
      <trkpt lat="49.42738" lon="1.27324">
        <ele>141</ele>
        <time>2022-10-25T12:34:22.319Z</time>
      </trkpt>
      <trkpt lat="49.42741" lon="1.2732">
        <ele>141</ele>
        <time>2022-10-25T12:34:26.368Z</time>
      </trkpt>
      <trkpt lat="49.42746" lon="1.27314">
        <ele>140</ele>
        <time>2022-10-25T12:34:31.356Z</time>
      </trkpt>
      <trkpt lat="49.42751" lon="1.27309">
        <ele>140</ele>
        <time>2022-10-25T12:34:36.304Z</time>
      </trkpt>
      <trkpt lat="49.42755" lon="1.27307">
        <ele>140</ele>
        <time>2022-10-25T12:34:40.351Z</time>
      </trkpt>
      <trkpt lat="49.42761" lon="1.27303">
        <ele>140</ele>
        <time>2022-10-25T12:34:45.350Z</time>
      </trkpt>
      <trkpt lat="49.42766" lon="1.27299">
        <ele>140</ele>
        <time>2022-10-25T12:34:50.353Z</time>
      </trkpt>
      <trkpt lat="49.42771" lon="1.273">
        <ele>140</ele>
        <time>2022-10-25T12:34:55.321Z</time>
      </trkpt>
      <trkpt lat="49.42775" lon="1.27296">
        <ele>140</ele>
        <time>2022-10-25T12:34:59.328Z</time>
      </trkpt>
      <trkpt lat="49.42779" lon="1.27293">
        <ele>140</ele>
        <time>2022-10-25T12:35:03.337Z</time>
      </trkpt>
      <trkpt lat="49.42785" lon="1.27292">
        <ele>141</ele>
        <time>2022-10-25T12:35:08.350Z</time>
      </trkpt>
      <trkpt lat="49.4279" lon="1.2729">
        <ele>141</ele>
        <time>2022-10-25T12:35:13.360Z</time>
      </trkpt>
      <trkpt lat="49.42795" lon="1.27289">
        <ele>142</ele>
        <time>2022-10-25T12:35:18.320Z</time>
      </trkpt>
      <trkpt lat="49.42799" lon="1.27287">
        <ele>142</ele>
        <time>2022-10-25T12:35:22.327Z</time>
      </trkpt>
      <trkpt lat="49.42804" lon="1.27286">
        <ele>142</ele>
        <time>2022-10-25T12:35:27.330Z</time>
      </trkpt>
      <trkpt lat="49.42809" lon="1.27284">
        <ele>142</ele>
        <time>2022-10-25T12:35:32.344Z</time>
      </trkpt>
      <trkpt lat="49.42815" lon="1.27281">
        <ele>142</ele>
        <time>2022-10-25T12:35:37.335Z</time>
      </trkpt>
      <trkpt lat="49.4282" lon="1.27279">
        <ele>143</ele>
        <time>2022-10-25T12:35:42.356Z</time>
      </trkpt>
      <trkpt lat="49.42825" lon="1.27276">
        <ele>143</ele>
        <time>2022-10-25T12:35:47.324Z</time>
      </trkpt>
      <trkpt lat="49.42828" lon="1.27274">
        <ele>143</ele>
        <time>2022-10-25T12:35:51.325Z</time>
      </trkpt>
      <trkpt lat="49.42832" lon="1.27272">
        <ele>143</ele>
        <time>2022-10-25T12:35:55.338Z</time>
      </trkpt>
      <trkpt lat="49.42837" lon="1.2727">
        <ele>143</ele>
        <time>2022-10-25T12:36:00.339Z</time>
      </trkpt>
      <trkpt lat="49.42841" lon="1.27268">
        <ele>143</ele>
        <time>2022-10-25T12:36:04.343Z</time>
      </trkpt>
      <trkpt lat="49.42846" lon="1.27265">
        <ele>143</ele>
        <time>2022-10-25T12:36:09.360Z</time>
      </trkpt>
      <trkpt lat="49.4285" lon="1.27261">
        <ele>144</ele>
        <time>2022-10-25T12:36:14.339Z</time>
      </trkpt>
      <trkpt lat="49.42855" lon="1.27257">
        <ele>144</ele>
        <time>2022-10-25T12:36:19.355Z</time>
      </trkpt>
      <trkpt lat="49.42859" lon="1.27252">
        <ele>144</ele>
        <time>2022-10-25T12:36:24.327Z</time>
      </trkpt>
      <trkpt lat="49.42863" lon="1.27249">
        <ele>144</ele>
        <time>2022-10-25T12:36:28.349Z</time>
      </trkpt>
      <trkpt lat="49.42867" lon="1.27246">
        <ele>144</ele>
        <time>2022-10-25T12:36:32.352Z</time>
      </trkpt>
      <trkpt lat="49.42871" lon="1.27242">
        <ele>144</ele>
        <time>2022-10-25T12:36:37.345Z</time>
      </trkpt>
      <trkpt lat="49.42876" lon="1.27238">
        <ele>145</ele>
        <time>2022-10-25T12:36:42.338Z</time>
      </trkpt>
      <trkpt lat="49.4288" lon="1.27235">
        <ele>146</ele>
        <time>2022-10-25T12:36:46.330Z</time>
      </trkpt>
      <trkpt lat="49.42884" lon="1.27231">
        <ele>146</ele>
        <time>2022-10-25T12:36:51.324Z</time>
      </trkpt>
      <trkpt lat="49.42888" lon="1.27227">
        <ele>146</ele>
        <time>2022-10-25T12:36:55.332Z</time>
      </trkpt>
      <trkpt lat="49.42891" lon="1.27223">
        <ele>146</ele>
        <time>2022-10-25T12:36:59.370Z</time>
      </trkpt>
      <trkpt lat="49.42896" lon="1.27219">
        <ele>146</ele>
        <time>2022-10-25T12:37:04.327Z</time>
      </trkpt>
      <trkpt lat="49.429" lon="1.27214">
        <ele>146</ele>
        <time>2022-10-25T12:37:09.366Z</time>
      </trkpt>
      <trkpt lat="49.42905" lon="1.27211">
        <ele>147</ele>
        <time>2022-10-25T12:37:14.338Z</time>
      </trkpt>
      <trkpt lat="49.4291" lon="1.27207">
        <ele>148</ele>
        <time>2022-10-25T12:37:19.331Z</time>
      </trkpt>
      <trkpt lat="49.42913" lon="1.27203">
        <ele>148</ele>
        <time>2022-10-25T12:37:23.359Z</time>
      </trkpt>
      <trkpt lat="49.42918" lon="1.27199">
        <ele>148</ele>
        <time>2022-10-25T12:37:28.343Z</time>
      </trkpt>
      <trkpt lat="49.42921" lon="1.27196">
        <ele>148</ele>
        <time>2022-10-25T12:37:32.346Z</time>
      </trkpt>
      <trkpt lat="49.42926" lon="1.27191">
        <ele>148</ele>
        <time>2022-10-25T12:37:37.347Z</time>
      </trkpt>
      <trkpt lat="49.4293" lon="1.27188">
        <ele>148</ele>
        <time>2022-10-25T12:37:41.347Z</time>
      </trkpt>
      <trkpt lat="49.42934" lon="1.27184">
        <ele>148</ele>
        <time>2022-10-25T12:37:46.348Z</time>
      </trkpt>
      <trkpt lat="49.42939" lon="1.27179">
        <ele>149</ele>
        <time>2022-10-25T12:37:51.355Z</time>
      </trkpt>
      <trkpt lat="49.42944" lon="1.27176">
        <ele>149</ele>
        <time>2022-10-25T12:37:56.342Z</time>
      </trkpt>
      <trkpt lat="49.42949" lon="1.27171">
        <ele>149</ele>
        <time>2022-10-25T12:38:01.341Z</time>
      </trkpt>
      <trkpt lat="49.42952" lon="1.27167">
        <ele>149</ele>
        <time>2022-10-25T12:38:05.342Z</time>
      </trkpt>
      <trkpt lat="49.42956" lon="1.27164">
        <ele>149</ele>
        <time>2022-10-25T12:38:10.340Z</time>
      </trkpt>
      <trkpt lat="49.4296" lon="1.2716">
        <ele>147</ele>
        <time>2022-10-25T12:38:14.348Z</time>
      </trkpt>
      <trkpt lat="49.42965" lon="1.27155">
        <ele>147</ele>
        <time>2022-10-25T12:38:19.346Z</time>
      </trkpt>
      <trkpt lat="49.42969" lon="1.27152">
        <ele>147</ele>
        <time>2022-10-25T12:38:24.328Z</time>
      </trkpt>
      <trkpt lat="49.42973" lon="1.27148">
        <ele>147</ele>
        <time>2022-10-25T12:38:28.337Z</time>
      </trkpt>
      <trkpt lat="49.42978" lon="1.27145">
        <ele>147</ele>
        <time>2022-10-25T12:38:33.357Z</time>
      </trkpt>
      <trkpt lat="49.42983" lon="1.2714">
        <ele>147</ele>
        <time>2022-10-25T12:38:38.354Z</time>
      </trkpt>
      <trkpt lat="49.42988" lon="1.27138">
        <ele>147</ele>
        <time>2022-10-25T12:38:43.338Z</time>
      </trkpt>
      <trkpt lat="49.42992" lon="1.27135">
        <ele>147</ele>
        <time>2022-10-25T12:38:47.362Z</time>
      </trkpt>
      <trkpt lat="49.42997" lon="1.2713">
        <ele>147</ele>
        <time>2022-10-25T12:38:52.339Z</time>
      </trkpt>
      <trkpt lat="49.43001" lon="1.27126">
        <ele>147</ele>
        <time>2022-10-25T12:38:57.324Z</time>
      </trkpt>
      <trkpt lat="49.43005" lon="1.27123">
        <ele>148</ele>
        <time>2022-10-25T12:39:01.356Z</time>
      </trkpt>
      <trkpt lat="49.43011" lon="1.27121">
        <ele>148</ele>
        <time>2022-10-25T12:39:06.332Z</time>
      </trkpt>
      <trkpt lat="49.43016" lon="1.27119">
        <ele>149</ele>
        <time>2022-10-25T12:39:11.348Z</time>
      </trkpt>
      <trkpt lat="49.43021" lon="1.27115">
        <ele>149</ele>
        <time>2022-10-25T12:39:16.348Z</time>
      </trkpt>
      <trkpt lat="49.43026" lon="1.27111">
        <ele>149</ele>
        <time>2022-10-25T12:39:21.349Z</time>
      </trkpt>
      <trkpt lat="49.43031" lon="1.27108">
        <ele>149</ele>
        <time>2022-10-25T12:39:26.330Z</time>
      </trkpt>
      <trkpt lat="49.43035" lon="1.27106">
        <ele>149</ele>
        <time>2022-10-25T12:39:30.367Z</time>
      </trkpt>
      <trkpt lat="49.43039" lon="1.27103">
        <ele>149</ele>
        <time>2022-10-25T12:39:35.348Z</time>
      </trkpt>
      <trkpt lat="49.43043" lon="1.27099">
        <ele>148</ele>
        <time>2022-10-25T12:39:39.355Z</time>
      </trkpt>
      <trkpt lat="49.43048" lon="1.27094">
        <ele>148</ele>
        <time>2022-10-25T12:39:44.345Z</time>
      </trkpt>
      <trkpt lat="49.43053" lon="1.2709">
        <ele>148</ele>
        <time>2022-10-25T12:39:49.342Z</time>
      </trkpt>
      <trkpt lat="49.43058" lon="1.27086">
        <ele>148</ele>
        <time>2022-10-25T12:39:54.358Z</time>
      </trkpt>
      <trkpt lat="49.43063" lon="1.27082">
        <ele>148</ele>
        <time>2022-10-25T12:39:59.345Z</time>
      </trkpt>
      <trkpt lat="49.43066" lon="1.27079">
        <ele>148</ele>
        <time>2022-10-25T12:40:03.353Z</time>
      </trkpt>
      <trkpt lat="49.43071" lon="1.27075">
        <ele>147</ele>
        <time>2022-10-25T12:40:08.312Z</time>
      </trkpt>
      <trkpt lat="49.43075" lon="1.27071">
        <ele>147</ele>
        <time>2022-10-25T12:40:12.340Z</time>
      </trkpt>
      <trkpt lat="49.43079" lon="1.27068">
        <ele>147</ele>
        <time>2022-10-25T12:40:16.345Z</time>
      </trkpt>
      <trkpt lat="49.43084" lon="1.27063">
        <ele>147</ele>
        <time>2022-10-25T12:40:21.347Z</time>
      </trkpt>
      <trkpt lat="49.43088" lon="1.2706">
        <ele>147</ele>
        <time>2022-10-25T12:40:26.339Z</time>
      </trkpt>
      <trkpt lat="49.43093" lon="1.27055">
        <ele>147</ele>
        <time>2022-10-25T12:40:31.337Z</time>
      </trkpt>
      <trkpt lat="49.43096" lon="1.27053">
        <ele>147</ele>
        <time>2022-10-25T12:40:36.352Z</time>
      </trkpt>
      <trkpt lat="49.43101" lon="1.2705">
        <ele>146</ele>
        <time>2022-10-25T12:40:41.345Z</time>
      </trkpt>
      <trkpt lat="49.43106" lon="1.27047">
        <ele>146</ele>
        <time>2022-10-25T12:40:46.318Z</time>
      </trkpt>
      <trkpt lat="49.4311" lon="1.27043">
        <ele>146</ele>
        <time>2022-10-25T12:40:51.345Z</time>
      </trkpt>
      <trkpt lat="49.43114" lon="1.2704">
        <ele>146</ele>
        <time>2022-10-25T12:40:56.332Z</time>
      </trkpt>
      <trkpt lat="49.43117" lon="1.27037">
        <ele>146</ele>
        <time>2022-10-25T12:41:00.345Z</time>
      </trkpt>
      <trkpt lat="49.43121" lon="1.27033">
        <ele>146</ele>
        <time>2022-10-25T12:41:05.343Z</time>
      </trkpt>
      <trkpt lat="49.43125" lon="1.27031">
        <ele>146</ele>
        <time>2022-10-25T12:41:10.330Z</time>
      </trkpt>
      <trkpt lat="49.43129" lon="1.2703">
        <ele>145</ele>
        <time>2022-10-25T12:41:15.329Z</time>
      </trkpt>
      <trkpt lat="49.43131" lon="1.27029">
        <ele>145</ele>
        <time>2022-10-25T12:41:19.341Z</time>
      </trkpt>
      <trkpt lat="49.43132" lon="1.27027">
        <ele>145</ele>
        <time>2022-10-25T12:41:24.326Z</time>
      </trkpt>
      <trkpt lat="49.43135" lon="1.27026">
        <ele>145</ele>
        <time>2022-10-25T12:41:29.330Z</time>
      </trkpt>
      <trkpt lat="49.43139" lon="1.27024">
        <ele>145</ele>
        <time>2022-10-25T12:41:33.340Z</time>
      </trkpt>
      <trkpt lat="49.43144" lon="1.27022">
        <ele>145</ele>
        <time>2022-10-25T12:41:37.337Z</time>
      </trkpt>
      <trkpt lat="49.43148" lon="1.2702">
        <ele>145</ele>
        <time>2022-10-25T12:41:42.336Z</time>
      </trkpt>
      <trkpt lat="49.43151" lon="1.27021">
        <ele>145</ele>
        <time>2022-10-25T12:41:46.348Z</time>
      </trkpt>
      <trkpt lat="49.43154" lon="1.2702">
        <ele>146</ele>
        <time>2022-10-25T12:41:51.319Z</time>
      </trkpt>
      <trkpt lat="49.43159" lon="1.2702">
        <ele>146</ele>
        <time>2022-10-25T12:41:56.359Z</time>
      </trkpt>
      <trkpt lat="49.43164" lon="1.27018">
        <ele>146</ele>
        <time>2022-10-25T12:42:01.344Z</time>
      </trkpt>
      <trkpt lat="49.43169" lon="1.27017">
        <ele>146</ele>
        <time>2022-10-25T12:42:06.360Z</time>
      </trkpt>
      <trkpt lat="49.43174" lon="1.27016">
        <ele>146</ele>
        <time>2022-10-25T12:42:11.327Z</time>
      </trkpt>
      <trkpt lat="49.43179" lon="1.27015">
        <ele>146</ele>
        <time>2022-10-25T12:42:16.330Z</time>
      </trkpt>
      <trkpt lat="49.43184" lon="1.27012">
        <ele>146</ele>
        <time>2022-10-25T12:42:21.304Z</time>
      </trkpt>
      <trkpt lat="49.43189" lon="1.2701">
        <ele>146</ele>
        <time>2022-10-25T12:42:25.314Z</time>
      </trkpt>
      <trkpt lat="49.43193" lon="1.2701">
        <ele>146</ele>
        <time>2022-10-25T12:42:29.341Z</time>
      </trkpt>
      <trkpt lat="49.43199" lon="1.27007">
        <ele>146</ele>
        <time>2022-10-25T12:42:34.343Z</time>
      </trkpt>
      <trkpt lat="49.43204" lon="1.27006">
        <ele>146</ele>
        <time>2022-10-25T12:42:39.334Z</time>
      </trkpt>
      <trkpt lat="49.43208" lon="1.27006">
        <ele>146</ele>
        <time>2022-10-25T12:42:43.337Z</time>
      </trkpt>
      <trkpt lat="49.43213" lon="1.27004">
        <ele>146</ele>
        <time>2022-10-25T12:42:48.327Z</time>
      </trkpt>
      <trkpt lat="49.43218" lon="1.27003">
        <ele>146</ele>
        <time>2022-10-25T12:42:53.340Z</time>
      </trkpt>
      <trkpt lat="49.43225" lon="1.27002">
        <ele>146</ele>
        <time>2022-10-25T12:42:57.352Z</time>
      </trkpt>
      <trkpt lat="49.43232" lon="1.26999">
        <ele>146</ele>
        <time>2022-10-25T12:43:02.336Z</time>
      </trkpt>
      <trkpt lat="49.43242" lon="1.26998">
        <ele>146</ele>
        <time>2022-10-25T12:43:07.332Z</time>
      </trkpt>
      <trkpt lat="49.4325" lon="1.26996">
        <ele>146</ele>
        <time>2022-10-25T12:43:11.335Z</time>
      </trkpt>
      <trkpt lat="49.43258" lon="1.26994">
        <ele>146</ele>
        <time>2022-10-25T12:43:16.346Z</time>
      </trkpt>
      <trkpt lat="49.43266" lon="1.26992">
        <ele>146</ele>
        <time>2022-10-25T12:43:21.307Z</time>
      </trkpt>
      <trkpt lat="49.43272" lon="1.26989">
        <ele>146</ele>
        <time>2022-10-25T12:43:25.326Z</time>
      </trkpt>
      <trkpt lat="49.43279" lon="1.26986">
        <ele>146</ele>
        <time>2022-10-25T12:43:30.338Z</time>
      </trkpt>
      <trkpt lat="49.43286" lon="1.26983">
        <ele>146</ele>
        <time>2022-10-25T12:43:35.334Z</time>
      </trkpt>
      <trkpt lat="49.43291" lon="1.26981">
        <ele>146</ele>
        <time>2022-10-25T12:43:40.339Z</time>
      </trkpt>
      <trkpt lat="49.43297" lon="1.26978">
        <ele>147</ele>
        <time>2022-10-25T12:43:45.314Z</time>
      </trkpt>
      <trkpt lat="49.43301" lon="1.26977">
        <ele>147</ele>
        <time>2022-10-25T12:43:49.349Z</time>
      </trkpt>
      <trkpt lat="49.43306" lon="1.26975">
        <ele>147</ele>
        <time>2022-10-25T12:43:54.332Z</time>
      </trkpt>
      <trkpt lat="49.43312" lon="1.26973">
        <ele>147</ele>
        <time>2022-10-25T12:43:59.325Z</time>
      </trkpt>
      <trkpt lat="49.43316" lon="1.26971">
        <ele>147</ele>
        <time>2022-10-25T12:44:03.333Z</time>
      </trkpt>
      <trkpt lat="49.43321" lon="1.2697">
        <ele>148</ele>
        <time>2022-10-25T12:44:08.332Z</time>
      </trkpt>
      <trkpt lat="49.43325" lon="1.26968">
        <ele>148</ele>
        <time>2022-10-25T12:44:12.354Z</time>
      </trkpt>
      <trkpt lat="49.43331" lon="1.26967">
        <ele>148</ele>
        <time>2022-10-25T12:44:17.348Z</time>
      </trkpt>
      <trkpt lat="49.43337" lon="1.26965">
        <ele>148</ele>
        <time>2022-10-25T12:44:22.337Z</time>
      </trkpt>
      <trkpt lat="49.43342" lon="1.26964">
        <ele>148</ele>
        <time>2022-10-25T12:44:27.330Z</time>
      </trkpt>
      <trkpt lat="49.43347" lon="1.26962">
        <ele>148</ele>
        <time>2022-10-25T12:44:32.343Z</time>
      </trkpt>
      <trkpt lat="49.43352" lon="1.26959">
        <ele>149</ele>
        <time>2022-10-25T12:44:37.341Z</time>
      </trkpt>
      <trkpt lat="49.43357" lon="1.26958">
        <ele>149</ele>
        <time>2022-10-25T12:44:42.335Z</time>
      </trkpt>
      <trkpt lat="49.43362" lon="1.26956">
        <ele>149</ele>
        <time>2022-10-25T12:44:47.327Z</time>
      </trkpt>
      <trkpt lat="49.43365" lon="1.26954">
        <ele>149</ele>
        <time>2022-10-25T12:44:51.333Z</time>
      </trkpt>
      <trkpt lat="49.43368" lon="1.26951">
        <ele>149</ele>
        <time>2022-10-25T12:44:56.342Z</time>
      </trkpt>
      <trkpt lat="49.43371" lon="1.26951">
        <ele>149</ele>
        <time>2022-10-25T12:45:01.315Z</time>
      </trkpt>
      <trkpt lat="49.43373" lon="1.26952">
        <ele>149</ele>
        <time>2022-10-25T12:45:05.327Z</time>
      </trkpt>
      <trkpt lat="49.43377" lon="1.26952">
        <ele>150</ele>
        <time>2022-10-25T12:45:10.333Z</time>
      </trkpt>
      <trkpt lat="49.43381" lon="1.2695">
        <ele>150</ele>
        <time>2022-10-25T12:45:14.340Z</time>
      </trkpt>
      <trkpt lat="49.43385" lon="1.26948">
        <ele>150</ele>
        <time>2022-10-25T12:45:19.333Z</time>
      </trkpt>
      <trkpt lat="49.43389" lon="1.26946">
        <ele>150</ele>
        <time>2022-10-25T12:45:24.334Z</time>
      </trkpt>
      <trkpt lat="49.43392" lon="1.26945">
        <ele>150</ele>
        <time>2022-10-25T12:45:29.322Z</time>
      </trkpt>
      <trkpt lat="49.43394" lon="1.26943">
        <ele>150</ele>
        <time>2022-10-25T12:45:33.320Z</time>
      </trkpt>
      <trkpt lat="49.43398" lon="1.26941">
        <ele>150</ele>
        <time>2022-10-25T12:45:37.320Z</time>
      </trkpt>
      <trkpt lat="49.43401" lon="1.26939">
        <ele>150</ele>
        <time>2022-10-25T12:45:42.332Z</time>
      </trkpt>
      <trkpt lat="49.43406" lon="1.26935">
        <ele>150</ele>
        <time>2022-10-25T12:45:47.334Z</time>
      </trkpt>
      <trkpt lat="49.43409" lon="1.26935">
        <ele>150</ele>
        <time>2022-10-25T12:45:52.325Z</time>
      </trkpt>
      <trkpt lat="49.43414" lon="1.26935">
        <ele>150</ele>
        <time>2022-10-25T12:45:57.324Z</time>
      </trkpt>
      <trkpt lat="49.43419" lon="1.26933">
        <ele>150</ele>
        <time>2022-10-25T12:46:02.339Z</time>
      </trkpt>
      <trkpt lat="49.43427" lon="1.26933">
        <ele>150</ele>
        <time>2022-10-25T12:46:07.315Z</time>
      </trkpt>
      <trkpt lat="49.43433" lon="1.26933">
        <ele>150</ele>
        <time>2022-10-25T12:46:11.308Z</time>
      </trkpt>
      <trkpt lat="49.43438" lon="1.26931">
        <ele>150</ele>
        <time>2022-10-25T12:46:16.314Z</time>
      </trkpt>
      <trkpt lat="49.43443" lon="1.2693">
        <ele>150</ele>
        <time>2022-10-25T12:46:20.335Z</time>
      </trkpt>
      <trkpt lat="49.4345" lon="1.26929">
        <ele>150</ele>
        <time>2022-10-25T12:46:25.318Z</time>
      </trkpt>
      <trkpt lat="49.43456" lon="1.26927">
        <ele>150</ele>
        <time>2022-10-25T12:46:30.349Z</time>
      </trkpt>
      <trkpt lat="49.4346" lon="1.26925">
        <ele>150</ele>
        <time>2022-10-25T12:46:35.318Z</time>
      </trkpt>
      <trkpt lat="49.43465" lon="1.26924">
        <ele>150</ele>
        <time>2022-10-25T12:46:40.319Z</time>
      </trkpt>
      <trkpt lat="49.4347" lon="1.26922">
        <ele>150</ele>
        <time>2022-10-25T12:46:44.350Z</time>
      </trkpt>
      <trkpt lat="49.43476" lon="1.26921">
        <ele>150</ele>
        <time>2022-10-25T12:46:49.312Z</time>
      </trkpt>
      <trkpt lat="49.4348" lon="1.26919">
        <ele>150</ele>
        <time>2022-10-25T12:46:53.322Z</time>
      </trkpt>
      <trkpt lat="49.43484" lon="1.26916">
        <ele>150</ele>
        <time>2022-10-25T12:46:58.335Z</time>
      </trkpt>
      <trkpt lat="49.4349" lon="1.26916">
        <ele>152</ele>
        <time>2022-10-25T12:47:03.337Z</time>
      </trkpt>
      <trkpt lat="49.43495" lon="1.26916">
        <ele>152</ele>
        <time>2022-10-25T12:47:08.333Z</time>
      </trkpt>
      <trkpt lat="49.43499" lon="1.26916">
        <ele>152</ele>
        <time>2022-10-25T12:47:12.342Z</time>
      </trkpt>
      <trkpt lat="49.43503" lon="1.26916">
        <ele>152</ele>
        <time>2022-10-25T12:47:17.323Z</time>
      </trkpt>
      <trkpt lat="49.43508" lon="1.26916">
        <ele>152</ele>
        <time>2022-10-25T12:47:21.330Z</time>
      </trkpt>
      <trkpt lat="49.43514" lon="1.26916">
        <ele>153</ele>
        <time>2022-10-25T12:47:26.333Z</time>
      </trkpt>
      <trkpt lat="49.43519" lon="1.26914">
        <ele>153</ele>
        <time>2022-10-25T12:47:30.347Z</time>
      </trkpt>
      <trkpt lat="49.43525" lon="1.26912">
        <ele>153</ele>
        <time>2022-10-25T12:47:35.323Z</time>
      </trkpt>
      <trkpt lat="49.43529" lon="1.26911">
        <ele>153</ele>
        <time>2022-10-25T12:47:40.340Z</time>
      </trkpt>
      <trkpt lat="49.43533" lon="1.2691">
        <ele>153</ele>
        <time>2022-10-25T12:47:45.318Z</time>
      </trkpt>
      <trkpt lat="49.43537" lon="1.26908">
        <ele>153</ele>
        <time>2022-10-25T12:47:50.330Z</time>
      </trkpt>
      <trkpt lat="49.43543" lon="1.26906">
        <ele>153</ele>
        <time>2022-10-25T12:47:55.326Z</time>
      </trkpt>
      <trkpt lat="49.43548" lon="1.26903">
        <ele>153</ele>
        <time>2022-10-25T12:48:00.319Z</time>
      </trkpt>
      <trkpt lat="49.43552" lon="1.26902">
        <ele>153</ele>
        <time>2022-10-25T12:48:05.326Z</time>
      </trkpt>
      <trkpt lat="49.43557" lon="1.26901">
        <ele>153</ele>
        <time>2022-10-25T12:48:10.331Z</time>
      </trkpt>
      <trkpt lat="49.43563" lon="1.26898">
        <ele>153</ele>
        <time>2022-10-25T12:48:15.321Z</time>
      </trkpt>
      <trkpt lat="49.43569" lon="1.26897">
        <ele>153</ele>
        <time>2022-10-25T12:48:19.332Z</time>
      </trkpt>
      <trkpt lat="49.43575" lon="1.26896">
        <ele>153</ele>
        <time>2022-10-25T12:48:24.341Z</time>
      </trkpt>
      <trkpt lat="49.43581" lon="1.26894">
        <ele>153</ele>
        <time>2022-10-25T12:48:29.327Z</time>
      </trkpt>
      <trkpt lat="49.43588" lon="1.26893">
        <ele>153</ele>
        <time>2022-10-25T12:48:34.342Z</time>
      </trkpt>
      <trkpt lat="49.43595" lon="1.26891">
        <ele>153</ele>
        <time>2022-10-25T12:48:39.325Z</time>
      </trkpt>
      <trkpt lat="49.43601" lon="1.26889">
        <ele>154</ele>
        <time>2022-10-25T12:48:43.334Z</time>
      </trkpt>
      <trkpt lat="49.43608" lon="1.26887">
        <ele>154</ele>
        <time>2022-10-25T12:48:48.321Z</time>
      </trkpt>
      <trkpt lat="49.43613" lon="1.26885">
        <ele>154</ele>
        <time>2022-10-25T12:48:52.339Z</time>
      </trkpt>
      <trkpt lat="49.43621" lon="1.26883">
        <ele>154</ele>
        <time>2022-10-25T12:48:57.329Z</time>
      </trkpt>
      <trkpt lat="49.43627" lon="1.26881">
        <ele>153</ele>
        <time>2022-10-25T12:49:02.347Z</time>
      </trkpt>
      <trkpt lat="49.43634" lon="1.2688">
        <ele>153</ele>
        <time>2022-10-25T12:49:07.323Z</time>
      </trkpt>
      <trkpt lat="49.43641" lon="1.26878">
        <ele>153</ele>
        <time>2022-10-25T12:49:12.352Z</time>
      </trkpt>
      <trkpt lat="49.43647" lon="1.26878">
        <ele>153</ele>
        <time>2022-10-25T12:49:17.306Z</time>
      </trkpt>
      <trkpt lat="49.43652" lon="1.26876">
        <ele>153</ele>
        <time>2022-10-25T12:49:21.328Z</time>
      </trkpt>
      <trkpt lat="49.43657" lon="1.26876">
        <ele>154</ele>
        <time>2022-10-25T12:49:26.353Z</time>
      </trkpt>
      <trkpt lat="49.43664" lon="1.26874">
        <ele>154</ele>
        <time>2022-10-25T12:49:31.300Z</time>
      </trkpt>
      <trkpt lat="49.43668" lon="1.26874">
        <ele>154</ele>
        <time>2022-10-25T12:49:35.308Z</time>
      </trkpt>
      <trkpt lat="49.43673" lon="1.26873">
        <ele>154</ele>
        <time>2022-10-25T12:49:39.324Z</time>
      </trkpt>
      <trkpt lat="49.43678" lon="1.26871">
        <ele>154</ele>
        <time>2022-10-25T12:49:43.335Z</time>
      </trkpt>
      <trkpt lat="49.43683" lon="1.26869">
        <ele>154</ele>
        <time>2022-10-25T12:49:48.318Z</time>
      </trkpt>
      <trkpt lat="49.43689" lon="1.26867">
        <ele>154</ele>
        <time>2022-10-25T12:49:53.330Z</time>
      </trkpt>
      <trkpt lat="49.43695" lon="1.26866">
        <ele>154</ele>
        <time>2022-10-25T12:49:58.325Z</time>
      </trkpt>
      <trkpt lat="49.437" lon="1.26865">
        <ele>154</ele>
        <time>2022-10-25T12:50:03.322Z</time>
      </trkpt>
      <trkpt lat="49.43704" lon="1.26863">
        <ele>154</ele>
        <time>2022-10-25T12:50:07.353Z</time>
      </trkpt>
      <trkpt lat="49.4371" lon="1.26863">
        <ele>154</ele>
        <time>2022-10-25T12:50:12.334Z</time>
      </trkpt>
      <trkpt lat="49.43714" lon="1.26863">
        <ele>154</ele>
        <time>2022-10-25T12:50:17.329Z</time>
      </trkpt>
      <trkpt lat="49.43718" lon="1.26862">
        <ele>154</ele>
        <time>2022-10-25T12:50:21.336Z</time>
      </trkpt>
      <trkpt lat="49.43718" lon="1.2686">
        <ele>154</ele>
        <time>2022-10-25T12:50:26.299Z</time>
      </trkpt>
      <trkpt lat="49.43719" lon="1.26861">
        <ele>154</ele>
        <time>2022-10-25T12:50:30.336Z</time>
      </trkpt>
      <trkpt lat="49.43724" lon="1.26858">
        <ele>154</ele>
        <time>2022-10-25T12:50:35.325Z</time>
      </trkpt>
      <trkpt lat="49.43728" lon="1.26857">
        <ele>154</ele>
        <time>2022-10-25T12:50:40.300Z</time>
      </trkpt>
      <trkpt lat="49.43731" lon="1.26856">
        <ele>154</ele>
        <time>2022-10-25T12:50:44.314Z</time>
      </trkpt>
      <trkpt lat="49.43735" lon="1.26856">
        <ele>154</ele>
        <time>2022-10-25T12:50:48.333Z</time>
      </trkpt>
      <trkpt lat="49.43739" lon="1.26855">
        <ele>154</ele>
        <time>2022-10-25T12:50:53.330Z</time>
      </trkpt>
      <trkpt lat="49.43744" lon="1.26853">
        <ele>154</ele>
        <time>2022-10-25T12:50:58.342Z</time>
      </trkpt>
      <trkpt lat="49.43748" lon="1.26853">
        <ele>154</ele>
        <time>2022-10-25T12:51:03.317Z</time>
      </trkpt>
      <trkpt lat="49.43752" lon="1.26852">
        <ele>154</ele>
        <time>2022-10-25T12:51:07.327Z</time>
      </trkpt>
      <trkpt lat="49.43758" lon="1.26852">
        <ele>154</ele>
        <time>2022-10-25T12:51:12.329Z</time>
      </trkpt>
      <trkpt lat="49.43761" lon="1.26851">
        <ele>154</ele>
        <time>2022-10-25T12:51:16.347Z</time>
      </trkpt>
      <trkpt lat="49.43766" lon="1.26849">
        <ele>155</ele>
        <time>2022-10-25T12:51:21.303Z</time>
      </trkpt>
      <trkpt lat="49.4377" lon="1.26849">
        <ele>155</ele>
        <time>2022-10-25T12:51:25.319Z</time>
      </trkpt>
      <trkpt lat="49.43774" lon="1.26848">
        <ele>155</ele>
        <time>2022-10-25T12:51:29.331Z</time>
      </trkpt>
      <trkpt lat="49.43778" lon="1.26845">
        <ele>155</ele>
        <time>2022-10-25T12:51:34.313Z</time>
      </trkpt>
      <trkpt lat="49.43782" lon="1.26843">
        <ele>155</ele>
        <time>2022-10-25T12:51:38.321Z</time>
      </trkpt>
      <trkpt lat="49.43788" lon="1.26842">
        <ele>155</ele>
        <time>2022-10-25T12:51:43.303Z</time>
      </trkpt>
      <trkpt lat="49.43792" lon="1.26841">
        <ele>154</ele>
        <time>2022-10-25T12:51:47.350Z</time>
      </trkpt>
      <trkpt lat="49.43798" lon="1.26839">
        <ele>154</ele>
        <time>2022-10-25T12:51:52.316Z</time>
      </trkpt>
      <trkpt lat="49.43803" lon="1.26837">
        <ele>154</ele>
        <time>2022-10-25T12:51:56.341Z</time>
      </trkpt>
      <trkpt lat="49.43809" lon="1.26835">
        <ele>154</ele>
        <time>2022-10-25T12:52:01.335Z</time>
      </trkpt>
      <trkpt lat="49.43815" lon="1.26834">
        <ele>154</ele>
        <time>2022-10-25T12:52:06.327Z</time>
      </trkpt>
      <trkpt lat="49.4382" lon="1.26833">
        <ele>154</ele>
        <time>2022-10-25T12:52:11.336Z</time>
      </trkpt>
      <trkpt lat="49.43826" lon="1.26831">
        <ele>154</ele>
        <time>2022-10-25T12:52:16.344Z</time>
      </trkpt>
      <trkpt lat="49.43831" lon="1.2683">
        <ele>154</ele>
        <time>2022-10-25T12:52:21.332Z</time>
      </trkpt>
      <trkpt lat="49.43837" lon="1.26828">
        <ele>154</ele>
        <time>2022-10-25T12:52:26.325Z</time>
      </trkpt>
      <trkpt lat="49.43842" lon="1.26828">
        <ele>154</ele>
        <time>2022-10-25T12:52:31.337Z</time>
      </trkpt>
      <trkpt lat="49.43847" lon="1.26826">
        <ele>154</ele>
        <time>2022-10-25T12:52:35.333Z</time>
      </trkpt>
      <trkpt lat="49.43852" lon="1.26824">
        <ele>154</ele>
        <time>2022-10-25T12:52:40.333Z</time>
      </trkpt>
      <trkpt lat="49.43858" lon="1.26822">
        <ele>154</ele>
        <time>2022-10-25T12:52:45.304Z</time>
      </trkpt>
      <trkpt lat="49.43862" lon="1.26822">
        <ele>154</ele>
        <time>2022-10-25T12:52:49.331Z</time>
      </trkpt>
      <trkpt lat="49.43867" lon="1.2682">
        <ele>154</ele>
        <time>2022-10-25T12:52:54.333Z</time>
      </trkpt>
      <trkpt lat="49.4387" lon="1.26818">
        <ele>154</ele>
        <time>2022-10-25T12:52:59.348Z</time>
      </trkpt>
      <trkpt lat="49.43872" lon="1.26815">
        <ele>154</ele>
        <time>2022-10-25T12:53:03.338Z</time>
      </trkpt>
      <trkpt lat="49.43874" lon="1.26812">
        <ele>154</ele>
        <time>2022-10-25T12:54:53.350Z</time>
      </trkpt>
      <trkpt lat="49.43874" lon="1.26812">
        <ele>154</ele>
        <time>2022-10-25T12:54:58.319Z</time>
      </trkpt>
      <trkpt lat="49.43876" lon="1.26812">
        <ele>155</ele>
        <time>2022-10-25T12:55:03.357Z</time>
      </trkpt>
      <trkpt lat="49.43882" lon="1.26813">
        <ele>155</ele>
        <time>2022-10-25T12:55:08.340Z</time>
      </trkpt>
      <trkpt lat="49.43886" lon="1.26812">
        <ele>155</ele>
        <time>2022-10-25T12:55:12.336Z</time>
      </trkpt>
      <trkpt lat="49.43892" lon="1.26811">
        <ele>155</ele>
        <time>2022-10-25T12:55:17.345Z</time>
      </trkpt>
      <trkpt lat="49.43897" lon="1.2681">
        <ele>155</ele>
        <time>2022-10-25T12:55:22.339Z</time>
      </trkpt>
      <trkpt lat="49.43902" lon="1.2681">
        <ele>155</ele>
        <time>2022-10-25T12:55:27.321Z</time>
      </trkpt>
      <trkpt lat="49.43907" lon="1.26809">
        <ele>155</ele>
        <time>2022-10-25T12:55:31.348Z</time>
      </trkpt>
      <trkpt lat="49.43912" lon="1.26808">
        <ele>155</ele>
        <time>2022-10-25T12:55:36.302Z</time>
      </trkpt>
      <trkpt lat="49.43916" lon="1.26807">
        <ele>155</ele>
        <time>2022-10-25T12:55:40.356Z</time>
      </trkpt>
      <trkpt lat="49.43921" lon="1.26806">
        <ele>155</ele>
        <time>2022-10-25T12:55:45.349Z</time>
      </trkpt>
      <trkpt lat="49.43926" lon="1.26805">
        <ele>155</ele>
        <time>2022-10-25T12:55:49.356Z</time>
      </trkpt>
      <trkpt lat="49.43932" lon="1.26803">
        <ele>154</ele>
        <time>2022-10-25T12:55:54.336Z</time>
      </trkpt>
      <trkpt lat="49.43937" lon="1.26801">
        <ele>154</ele>
        <time>2022-10-25T12:55:59.342Z</time>
      </trkpt>
      <trkpt lat="49.43943" lon="1.26801">
        <ele>154</ele>
        <time>2022-10-25T12:56:04.323Z</time>
      </trkpt>
      <trkpt lat="49.43948" lon="1.268">
        <ele>154</ele>
        <time>2022-10-25T12:56:09.339Z</time>
      </trkpt>
      <trkpt lat="49.43953" lon="1.268">
        <ele>154</ele>
        <time>2022-10-25T12:56:13.352Z</time>
      </trkpt>
      <trkpt lat="49.43958" lon="1.26799">
        <ele>154</ele>
        <time>2022-10-25T12:56:18.301Z</time>
      </trkpt>
      <trkpt lat="49.43962" lon="1.26797">
        <ele>155</ele>
        <time>2022-10-25T12:56:22.329Z</time>
      </trkpt>
      <trkpt lat="49.43967" lon="1.26797">
        <ele>155</ele>
        <time>2022-10-25T12:56:26.348Z</time>
      </trkpt>
      <trkpt lat="49.43973" lon="1.26795">
        <ele>155</ele>
        <time>2022-10-25T12:56:31.316Z</time>
      </trkpt>
      <trkpt lat="49.43978" lon="1.26794">
        <ele>155</ele>
        <time>2022-10-25T12:56:36.328Z</time>
      </trkpt>
      <trkpt lat="49.43985" lon="1.26792">
        <ele>155</ele>
        <time>2022-10-25T12:56:41.362Z</time>
      </trkpt>
      <trkpt lat="49.4399" lon="1.26792">
        <ele>156</ele>
        <time>2022-10-25T12:56:46.352Z</time>
      </trkpt>
      <trkpt lat="49.43995" lon="1.26791">
        <ele>156</ele>
        <time>2022-10-25T12:56:51.342Z</time>
      </trkpt>
      <trkpt lat="49.44" lon="1.2679">
        <ele>156</ele>
        <time>2022-10-25T12:56:56.330Z</time>
      </trkpt>
      <trkpt lat="49.44004" lon="1.26787">
        <ele>156</ele>
        <time>2022-10-25T12:57:01.345Z</time>
      </trkpt>
      <trkpt lat="49.44008" lon="1.26786">
        <ele>156</ele>
        <time>2022-10-25T12:57:05.341Z</time>
      </trkpt>
      <trkpt lat="49.44013" lon="1.26786">
        <ele>156</ele>
        <time>2022-10-25T12:57:10.339Z</time>
      </trkpt>
      <trkpt lat="49.44019" lon="1.26785">
        <ele>156</ele>
        <time>2022-10-25T12:57:14.338Z</time>
      </trkpt>
      <trkpt lat="49.44024" lon="1.26781">
        <ele>156</ele>
        <time>2022-10-25T12:57:19.349Z</time>
      </trkpt>
      <trkpt lat="49.44026" lon="1.26776">
        <ele>156</ele>
        <time>2022-10-25T12:57:23.339Z</time>
      </trkpt>
      <trkpt lat="49.4403" lon="1.26768">
        <ele>156</ele>
        <time>2022-10-25T12:57:28.320Z</time>
      </trkpt>
      <trkpt lat="49.44033" lon="1.26762">
        <ele>156</ele>
        <time>2022-10-25T12:57:32.343Z</time>
      </trkpt>
      <trkpt lat="49.44036" lon="1.26755">
        <ele>156</ele>
        <time>2022-10-25T12:57:37.352Z</time>
      </trkpt>
      <trkpt lat="49.44039" lon="1.26747">
        <ele>156</ele>
        <time>2022-10-25T12:57:42.339Z</time>
      </trkpt>
      <trkpt lat="49.44041" lon="1.26742">
        <ele>156</ele>
        <time>2022-10-25T12:57:46.351Z</time>
      </trkpt>
      <trkpt lat="49.44044" lon="1.26734">
        <ele>155</ele>
        <time>2022-10-25T12:57:51.349Z</time>
      </trkpt>
      <trkpt lat="49.44046" lon="1.26725">
        <ele>155</ele>
        <time>2022-10-25T12:57:56.329Z</time>
      </trkpt>
      <trkpt lat="49.44049" lon="1.26719">
        <ele>155</ele>
        <time>2022-10-25T12:58:00.345Z</time>
      </trkpt>
      <trkpt lat="49.44051" lon="1.26711">
        <ele>155</ele>
        <time>2022-10-25T12:58:05.339Z</time>
      </trkpt>
      <trkpt lat="49.44054" lon="1.26702">
        <ele>155</ele>
        <time>2022-10-25T12:58:10.318Z</time>
      </trkpt>
      <trkpt lat="49.44056" lon="1.26694">
        <ele>155</ele>
        <time>2022-10-25T12:58:15.358Z</time>
      </trkpt>
      <trkpt lat="49.44058" lon="1.26686">
        <ele>155</ele>
        <time>2022-10-25T12:58:20.326Z</time>
      </trkpt>
      <trkpt lat="49.44061" lon="1.26678">
        <ele>154</ele>
        <time>2022-10-25T12:58:25.361Z</time>
      </trkpt>
      <trkpt lat="49.44065" lon="1.26673">
        <ele>154</ele>
        <time>2022-10-25T12:58:30.325Z</time>
      </trkpt>
      <trkpt lat="49.4407" lon="1.26666">
        <ele>155</ele>
        <time>2022-10-25T12:58:35.310Z</time>
      </trkpt>
      <trkpt lat="49.44076" lon="1.26662">
        <ele>155</ele>
        <time>2022-10-25T12:58:40.308Z</time>
      </trkpt>
      <trkpt lat="49.44079" lon="1.26661">
        <ele>155</ele>
        <time>2022-10-25T12:58:44.332Z</time>
      </trkpt>
      <trkpt lat="49.44084" lon="1.26659">
        <ele>155</ele>
        <time>2022-10-25T12:58:49.330Z</time>
      </trkpt>
      <trkpt lat="49.44088" lon="1.26657">
        <ele>155</ele>
        <time>2022-10-25T12:58:54.301Z</time>
      </trkpt>
      <trkpt lat="49.44092" lon="1.26653">
        <ele>155</ele>
        <time>2022-10-25T12:58:58.336Z</time>
      </trkpt>
      <trkpt lat="49.44097" lon="1.26652">
        <ele>155</ele>
        <time>2022-10-25T12:59:03.340Z</time>
      </trkpt>
      <trkpt lat="49.44102" lon="1.2665">
        <ele>155</ele>
        <time>2022-10-25T12:59:08.300Z</time>
      </trkpt>
      <trkpt lat="49.44106" lon="1.26648">
        <ele>155</ele>
        <time>2022-10-25T12:59:12.330Z</time>
      </trkpt>
      <trkpt lat="49.4411" lon="1.26647">
        <ele>155</ele>
        <time>2022-10-25T12:59:16.357Z</time>
      </trkpt>
      <trkpt lat="49.4412" lon="1.26644">
        <ele>155</ele>
        <time>2022-10-25T12:59:35.339Z</time>
      </trkpt>
      <trkpt lat="49.44123" lon="1.26642">
        <ele>155</ele>
        <time>2022-10-25T12:59:40.325Z</time>
      </trkpt>
      <trkpt lat="49.44128" lon="1.2664">
        <ele>155</ele>
        <time>2022-10-25T12:59:45.329Z</time>
      </trkpt>
      <trkpt lat="49.44132" lon="1.26639">
        <ele>155</ele>
        <time>2022-10-25T12:59:49.339Z</time>
      </trkpt>
      <trkpt lat="49.44137" lon="1.26636">
        <ele>155</ele>
        <time>2022-10-25T12:59:54.327Z</time>
      </trkpt>
      <trkpt lat="49.4414" lon="1.26635">
        <ele>155</ele>
        <time>2022-10-25T12:59:59.332Z</time>
      </trkpt>
      <trkpt lat="49.44143" lon="1.26634">
        <ele>155</ele>
        <time>2022-10-25T13:00:04.320Z</time>
      </trkpt>
      <trkpt lat="49.44145" lon="1.26632">
        <ele>155</ele>
        <time>2022-10-25T13:00:09.330Z</time>
      </trkpt>
      <trkpt lat="49.44149" lon="1.26629">
        <ele>155</ele>
        <time>2022-10-25T13:00:14.324Z</time>
      </trkpt>
      <trkpt lat="49.44154" lon="1.26626">
        <ele>154</ele>
        <time>2022-10-25T13:00:19.324Z</time>
      </trkpt>
      <trkpt lat="49.44158" lon="1.26626">
        <ele>154</ele>
        <time>2022-10-25T13:00:24.336Z</time>
      </trkpt>
      <trkpt lat="49.44162" lon="1.26629">
        <ele>154</ele>
        <time>2022-10-25T13:00:29.304Z</time>
      </trkpt>
      <trkpt lat="49.44166" lon="1.26627">
        <ele>154</ele>
        <time>2022-10-25T13:00:33.330Z</time>
      </trkpt>
      <trkpt lat="49.44172" lon="1.26624">
        <ele>154</ele>
        <time>2022-10-25T13:00:38.321Z</time>
      </trkpt>
      <trkpt lat="49.44176" lon="1.26623">
        <ele>154</ele>
        <time>2022-10-25T13:00:42.337Z</time>
      </trkpt>
      <trkpt lat="49.44182" lon="1.26621">
        <ele>154</ele>
        <time>2022-10-25T13:00:47.331Z</time>
      </trkpt>
      <trkpt lat="49.44186" lon="1.26619">
        <ele>154</ele>
        <time>2022-10-25T13:00:52.347Z</time>
      </trkpt>
      <trkpt lat="49.44191" lon="1.26618">
        <ele>154</ele>
        <time>2022-10-25T13:00:57.327Z</time>
      </trkpt>
      <trkpt lat="49.44196" lon="1.26617">
        <ele>154</ele>
        <time>2022-10-25T13:01:01.333Z</time>
      </trkpt>
      <trkpt lat="49.44203" lon="1.26615">
        <ele>154</ele>
        <time>2022-10-25T13:01:06.342Z</time>
      </trkpt>
      <trkpt lat="49.4421" lon="1.26614">
        <ele>153</ele>
        <time>2022-10-25T13:01:11.306Z</time>
      </trkpt>
      <trkpt lat="49.44214" lon="1.26614">
        <ele>153</ele>
        <time>2022-10-25T13:01:15.328Z</time>
      </trkpt>
      <trkpt lat="49.4422" lon="1.26613">
        <ele>153</ele>
        <time>2022-10-25T13:01:20.311Z</time>
      </trkpt>
      <trkpt lat="49.44226" lon="1.26611">
        <ele>153</ele>
        <time>2022-10-25T13:01:25.349Z</time>
      </trkpt>
      <trkpt lat="49.44232" lon="1.26606">
        <ele>153</ele>
        <time>2022-10-25T13:01:30.324Z</time>
      </trkpt>
      <trkpt lat="49.44238" lon="1.26604">
        <ele>152</ele>
        <time>2022-10-25T13:01:35.329Z</time>
      </trkpt>
      <trkpt lat="49.44244" lon="1.26602">
        <ele>152</ele>
        <time>2022-10-25T13:01:40.321Z</time>
      </trkpt>
      <trkpt lat="49.4425" lon="1.266">
        <ele>152</ele>
        <time>2022-10-25T13:01:45.332Z</time>
      </trkpt>
      <trkpt lat="49.44255" lon="1.26598">
        <ele>152</ele>
        <time>2022-10-25T13:01:49.330Z</time>
      </trkpt>
      <trkpt lat="49.44261" lon="1.26597">
        <ele>152</ele>
        <time>2022-10-25T13:01:54.322Z</time>
      </trkpt>
      <trkpt lat="49.44267" lon="1.26595">
        <ele>150</ele>
        <time>2022-10-25T13:01:58.355Z</time>
      </trkpt>
      <trkpt lat="49.44273" lon="1.26592">
        <ele>150</ele>
        <time>2022-10-25T13:02:03.336Z</time>
      </trkpt>
      <trkpt lat="49.44278" lon="1.2659">
        <ele>150</ele>
        <time>2022-10-25T13:02:08.339Z</time>
      </trkpt>
      <trkpt lat="49.44283" lon="1.26588">
        <ele>150</ele>
        <time>2022-10-25T13:02:13.328Z</time>
      </trkpt>
      <trkpt lat="49.44287" lon="1.26585">
        <ele>150</ele>
        <time>2022-10-25T13:02:17.330Z</time>
      </trkpt>
      <trkpt lat="49.44291" lon="1.26583">
        <ele>150</ele>
        <time>2022-10-25T13:02:22.324Z</time>
      </trkpt>
      <trkpt lat="49.44295" lon="1.26582">
        <ele>149</ele>
        <time>2022-10-25T13:02:26.325Z</time>
      </trkpt>
      <trkpt lat="49.443" lon="1.2658">
        <ele>149</ele>
        <time>2022-10-25T13:02:31.335Z</time>
      </trkpt>
      <trkpt lat="49.44303" lon="1.26578">
        <ele>149</ele>
        <time>2022-10-25T13:02:35.350Z</time>
      </trkpt>
      <trkpt lat="49.44307" lon="1.26577">
        <ele>149</ele>
        <time>2022-10-25T13:02:40.335Z</time>
      </trkpt>
      <trkpt lat="49.44312" lon="1.26577">
        <ele>149</ele>
        <time>2022-10-25T13:02:45.357Z</time>
      </trkpt>
      <trkpt lat="49.44316" lon="1.26575">
        <ele>149</ele>
        <time>2022-10-25T13:02:50.327Z</time>
      </trkpt>
      <trkpt lat="49.44321" lon="1.26573">
        <ele>147</ele>
        <time>2022-10-25T13:02:55.329Z</time>
      </trkpt>
      <trkpt lat="49.44329" lon="1.26573">
        <ele>147</ele>
        <time>2022-10-25T13:03:00.322Z</time>
      </trkpt>
      <trkpt lat="49.44331" lon="1.26573">
        <ele>147</ele>
        <time>2022-10-25T13:03:04.326Z</time>
      </trkpt>
      <trkpt lat="49.44335" lon="1.26571">
        <ele>147</ele>
        <time>2022-10-25T13:03:09.331Z</time>
      </trkpt>
      <trkpt lat="49.44342" lon="1.2657">
        <ele>147</ele>
        <time>2022-10-25T13:03:14.322Z</time>
      </trkpt>
      <trkpt lat="49.44349" lon="1.26569">
        <ele>147</ele>
        <time>2022-10-25T13:03:19.350Z</time>
      </trkpt>
      <trkpt lat="49.44355" lon="1.26567">
        <ele>147</ele>
        <time>2022-10-25T13:03:24.316Z</time>
      </trkpt>
      <trkpt lat="49.44361" lon="1.26565">
        <ele>147</ele>
        <time>2022-10-25T13:03:28.347Z</time>
      </trkpt>
      <trkpt lat="49.44367" lon="1.26563">
        <ele>147</ele>
        <time>2022-10-25T13:03:33.346Z</time>
      </trkpt>
      <trkpt lat="49.44373" lon="1.26563">
        <ele>147</ele>
        <time>2022-10-25T13:03:38.342Z</time>
      </trkpt>
      <trkpt lat="49.44377" lon="1.26563">
        <ele>147</ele>
        <time>2022-10-25T13:03:43.354Z</time>
      </trkpt>
      <trkpt lat="49.44382" lon="1.26563">
        <ele>147</ele>
        <time>2022-10-25T13:03:48.355Z</time>
      </trkpt>
      <trkpt lat="49.44388" lon="1.26562">
        <ele>147</ele>
        <time>2022-10-25T13:03:53.328Z</time>
      </trkpt>
      <trkpt lat="49.44394" lon="1.26561">
        <ele>147</ele>
        <time>2022-10-25T13:03:57.345Z</time>
      </trkpt>
      <trkpt lat="49.44399" lon="1.2656">
        <ele>147</ele>
        <time>2022-10-25T13:04:02.339Z</time>
      </trkpt>
      <trkpt lat="49.44405" lon="1.26559">
        <ele>148</ele>
        <time>2022-10-25T13:04:07.332Z</time>
      </trkpt>
      <trkpt lat="49.4441" lon="1.26558">
        <ele>148</ele>
        <time>2022-10-25T13:04:11.344Z</time>
      </trkpt>
      <trkpt lat="49.44417" lon="1.26557">
        <ele>148</ele>
        <time>2022-10-25T13:04:16.349Z</time>
      </trkpt>
      <trkpt lat="49.44422" lon="1.26557">
        <ele>148</ele>
        <time>2022-10-25T13:04:21.356Z</time>
      </trkpt>
      <trkpt lat="49.44428" lon="1.26557">
        <ele>148</ele>
        <time>2022-10-25T13:04:26.320Z</time>
      </trkpt>
      <trkpt lat="49.44433" lon="1.26557">
        <ele>149</ele>
        <time>2022-10-25T13:04:30.335Z</time>
      </trkpt>
      <trkpt lat="49.44439" lon="1.26556">
        <ele>149</ele>
        <time>2022-10-25T13:04:35.340Z</time>
      </trkpt>
      <trkpt lat="49.44443" lon="1.26555">
        <ele>149</ele>
        <time>2022-10-25T13:04:39.343Z</time>
      </trkpt>
      <trkpt lat="49.44446" lon="1.26555">
        <ele>149</ele>
        <time>2022-10-25T13:04:44.316Z</time>
      </trkpt>
      <trkpt lat="49.44449" lon="1.26555">
        <ele>149</ele>
        <time>2022-10-25T13:04:48.324Z</time>
      </trkpt>
      <trkpt lat="49.44454" lon="1.26556">
        <ele>149</ele>
        <time>2022-10-25T13:04:53.353Z</time>
      </trkpt>
      <trkpt lat="49.44458" lon="1.26557">
        <ele>151</ele>
        <time>2022-10-25T13:04:58.320Z</time>
      </trkpt>
      <trkpt lat="49.44463" lon="1.26557">
        <ele>151</ele>
        <time>2022-10-25T13:05:02.333Z</time>
      </trkpt>
      <trkpt lat="49.44467" lon="1.26558">
        <ele>151</ele>
        <time>2022-10-25T13:05:07.339Z</time>
      </trkpt>
      <trkpt lat="49.44469" lon="1.26559">
        <ele>151</ele>
        <time>2022-10-25T13:05:11.360Z</time>
      </trkpt>
      <trkpt lat="49.4447" lon="1.26559">
        <ele>151</ele>
        <time>2022-10-25T13:05:16.348Z</time>
      </trkpt>
      <trkpt lat="49.44474" lon="1.2656">
        <ele>151</ele>
        <time>2022-10-25T13:05:21.327Z</time>
      </trkpt>
      <trkpt lat="49.44479" lon="1.26561">
        <ele>151</ele>
        <time>2022-10-25T13:05:40.331Z</time>
      </trkpt>
      <trkpt lat="49.4448" lon="1.2656">
        <ele>151</ele>
        <time>2022-10-25T13:05:45.338Z</time>
      </trkpt>
      <trkpt lat="49.44481" lon="1.26561">
        <ele>151</ele>
        <time>2022-10-25T13:05:50.298Z</time>
      </trkpt>
      <trkpt lat="49.44483" lon="1.26564">
        <ele>151</ele>
        <time>2022-10-25T13:05:54.304Z</time>
      </trkpt>
      <trkpt lat="49.44486" lon="1.26564">
        <ele>151</ele>
        <time>2022-10-25T13:05:58.348Z</time>
      </trkpt>
      <trkpt lat="49.44489" lon="1.26564">
        <ele>152</ele>
        <time>2022-10-25T13:06:03.305Z</time>
      </trkpt>
      <trkpt lat="49.44493" lon="1.26563">
        <ele>152</ele>
        <time>2022-10-25T13:06:07.340Z</time>
      </trkpt>
      <trkpt lat="49.44499" lon="1.26564">
        <ele>152</ele>
        <time>2022-10-25T13:06:12.335Z</time>
      </trkpt>
      <trkpt lat="49.44503" lon="1.26564">
        <ele>152</ele>
        <time>2022-10-25T13:06:16.335Z</time>
      </trkpt>
      <trkpt lat="49.4451" lon="1.26564">
        <ele>152</ele>
        <time>2022-10-25T13:06:21.350Z</time>
      </trkpt>
      <trkpt lat="49.44514" lon="1.26566">
        <ele>151</ele>
        <time>2022-10-25T13:06:26.331Z</time>
      </trkpt>
      <trkpt lat="49.44518" lon="1.26567">
        <ele>151</ele>
        <time>2022-10-25T13:06:31.344Z</time>
      </trkpt>
      <trkpt lat="49.44522" lon="1.2657">
        <ele>152</ele>
        <time>2022-10-25T13:06:36.321Z</time>
      </trkpt>
      <trkpt lat="49.44527" lon="1.26572">
        <ele>152</ele>
        <time>2022-10-25T13:06:41.315Z</time>
      </trkpt>
      <trkpt lat="49.44533" lon="1.26573">
        <ele>152</ele>
        <time>2022-10-25T13:06:46.336Z</time>
      </trkpt>
      <trkpt lat="49.44539" lon="1.26575">
        <ele>152</ele>
        <time>2022-10-25T13:06:51.310Z</time>
      </trkpt>
      <trkpt lat="49.44544" lon="1.26577">
        <ele>150</ele>
        <time>2022-10-25T13:06:55.332Z</time>
      </trkpt>
      <trkpt lat="49.44549" lon="1.2658">
        <ele>150</ele>
        <time>2022-10-25T13:06:59.343Z</time>
      </trkpt>
      <trkpt lat="49.44554" lon="1.26582">
        <ele>150</ele>
        <time>2022-10-25T13:07:04.313Z</time>
      </trkpt>
      <trkpt lat="49.44559" lon="1.26584">
        <ele>150</ele>
        <time>2022-10-25T13:07:08.332Z</time>
      </trkpt>
      <trkpt lat="49.44565" lon="1.26588">
        <ele>150</ele>
        <time>2022-10-25T13:07:13.338Z</time>
      </trkpt>
      <trkpt lat="49.44571" lon="1.2659">
        <ele>149</ele>
        <time>2022-10-25T13:07:18.341Z</time>
      </trkpt>
      <trkpt lat="49.44576" lon="1.26594">
        <ele>149</ele>
        <time>2022-10-25T13:07:23.341Z</time>
      </trkpt>
      <trkpt lat="49.44581" lon="1.26597">
        <ele>149</ele>
        <time>2022-10-25T13:07:28.340Z</time>
      </trkpt>
      <trkpt lat="49.44586" lon="1.266">
        <ele>149</ele>
        <time>2022-10-25T13:07:33.363Z</time>
      </trkpt>
      <trkpt lat="49.44592" lon="1.26602">
        <ele>149</ele>
        <time>2022-10-25T13:07:38.325Z</time>
      </trkpt>
      <trkpt lat="49.44597" lon="1.26604">
        <ele>149</ele>
        <time>2022-10-25T13:07:42.361Z</time>
      </trkpt>
      <trkpt lat="49.44601" lon="1.26606">
        <ele>149</ele>
        <time>2022-10-25T13:07:46.342Z</time>
      </trkpt>
      <trkpt lat="49.44608" lon="1.26608">
        <ele>149</ele>
        <time>2022-10-25T13:07:51.346Z</time>
      </trkpt>
      <trkpt lat="49.44613" lon="1.2661">
        <ele>149</ele>
        <time>2022-10-25T13:07:56.351Z</time>
      </trkpt>
      <trkpt lat="49.44619" lon="1.26612">
        <ele>149</ele>
        <time>2022-10-25T13:08:01.355Z</time>
      </trkpt>
      <trkpt lat="49.44624" lon="1.26613">
        <ele>149</ele>
        <time>2022-10-25T13:08:06.358Z</time>
      </trkpt>
      <trkpt lat="49.44628" lon="1.26615">
        <ele>150</ele>
        <time>2022-10-25T13:08:10.352Z</time>
      </trkpt>
      <trkpt lat="49.44634" lon="1.26613">
        <ele>150</ele>
        <time>2022-10-25T13:08:15.343Z</time>
      </trkpt>
      <trkpt lat="49.44639" lon="1.26613">
        <ele>150</ele>
        <time>2022-10-25T13:08:20.348Z</time>
      </trkpt>
      <trkpt lat="49.44643" lon="1.26613">
        <ele>150</ele>
        <time>2022-10-25T13:08:24.317Z</time>
      </trkpt>
      <trkpt lat="49.44648" lon="1.26614">
        <ele>150</ele>
        <time>2022-10-25T13:08:29.307Z</time>
      </trkpt>
      <trkpt lat="49.44652" lon="1.26615">
        <ele>150</ele>
        <time>2022-10-25T13:08:33.350Z</time>
      </trkpt>
      <trkpt lat="49.44656" lon="1.26615">
        <ele>150</ele>
        <time>2022-10-25T13:08:38.330Z</time>
      </trkpt>
      <trkpt lat="49.4466" lon="1.26616">
        <ele>150</ele>
        <time>2022-10-25T13:08:42.340Z</time>
      </trkpt>
      <trkpt lat="49.44666" lon="1.26616">
        <ele>150</ele>
        <time>2022-10-25T13:08:47.333Z</time>
      </trkpt>
      <trkpt lat="49.44672" lon="1.26617">
        <ele>150</ele>
        <time>2022-10-25T13:08:52.345Z</time>
      </trkpt>
      <trkpt lat="49.44678" lon="1.26617">
        <ele>150</ele>
        <time>2022-10-25T13:08:57.335Z</time>
      </trkpt>
      <trkpt lat="49.44683" lon="1.26617">
        <ele>150</ele>
        <time>2022-10-25T13:09:01.341Z</time>
      </trkpt>
      <trkpt lat="49.44689" lon="1.26618">
        <ele>150</ele>
        <time>2022-10-25T13:09:06.341Z</time>
      </trkpt>
      <trkpt lat="49.44695" lon="1.26619">
        <ele>150</ele>
        <time>2022-10-25T13:09:11.327Z</time>
      </trkpt>
      <trkpt lat="49.44701" lon="1.2662">
        <ele>150</ele>
        <time>2022-10-25T13:09:16.331Z</time>
      </trkpt>
      <trkpt lat="49.44705" lon="1.26621">
        <ele>150</ele>
        <time>2022-10-25T13:09:20.351Z</time>
      </trkpt>
      <trkpt lat="49.44711" lon="1.26621">
        <ele>151</ele>
        <time>2022-10-25T13:09:25.329Z</time>
      </trkpt>
      <trkpt lat="49.44718" lon="1.26621">
        <ele>151</ele>
        <time>2022-10-25T13:09:30.329Z</time>
      </trkpt>
      <trkpt lat="49.44723" lon="1.26623">
        <ele>151</ele>
        <time>2022-10-25T13:09:35.359Z</time>
      </trkpt>
      <trkpt lat="49.44728" lon="1.26625">
        <ele>151</ele>
        <time>2022-10-25T13:09:40.348Z</time>
      </trkpt>
      <trkpt lat="49.44733" lon="1.26626">
        <ele>151</ele>
        <time>2022-10-25T13:09:45.333Z</time>
      </trkpt>
      <trkpt lat="49.44737" lon="1.26628">
        <ele>152</ele>
        <time>2022-10-25T13:09:49.349Z</time>
      </trkpt>
      <trkpt lat="49.44742" lon="1.26629">
        <ele>152</ele>
        <time>2022-10-25T13:09:54.322Z</time>
      </trkpt>
      <trkpt lat="49.44747" lon="1.26631">
        <ele>152</ele>
        <time>2022-10-25T13:09:58.346Z</time>
      </trkpt>
      <trkpt lat="49.44752" lon="1.26632">
        <ele>152</ele>
        <time>2022-10-25T13:10:02.339Z</time>
      </trkpt>
      <trkpt lat="49.44757" lon="1.26635">
        <ele>152</ele>
        <time>2022-10-25T13:10:07.331Z</time>
      </trkpt>
      <trkpt lat="49.44762" lon="1.26637">
        <ele>152</ele>
        <time>2022-10-25T13:10:11.358Z</time>
      </trkpt>
      <trkpt lat="49.44766" lon="1.26639">
        <ele>153</ele>
        <time>2022-10-25T13:10:15.360Z</time>
      </trkpt>
      <trkpt lat="49.44772" lon="1.26642">
        <ele>153</ele>
        <time>2022-10-25T13:10:20.347Z</time>
      </trkpt>
      <trkpt lat="49.44779" lon="1.26643">
        <ele>153</ele>
        <time>2022-10-25T13:10:25.334Z</time>
      </trkpt>
      <trkpt lat="49.44785" lon="1.26644">
        <ele>153</ele>
        <time>2022-10-25T13:10:30.348Z</time>
      </trkpt>
      <trkpt lat="49.4479" lon="1.26648">
        <ele>153</ele>
        <time>2022-10-25T13:10:35.359Z</time>
      </trkpt>
      <trkpt lat="49.44796" lon="1.26652">
        <ele>152</ele>
        <time>2022-10-25T13:10:40.347Z</time>
      </trkpt>
      <trkpt lat="49.44801" lon="1.26654">
        <ele>152</ele>
        <time>2022-10-25T13:10:45.352Z</time>
      </trkpt>
      <trkpt lat="49.44807" lon="1.26656">
        <ele>152</ele>
        <time>2022-10-25T13:10:50.341Z</time>
      </trkpt>
      <trkpt lat="49.44812" lon="1.26657">
        <ele>152</ele>
        <time>2022-10-25T13:10:55.331Z</time>
      </trkpt>
      <trkpt lat="49.44817" lon="1.26657">
        <ele>152</ele>
        <time>2022-10-25T13:11:00.340Z</time>
      </trkpt>
      <trkpt lat="49.44823" lon="1.26656">
        <ele>152</ele>
        <time>2022-10-25T13:11:05.345Z</time>
      </trkpt>
      <trkpt lat="49.44827" lon="1.26654">
        <ele>152</ele>
        <time>2022-10-25T13:11:09.350Z</time>
      </trkpt>
      <trkpt lat="49.44834" lon="1.26653">
        <ele>152</ele>
        <time>2022-10-25T13:11:14.313Z</time>
      </trkpt>
      <trkpt lat="49.4484" lon="1.2665">
        <ele>152</ele>
        <time>2022-10-25T13:11:19.315Z</time>
      </trkpt>
      <trkpt lat="49.44843" lon="1.2665">
        <ele>152</ele>
        <time>2022-10-25T13:11:23.337Z</time>
      </trkpt>
      <trkpt lat="49.44848" lon="1.26651">
        <ele>153</ele>
        <time>2022-10-25T13:11:28.322Z</time>
      </trkpt>
      <trkpt lat="49.44852" lon="1.26651">
        <ele>153</ele>
        <time>2022-10-25T13:11:32.334Z</time>
      </trkpt>
      <trkpt lat="49.44856" lon="1.2665">
        <ele>153</ele>
        <time>2022-10-25T13:11:36.352Z</time>
      </trkpt>
      <trkpt lat="49.44861" lon="1.26649">
        <ele>153</ele>
        <time>2022-10-25T13:11:41.338Z</time>
      </trkpt>
      <trkpt lat="49.44866" lon="1.26649">
        <ele>153</ele>
        <time>2022-10-25T13:11:46.326Z</time>
      </trkpt>
      <trkpt lat="49.44873" lon="1.26649">
        <ele>153</ele>
        <time>2022-10-25T13:11:51.360Z</time>
      </trkpt>
      <trkpt lat="49.44879" lon="1.26648">
        <ele>154</ele>
        <time>2022-10-25T13:11:56.304Z</time>
      </trkpt>
      <trkpt lat="49.44884" lon="1.26648">
        <ele>154</ele>
        <time>2022-10-25T13:12:00.342Z</time>
      </trkpt>
      <trkpt lat="49.44891" lon="1.26646">
        <ele>154</ele>
        <time>2022-10-25T13:12:05.322Z</time>
      </trkpt>
      <trkpt lat="49.44898" lon="1.26644">
        <ele>154</ele>
        <time>2022-10-25T13:12:10.305Z</time>
      </trkpt>
      <trkpt lat="49.44904" lon="1.26642">
        <ele>153</ele>
        <time>2022-10-25T13:12:14.326Z</time>
      </trkpt>
      <trkpt lat="49.44909" lon="1.26642">
        <ele>153</ele>
        <time>2022-10-25T13:12:18.330Z</time>
      </trkpt>
      <trkpt lat="49.44914" lon="1.26642">
        <ele>153</ele>
        <time>2022-10-25T13:12:23.306Z</time>
      </trkpt>
      <trkpt lat="49.44918" lon="1.26641">
        <ele>153</ele>
        <time>2022-10-25T13:12:27.340Z</time>
      </trkpt>
      <trkpt lat="49.44923" lon="1.26639">
        <ele>153</ele>
        <time>2022-10-25T13:12:32.332Z</time>
      </trkpt>
      <trkpt lat="49.44928" lon="1.26638">
        <ele>153</ele>
        <time>2022-10-25T13:12:36.334Z</time>
      </trkpt>
      <trkpt lat="49.44933" lon="1.26636">
        <ele>153</ele>
        <time>2022-10-25T13:12:41.335Z</time>
      </trkpt>
      <trkpt lat="49.44938" lon="1.26635">
        <ele>153</ele>
        <time>2022-10-25T13:12:46.337Z</time>
      </trkpt>
      <trkpt lat="49.44945" lon="1.26635">
        <ele>153</ele>
        <time>2022-10-25T13:12:51.340Z</time>
      </trkpt>
      <trkpt lat="49.44949" lon="1.26634">
        <ele>153</ele>
        <time>2022-10-25T13:12:56.326Z</time>
      </trkpt>
      <trkpt lat="49.44954" lon="1.26633">
        <ele>153</ele>
        <time>2022-10-25T13:13:01.346Z</time>
      </trkpt>
      <trkpt lat="49.44959" lon="1.26633">
        <ele>153</ele>
        <time>2022-10-25T13:13:06.326Z</time>
      </trkpt>
      <trkpt lat="49.44963" lon="1.26632">
        <ele>153</ele>
        <time>2022-10-25T13:13:10.343Z</time>
      </trkpt>
      <trkpt lat="49.44967" lon="1.26633">
        <ele>153</ele>
        <time>2022-10-25T13:13:14.474Z</time>
      </trkpt>
      <trkpt lat="49.44973" lon="1.26632">
        <ele>153</ele>
        <time>2022-10-25T13:13:19.327Z</time>
      </trkpt>
      <trkpt lat="49.44979" lon="1.26631">
        <ele>153</ele>
        <time>2022-10-25T13:13:24.305Z</time>
      </trkpt>
      <trkpt lat="49.44984" lon="1.26629">
        <ele>153</ele>
        <time>2022-10-25T13:13:28.314Z</time>
      </trkpt>
      <trkpt lat="49.44988" lon="1.26627">
        <ele>153</ele>
        <time>2022-10-25T13:13:32.345Z</time>
      </trkpt>
      <trkpt lat="49.44994" lon="1.2663">
        <ele>153</ele>
        <time>2022-10-25T13:13:37.303Z</time>
      </trkpt>
      <trkpt lat="49.44998" lon="1.26629">
        <ele>153</ele>
        <time>2022-10-25T13:13:41.327Z</time>
      </trkpt>
      <trkpt lat="49.45002" lon="1.26629">
        <ele>153</ele>
        <time>2022-10-25T13:13:45.346Z</time>
      </trkpt>
      <trkpt lat="49.45007" lon="1.2663">
        <ele>153</ele>
        <time>2022-10-25T13:13:49.338Z</time>
      </trkpt>
      <trkpt lat="49.45012" lon="1.26629">
        <ele>153</ele>
        <time>2022-10-25T13:13:54.321Z</time>
      </trkpt>
      <trkpt lat="49.45017" lon="1.26627">
        <ele>153</ele>
        <time>2022-10-25T13:13:58.332Z</time>
      </trkpt>
      <trkpt lat="49.45023" lon="1.26626">
        <ele>153</ele>
        <time>2022-10-25T13:14:02.342Z</time>
      </trkpt>
      <trkpt lat="49.45029" lon="1.26626">
        <ele>153</ele>
        <time>2022-10-25T13:14:07.344Z</time>
      </trkpt>
      <trkpt lat="49.45034" lon="1.26626">
        <ele>153</ele>
        <time>2022-10-25T13:14:11.338Z</time>
      </trkpt>
      <trkpt lat="49.45038" lon="1.26626">
        <ele>153</ele>
        <time>2022-10-25T13:14:16.344Z</time>
      </trkpt>
      <trkpt lat="49.45043" lon="1.26626">
        <ele>153</ele>
        <time>2022-10-25T13:14:21.357Z</time>
      </trkpt>
      <trkpt lat="49.45049" lon="1.26626">
        <ele>153</ele>
        <time>2022-10-25T13:14:26.318Z</time>
      </trkpt>
      <trkpt lat="49.45054" lon="1.26626">
        <ele>153</ele>
        <time>2022-10-25T13:14:31.303Z</time>
      </trkpt>
      <trkpt lat="49.45057" lon="1.26626">
        <ele>153</ele>
        <time>2022-10-25T13:14:35.337Z</time>
      </trkpt>
      <trkpt lat="49.45062" lon="1.26626">
        <ele>153</ele>
        <time>2022-10-25T13:14:40.321Z</time>
      </trkpt>
      <trkpt lat="49.45068" lon="1.26625">
        <ele>153</ele>
        <time>2022-10-25T13:14:45.326Z</time>
      </trkpt>
      <trkpt lat="49.45074" lon="1.26625">
        <ele>155</ele>
        <time>2022-10-25T13:14:50.347Z</time>
      </trkpt>
      <trkpt lat="49.45082" lon="1.26622">
        <ele>155</ele>
        <time>2022-10-25T13:14:55.338Z</time>
      </trkpt>
      <trkpt lat="49.45087" lon="1.26621">
        <ele>155</ele>
        <time>2022-10-25T13:15:00.312Z</time>
      </trkpt>
      <trkpt lat="49.45092" lon="1.26621">
        <ele>155</ele>
        <time>2022-10-25T13:15:05.346Z</time>
      </trkpt>
      <trkpt lat="49.45098" lon="1.26621">
        <ele>155</ele>
        <time>2022-10-25T13:15:10.337Z</time>
      </trkpt>
      <trkpt lat="49.45104" lon="1.26619">
        <ele>155</ele>
        <time>2022-10-25T13:15:15.321Z</time>
      </trkpt>
      <trkpt lat="49.4511" lon="1.26619">
        <ele>155</ele>
        <time>2022-10-25T13:15:20.297Z</time>
      </trkpt>
      <trkpt lat="49.45114" lon="1.26619">
        <ele>155</ele>
        <time>2022-10-25T13:15:24.315Z</time>
      </trkpt>
      <trkpt lat="49.45119" lon="1.26618">
        <ele>155</ele>
        <time>2022-10-25T13:15:28.338Z</time>
      </trkpt>
      <trkpt lat="49.45124" lon="1.26616">
        <ele>155</ele>
        <time>2022-10-25T13:15:33.310Z</time>
      </trkpt>
      <trkpt lat="49.45125" lon="1.26617">
        <ele>155</ele>
        <time>2022-10-25T13:15:37.357Z</time>
      </trkpt>
      <trkpt lat="49.45126" lon="1.26615">
        <ele>155</ele>
        <time>2022-10-25T13:17:47.320Z</time>
      </trkpt>
      <trkpt lat="49.45127" lon="1.26614">
        <ele>155</ele>
        <time>2022-10-25T13:17:51.330Z</time>
      </trkpt>
      <trkpt lat="49.45133" lon="1.26614">
        <ele>155</ele>
        <time>2022-10-25T13:17:56.324Z</time>
      </trkpt>
      <trkpt lat="49.45138" lon="1.26614">
        <ele>155</ele>
        <time>2022-10-25T13:18:00.325Z</time>
      </trkpt>
      <trkpt lat="49.45144" lon="1.26614">
        <ele>155</ele>
        <time>2022-10-25T13:18:05.352Z</time>
      </trkpt>
      <trkpt lat="49.4515" lon="1.26614">
        <ele>155</ele>
        <time>2022-10-25T13:18:10.344Z</time>
      </trkpt>
      <trkpt lat="49.45156" lon="1.26614">
        <ele>155</ele>
        <time>2022-10-25T13:18:15.343Z</time>
      </trkpt>
      <trkpt lat="49.45161" lon="1.26613">
        <ele>155</ele>
        <time>2022-10-25T13:18:20.335Z</time>
      </trkpt>
      <trkpt lat="49.45167" lon="1.26613">
        <ele>155</ele>
        <time>2022-10-25T13:18:25.347Z</time>
      </trkpt>
      <trkpt lat="49.45172" lon="1.26612">
        <ele>155</ele>
        <time>2022-10-25T13:18:29.361Z</time>
      </trkpt>
      <trkpt lat="49.45175" lon="1.26613">
        <ele>155</ele>
        <time>2022-10-25T13:18:33.336Z</time>
      </trkpt>
      <trkpt lat="49.45177" lon="1.26613">
        <ele>155</ele>
        <time>2022-10-25T13:18:38.349Z</time>
      </trkpt>
      <trkpt lat="49.45178" lon="1.26613">
        <ele>155</ele>
        <time>2022-10-25T13:18:43.323Z</time>
      </trkpt>
      <trkpt lat="49.45184" lon="1.26612">
        <ele>156</ele>
        <time>2022-10-25T13:18:48.302Z</time>
      </trkpt>
      <trkpt lat="49.45189" lon="1.26611">
        <ele>156</ele>
        <time>2022-10-25T13:18:52.338Z</time>
      </trkpt>
      <trkpt lat="49.45194" lon="1.2661">
        <ele>156</ele>
        <time>2022-10-25T13:18:56.346Z</time>
      </trkpt>
      <trkpt lat="49.45201" lon="1.26608">
        <ele>156</ele>
        <time>2022-10-25T13:19:01.348Z</time>
      </trkpt>
      <trkpt lat="49.45208" lon="1.26607">
        <ele>156</ele>
        <time>2022-10-25T13:19:06.331Z</time>
      </trkpt>
      <trkpt lat="49.45212" lon="1.26604">
        <ele>155</ele>
        <time>2022-10-25T13:19:11.341Z</time>
      </trkpt>
      <trkpt lat="49.45219" lon="1.26602">
        <ele>155</ele>
        <time>2022-10-25T13:19:16.335Z</time>
      </trkpt>
      <trkpt lat="49.45225" lon="1.266">
        <ele>155</ele>
        <time>2022-10-25T13:19:21.343Z</time>
      </trkpt>
      <trkpt lat="49.45231" lon="1.26599">
        <ele>155</ele>
        <time>2022-10-25T13:19:26.338Z</time>
      </trkpt>
      <trkpt lat="49.45236" lon="1.26598">
        <ele>155</ele>
        <time>2022-10-25T13:19:30.361Z</time>
      </trkpt>
      <trkpt lat="49.45242" lon="1.26596">
        <ele>155</ele>
        <time>2022-10-25T13:19:35.330Z</time>
      </trkpt>
      <trkpt lat="49.45246" lon="1.26595">
        <ele>155</ele>
        <time>2022-10-25T13:19:39.341Z</time>
      </trkpt>
      <trkpt lat="49.45252" lon="1.26593">
        <ele>155</ele>
        <time>2022-10-25T13:19:43.343Z</time>
      </trkpt>
      <trkpt lat="49.45258" lon="1.26594">
        <ele>155</ele>
        <time>2022-10-25T13:19:48.342Z</time>
      </trkpt>
      <trkpt lat="49.45264" lon="1.26592">
        <ele>155</ele>
        <time>2022-10-25T13:19:53.346Z</time>
      </trkpt>
      <trkpt lat="49.45269" lon="1.26591">
        <ele>153</ele>
        <time>2022-10-25T13:19:58.322Z</time>
      </trkpt>
      <trkpt lat="49.45274" lon="1.2659">
        <ele>153</ele>
        <time>2022-10-25T13:20:02.342Z</time>
      </trkpt>
      <trkpt lat="49.4528" lon="1.2659">
        <ele>153</ele>
        <time>2022-10-25T13:20:07.321Z</time>
      </trkpt>
      <trkpt lat="49.45285" lon="1.26589">
        <ele>153</ele>
        <time>2022-10-25T13:20:11.357Z</time>
      </trkpt>
      <trkpt lat="49.4529" lon="1.26588">
        <ele>153</ele>
        <time>2022-10-25T13:20:16.323Z</time>
      </trkpt>
      <trkpt lat="49.45297" lon="1.26583">
        <ele>152</ele>
        <time>2022-10-25T13:20:21.343Z</time>
      </trkpt>
      <trkpt lat="49.45303" lon="1.26582">
        <ele>152</ele>
        <time>2022-10-25T13:20:25.357Z</time>
      </trkpt>
      <trkpt lat="49.45309" lon="1.26579">
        <ele>152</ele>
        <time>2022-10-25T13:20:30.322Z</time>
      </trkpt>
      <trkpt lat="49.45315" lon="1.26576">
        <ele>152</ele>
        <time>2022-10-25T13:20:35.324Z</time>
      </trkpt>
      <trkpt lat="49.45321" lon="1.26573">
        <ele>151</ele>
        <time>2022-10-25T13:20:40.345Z</time>
      </trkpt>
      <trkpt lat="49.45327" lon="1.26569">
        <ele>151</ele>
        <time>2022-10-25T13:20:45.307Z</time>
      </trkpt>
      <trkpt lat="49.4533" lon="1.26568">
        <ele>151</ele>
        <time>2022-10-25T13:20:49.327Z</time>
      </trkpt>
      <trkpt lat="49.45336" lon="1.26566">
        <ele>151</ele>
        <time>2022-10-25T13:20:54.311Z</time>
      </trkpt>
      <trkpt lat="49.45342" lon="1.26565">
        <ele>151</ele>
        <time>2022-10-25T13:20:59.320Z</time>
      </trkpt>
      <trkpt lat="49.45347" lon="1.26563">
        <ele>151</ele>
        <time>2022-10-25T13:21:03.332Z</time>
      </trkpt>
      <trkpt lat="49.45352" lon="1.26559">
        <ele>150</ele>
        <time>2022-10-25T13:21:07.341Z</time>
      </trkpt>
      <trkpt lat="49.45358" lon="1.26556">
        <ele>150</ele>
        <time>2022-10-25T13:21:12.311Z</time>
      </trkpt>
      <trkpt lat="49.45362" lon="1.26554">
        <ele>150</ele>
        <time>2022-10-25T13:21:16.330Z</time>
      </trkpt>
      <trkpt lat="49.45368" lon="1.2655">
        <ele>150</ele>
        <time>2022-10-25T13:21:21.331Z</time>
      </trkpt>
      <trkpt lat="49.45373" lon="1.26543">
        <ele>150</ele>
        <time>2022-10-25T13:21:26.315Z</time>
      </trkpt>
      <trkpt lat="49.45372" lon="1.26534">
        <ele>150</ele>
        <time>2022-10-25T13:21:31.302Z</time>
      </trkpt>
      <trkpt lat="49.45371" lon="1.26532">
        <ele>150</ele>
        <time>2022-10-25T13:21:35.344Z</time>
      </trkpt>
      <trkpt lat="49.45368" lon="1.2653">
        <ele>150</ele>
        <time>2022-10-25T13:21:40.322Z</time>
      </trkpt>
      <trkpt lat="49.45366" lon="1.26526">
        <ele>150</ele>
        <time>2022-10-25T13:21:45.334Z</time>
      </trkpt>
      <trkpt lat="49.45363" lon="1.26523">
        <ele>150</ele>
        <time>2022-10-25T13:21:49.358Z</time>
      </trkpt>
      <trkpt lat="49.45357" lon="1.26519">
        <ele>150</ele>
        <time>2022-10-25T13:21:54.315Z</time>
      </trkpt>
      <trkpt lat="49.45352" lon="1.26515">
        <ele>150</ele>
        <time>2022-10-25T13:21:59.354Z</time>
      </trkpt>
      <trkpt lat="49.45348" lon="1.26512">
        <ele>150</ele>
        <time>2022-10-25T13:22:04.309Z</time>
      </trkpt>
      <trkpt lat="49.45344" lon="1.2651">
        <ele>151</ele>
        <time>2022-10-25T13:22:08.332Z</time>
      </trkpt>
      <trkpt lat="49.4534" lon="1.26506">
        <ele>151</ele>
        <time>2022-10-25T13:22:12.324Z</time>
      </trkpt>
      <trkpt lat="49.45335" lon="1.26504">
        <ele>151</ele>
        <time>2022-10-25T13:22:17.333Z</time>
      </trkpt>
      <trkpt lat="49.45331" lon="1.26502">
        <ele>151</ele>
        <time>2022-10-25T13:22:21.356Z</time>
      </trkpt>
      <trkpt lat="49.45326" lon="1.265">
        <ele>151</ele>
        <time>2022-10-25T13:22:26.334Z</time>
      </trkpt>
      <trkpt lat="49.45321" lon="1.26498">
        <ele>151</ele>
        <time>2022-10-25T13:22:31.356Z</time>
      </trkpt>
      <trkpt lat="49.45315" lon="1.26495">
        <ele>152</ele>
        <time>2022-10-25T13:22:36.330Z</time>
      </trkpt>
      <trkpt lat="49.45311" lon="1.26492">
        <ele>152</ele>
        <time>2022-10-25T13:22:41.366Z</time>
      </trkpt>
      <trkpt lat="49.45306" lon="1.26489">
        <ele>152</ele>
        <time>2022-10-25T13:22:46.339Z</time>
      </trkpt>
      <trkpt lat="49.45299" lon="1.26487">
        <ele>152</ele>
        <time>2022-10-25T13:22:51.335Z</time>
      </trkpt>
      <trkpt lat="49.45294" lon="1.26482">
        <ele>152</ele>
        <time>2022-10-25T13:22:56.293Z</time>
      </trkpt>
      <trkpt lat="49.4529" lon="1.2648">
        <ele>153</ele>
        <time>2022-10-25T13:23:00.326Z</time>
      </trkpt>
      <trkpt lat="49.45284" lon="1.26477">
        <ele>153</ele>
        <time>2022-10-25T13:23:05.316Z</time>
      </trkpt>
      <trkpt lat="49.4528" lon="1.26474">
        <ele>153</ele>
        <time>2022-10-25T13:23:09.333Z</time>
      </trkpt>
      <trkpt lat="49.45274" lon="1.26471">
        <ele>153</ele>
        <time>2022-10-25T13:23:14.328Z</time>
      </trkpt>
      <trkpt lat="49.4527" lon="1.26469">
        <ele>153</ele>
        <time>2022-10-25T13:23:18.338Z</time>
      </trkpt>
      <trkpt lat="49.45265" lon="1.26465">
        <ele>153</ele>
        <time>2022-10-25T13:23:23.326Z</time>
      </trkpt>
      <trkpt lat="49.4526" lon="1.26462">
        <ele>153</ele>
        <time>2022-10-25T13:23:28.325Z</time>
      </trkpt>
      <trkpt lat="49.45254" lon="1.26459">
        <ele>153</ele>
        <time>2022-10-25T13:23:33.356Z</time>
      </trkpt>
      <trkpt lat="49.45248" lon="1.26456">
        <ele>153</ele>
        <time>2022-10-25T13:23:38.328Z</time>
      </trkpt>
      <trkpt lat="49.45241" lon="1.26453">
        <ele>153</ele>
        <time>2022-10-25T13:23:43.322Z</time>
      </trkpt>
      <trkpt lat="49.45235" lon="1.26451">
        <ele>153</ele>
        <time>2022-10-25T13:23:48.311Z</time>
      </trkpt>
      <trkpt lat="49.45229" lon="1.26448">
        <ele>153</ele>
        <time>2022-10-25T13:23:52.330Z</time>
      </trkpt>
      <trkpt lat="49.45224" lon="1.26446">
        <ele>153</ele>
        <time>2022-10-25T13:23:56.335Z</time>
      </trkpt>
      <trkpt lat="49.45219" lon="1.26443">
        <ele>153</ele>
        <time>2022-10-25T13:24:01.347Z</time>
      </trkpt>
      <trkpt lat="49.45214" lon="1.2644">
        <ele>153</ele>
        <time>2022-10-25T13:24:06.332Z</time>
      </trkpt>
      <trkpt lat="49.45209" lon="1.26437">
        <ele>153</ele>
        <time>2022-10-25T13:24:11.351Z</time>
      </trkpt>
      <trkpt lat="49.45203" lon="1.26435">
        <ele>155</ele>
        <time>2022-10-25T13:24:16.339Z</time>
      </trkpt>
      <trkpt lat="49.45197" lon="1.26433">
        <ele>155</ele>
        <time>2022-10-25T13:24:21.316Z</time>
      </trkpt>
      <trkpt lat="49.45192" lon="1.26431">
        <ele>155</ele>
        <time>2022-10-25T13:24:25.347Z</time>
      </trkpt>
      <trkpt lat="49.45186" lon="1.26429">
        <ele>154</ele>
        <time>2022-10-25T13:24:30.338Z</time>
      </trkpt>
      <trkpt lat="49.4518" lon="1.2643">
        <ele>155</ele>
        <time>2022-10-25T13:24:35.334Z</time>
      </trkpt>
      <trkpt lat="49.45175" lon="1.26429">
        <ele>155</ele>
        <time>2022-10-25T13:24:39.354Z</time>
      </trkpt>
      <trkpt lat="49.45168" lon="1.26428">
        <ele>155</ele>
        <time>2022-10-25T13:24:44.328Z</time>
      </trkpt>
      <trkpt lat="49.45163" lon="1.26426">
        <ele>155</ele>
        <time>2022-10-25T13:24:48.339Z</time>
      </trkpt>
      <trkpt lat="49.45156" lon="1.26425">
        <ele>155</ele>
        <time>2022-10-25T13:24:53.319Z</time>
      </trkpt>
      <trkpt lat="49.45151" lon="1.26423">
        <ele>155</ele>
        <time>2022-10-25T13:24:58.322Z</time>
      </trkpt>
      <trkpt lat="49.45147" lon="1.26422">
        <ele>155</ele>
        <time>2022-10-25T13:25:02.330Z</time>
      </trkpt>
      <trkpt lat="49.45141" lon="1.2642">
        <ele>155</ele>
        <time>2022-10-25T13:25:07.311Z</time>
      </trkpt>
      <trkpt lat="49.45135" lon="1.26418">
        <ele>155</ele>
        <time>2022-10-25T13:25:11.351Z</time>
      </trkpt>
      <trkpt lat="49.45129" lon="1.26415">
        <ele>155</ele>
        <time>2022-10-25T13:25:16.342Z</time>
      </trkpt>
      <trkpt lat="49.45124" lon="1.26415">
        <ele>154</ele>
        <time>2022-10-25T13:25:21.341Z</time>
      </trkpt>
      <trkpt lat="49.45119" lon="1.26413">
        <ele>154</ele>
        <time>2022-10-25T13:25:26.319Z</time>
      </trkpt>
      <trkpt lat="49.45117" lon="1.26413">
        <ele>154</ele>
        <time>2022-10-25T13:25:30.334Z</time>
      </trkpt>
      <trkpt lat="49.45113" lon="1.26412">
        <ele>154</ele>
        <time>2022-10-25T13:25:35.339Z</time>
      </trkpt>
      <trkpt lat="49.45107" lon="1.26411">
        <ele>154</ele>
        <time>2022-10-25T13:25:40.338Z</time>
      </trkpt>
      <trkpt lat="49.45104" lon="1.26412">
        <ele>154</ele>
        <time>2022-10-25T13:25:45.310Z</time>
      </trkpt>
      <trkpt lat="49.45102" lon="1.26413">
        <ele>154</ele>
        <time>2022-10-25T13:25:49.353Z</time>
      </trkpt>
      <trkpt lat="49.45098" lon="1.26415">
        <ele>154</ele>
        <time>2022-10-25T13:25:54.320Z</time>
      </trkpt>
      <trkpt lat="49.45092" lon="1.26411">
        <ele>154</ele>
        <time>2022-10-25T13:25:59.299Z</time>
      </trkpt>
      <trkpt lat="49.45088" lon="1.2641">
        <ele>154</ele>
        <time>2022-10-25T13:26:03.332Z</time>
      </trkpt>
      <trkpt lat="49.45081" lon="1.26411">
        <ele>154</ele>
        <time>2022-10-25T13:26:08.330Z</time>
      </trkpt>
      <trkpt lat="49.45076" lon="1.26408">
        <ele>154</ele>
        <time>2022-10-25T13:26:13.336Z</time>
      </trkpt>
      <trkpt lat="49.45071" lon="1.26407">
        <ele>154</ele>
        <time>2022-10-25T13:26:18.353Z</time>
      </trkpt>
      <trkpt lat="49.45065" lon="1.26403">
        <ele>154</ele>
        <time>2022-10-25T13:26:23.317Z</time>
      </trkpt>
      <trkpt lat="49.45061" lon="1.26401">
        <ele>154</ele>
        <time>2022-10-25T13:26:27.335Z</time>
      </trkpt>
      <trkpt lat="49.45057" lon="1.26398">
        <ele>154</ele>
        <time>2022-10-25T13:26:31.345Z</time>
      </trkpt>
      <trkpt lat="49.45052" lon="1.26396">
        <ele>154</ele>
        <time>2022-10-25T13:26:36.323Z</time>
      </trkpt>
      <trkpt lat="49.45045" lon="1.26387">
        <ele>154</ele>
        <time>2022-10-25T13:28:36.343Z</time>
      </trkpt>
      <trkpt lat="49.45046" lon="1.26383">
        <ele>154</ele>
        <time>2022-10-25T13:28:41.342Z</time>
      </trkpt>
      <trkpt lat="49.45047" lon="1.26376">
        <ele>154</ele>
        <time>2022-10-25T13:28:46.299Z</time>
      </trkpt>
      <trkpt lat="49.4505" lon="1.2637">
        <ele>154</ele>
        <time>2022-10-25T13:28:50.333Z</time>
      </trkpt>
      <trkpt lat="49.45053" lon="1.26365">
        <ele>154</ele>
        <time>2022-10-25T13:28:55.331Z</time>
      </trkpt>
      <trkpt lat="49.45055" lon="1.26358">
        <ele>154</ele>
        <time>2022-10-25T13:29:00.315Z</time>
      </trkpt>
      <trkpt lat="49.45057" lon="1.26353">
        <ele>154</ele>
        <time>2022-10-25T13:29:04.320Z</time>
      </trkpt>
      <trkpt lat="49.45057" lon="1.26344">
        <ele>155</ele>
        <time>2022-10-25T13:29:09.300Z</time>
      </trkpt>
      <trkpt lat="49.45057" lon="1.26338">
        <ele>155</ele>
        <time>2022-10-25T13:29:13.310Z</time>
      </trkpt>
      <trkpt lat="49.45057" lon="1.2633">
        <ele>155</ele>
        <time>2022-10-25T13:29:18.307Z</time>
      </trkpt>
      <trkpt lat="49.45056" lon="1.26323">
        <ele>155</ele>
        <time>2022-10-25T13:29:22.322Z</time>
      </trkpt>
      <trkpt lat="49.45055" lon="1.26316">
        <ele>155</ele>
        <time>2022-10-25T13:29:27.322Z</time>
      </trkpt>
      <trkpt lat="49.45054" lon="1.26308">
        <ele>155</ele>
        <time>2022-10-25T13:29:32.317Z</time>
      </trkpt>
      <trkpt lat="49.45052" lon="1.26301">
        <ele>155</ele>
        <time>2022-10-25T13:29:36.337Z</time>
      </trkpt>
      <trkpt lat="49.45052" lon="1.26292">
        <ele>155</ele>
        <time>2022-10-25T13:29:41.336Z</time>
      </trkpt>
      <trkpt lat="49.4505" lon="1.26282">
        <ele>155</ele>
        <time>2022-10-25T13:29:46.335Z</time>
      </trkpt>
      <trkpt lat="49.4505" lon="1.26272">
        <ele>155</ele>
        <time>2022-10-25T13:29:51.328Z</time>
      </trkpt>
      <trkpt lat="49.4505" lon="1.26264">
        <ele>155</ele>
        <time>2022-10-25T13:29:56.316Z</time>
      </trkpt>
      <trkpt lat="49.45049" lon="1.26255">
        <ele>155</ele>
        <time>2022-10-25T13:30:01.321Z</time>
      </trkpt>
      <trkpt lat="49.45049" lon="1.26247">
        <ele>155</ele>
        <time>2022-10-25T13:30:05.342Z</time>
      </trkpt>
      <trkpt lat="49.45048" lon="1.2624">
        <ele>155</ele>
        <time>2022-10-25T13:30:09.337Z</time>
      </trkpt>
      <trkpt lat="49.45046" lon="1.26232">
        <ele>156</ele>
        <time>2022-10-25T13:30:13.359Z</time>
      </trkpt>
      <trkpt lat="49.45046" lon="1.26224">
        <ele>156</ele>
        <time>2022-10-25T13:30:18.309Z</time>
      </trkpt>
      <trkpt lat="49.45045" lon="1.26216">
        <ele>156</ele>
        <time>2022-10-25T13:30:22.327Z</time>
      </trkpt>
      <trkpt lat="49.45043" lon="1.26207">
        <ele>155</ele>
        <time>2022-10-25T13:30:27.318Z</time>
      </trkpt>
      <trkpt lat="49.45042" lon="1.26199">
        <ele>155</ele>
        <time>2022-10-25T13:30:31.332Z</time>
      </trkpt>
      <trkpt lat="49.45041" lon="1.26191">
        <ele>154</ele>
        <time>2022-10-25T13:30:35.330Z</time>
      </trkpt>
      <trkpt lat="49.4504" lon="1.26183">
        <ele>154</ele>
        <time>2022-10-25T13:30:40.338Z</time>
      </trkpt>
      <trkpt lat="49.45039" lon="1.26173">
        <ele>153</ele>
        <time>2022-10-25T13:30:45.338Z</time>
      </trkpt>
      <trkpt lat="49.45037" lon="1.26165">
        <ele>153</ele>
        <time>2022-10-25T13:30:50.300Z</time>
      </trkpt>
      <trkpt lat="49.45036" lon="1.26157">
        <ele>153</ele>
        <time>2022-10-25T13:30:54.319Z</time>
      </trkpt>
      <trkpt lat="49.45034" lon="1.26148">
        <ele>152</ele>
        <time>2022-10-25T13:30:59.345Z</time>
      </trkpt>
      <trkpt lat="49.45034" lon="1.26139">
        <ele>152</ele>
        <time>2022-10-25T13:31:04.311Z</time>
      </trkpt>
      <trkpt lat="49.45033" lon="1.26131">
        <ele>152</ele>
        <time>2022-10-25T13:31:08.320Z</time>
      </trkpt>
      <trkpt lat="49.45032" lon="1.26122">
        <ele>150</ele>
        <time>2022-10-25T13:31:13.346Z</time>
      </trkpt>
      <trkpt lat="49.45031" lon="1.26114">
        <ele>150</ele>
        <time>2022-10-25T13:31:18.327Z</time>
      </trkpt>
      <trkpt lat="49.4503" lon="1.26107">
        <ele>150</ele>
        <time>2022-10-25T13:31:23.342Z</time>
      </trkpt>
      <trkpt lat="49.45028" lon="1.26098">
        <ele>150</ele>
        <time>2022-10-25T13:31:28.308Z</time>
      </trkpt>
      <trkpt lat="49.45026" lon="1.26089">
        <ele>149</ele>
        <time>2022-10-25T13:31:33.328Z</time>
      </trkpt>
      <trkpt lat="49.45025" lon="1.26081">
        <ele>149</ele>
        <time>2022-10-25T13:31:37.341Z</time>
      </trkpt>
      <trkpt lat="49.45024" lon="1.26073">
        <ele>149</ele>
        <time>2022-10-25T13:31:41.369Z</time>
      </trkpt>
      <trkpt lat="49.45022" lon="1.26062">
        <ele>149</ele>
        <time>2022-10-25T13:31:46.319Z</time>
      </trkpt>
      <trkpt lat="49.45019" lon="1.26052">
        <ele>149</ele>
        <time>2022-10-25T13:31:51.348Z</time>
      </trkpt>
      <trkpt lat="49.45018" lon="1.26042">
        <ele>149</ele>
        <time>2022-10-25T13:31:56.328Z</time>
      </trkpt>
      <trkpt lat="49.45016" lon="1.26032">
        <ele>149</ele>
        <time>2022-10-25T13:32:01.353Z</time>
      </trkpt>
      <trkpt lat="49.45014" lon="1.26024">
        <ele>149</ele>
        <time>2022-10-25T13:32:06.316Z</time>
      </trkpt>
      <trkpt lat="49.45013" lon="1.26017">
        <ele>149</ele>
        <time>2022-10-25T13:32:10.327Z</time>
      </trkpt>
      <trkpt lat="49.45012" lon="1.26008">
        <ele>149</ele>
        <time>2022-10-25T13:32:15.343Z</time>
      </trkpt>
      <trkpt lat="49.45009" lon="1.25998">
        <ele>149</ele>
        <time>2022-10-25T13:32:20.324Z</time>
      </trkpt>
      <trkpt lat="49.45008" lon="1.2599">
        <ele>149</ele>
        <time>2022-10-25T13:32:25.329Z</time>
      </trkpt>
      <trkpt lat="49.45007" lon="1.25983">
        <ele>149</ele>
        <time>2022-10-25T13:32:29.352Z</time>
      </trkpt>
      <trkpt lat="49.45005" lon="1.25973">
        <ele>149</ele>
        <time>2022-10-25T13:32:34.302Z</time>
      </trkpt>
      <trkpt lat="49.45003" lon="1.25965">
        <ele>149</ele>
        <time>2022-10-25T13:32:38.312Z</time>
      </trkpt>
      <trkpt lat="49.45002" lon="1.25958">
        <ele>148</ele>
        <time>2022-10-25T13:32:42.334Z</time>
      </trkpt>
      <trkpt lat="49.45001" lon="1.25949">
        <ele>148</ele>
        <time>2022-10-25T13:32:47.356Z</time>
      </trkpt>
      <trkpt lat="49.44999" lon="1.25939">
        <ele>148</ele>
        <time>2022-10-25T13:32:52.317Z</time>
      </trkpt>
      <trkpt lat="49.44998" lon="1.2593">
        <ele>148</ele>
        <time>2022-10-25T13:32:57.350Z</time>
      </trkpt>
      <trkpt lat="49.44996" lon="1.2592">
        <ele>148</ele>
        <time>2022-10-25T13:33:02.322Z</time>
      </trkpt>
      <trkpt lat="49.44995" lon="1.25914">
        <ele>148</ele>
        <time>2022-10-25T13:33:06.330Z</time>
      </trkpt>
      <trkpt lat="49.44994" lon="1.25906">
        <ele>148</ele>
        <time>2022-10-25T13:33:11.334Z</time>
      </trkpt>
      <trkpt lat="49.44992" lon="1.25899">
        <ele>148</ele>
        <time>2022-10-25T13:33:15.345Z</time>
      </trkpt>
      <trkpt lat="49.4499" lon="1.25889">
        <ele>148</ele>
        <time>2022-10-25T13:33:20.337Z</time>
      </trkpt>
      <trkpt lat="49.44988" lon="1.2588">
        <ele>148</ele>
        <time>2022-10-25T13:33:25.332Z</time>
      </trkpt>
      <trkpt lat="49.44988" lon="1.25874">
        <ele>148</ele>
        <time>2022-10-25T13:33:29.338Z</time>
      </trkpt>
      <trkpt lat="49.44986" lon="1.25866">
        <ele>148</ele>
        <time>2022-10-25T13:33:34.312Z</time>
      </trkpt>
      <trkpt lat="49.44985" lon="1.2586">
        <ele>148</ele>
        <time>2022-10-25T13:33:38.322Z</time>
      </trkpt>
      <trkpt lat="49.44985" lon="1.25855">
        <ele>148</ele>
        <time>2022-10-25T13:33:42.336Z</time>
      </trkpt>
      <trkpt lat="49.44984" lon="1.25846">
        <ele>148</ele>
        <time>2022-10-25T13:33:47.347Z</time>
      </trkpt>
      <trkpt lat="49.44982" lon="1.25837">
        <ele>148</ele>
        <time>2022-10-25T13:33:52.337Z</time>
      </trkpt>
      <trkpt lat="49.44981" lon="1.25827">
        <ele>148</ele>
        <time>2022-10-25T13:33:57.336Z</time>
      </trkpt>
      <trkpt lat="49.4498" lon="1.25817">
        <ele>148</ele>
        <time>2022-10-25T13:34:02.335Z</time>
      </trkpt>
      <trkpt lat="49.44978" lon="1.25809">
        <ele>148</ele>
        <time>2022-10-25T13:34:07.349Z</time>
      </trkpt>
      <trkpt lat="49.44977" lon="1.258">
        <ele>148</ele>
        <time>2022-10-25T13:34:11.339Z</time>
      </trkpt>
      <trkpt lat="49.44976" lon="1.25791">
        <ele>147</ele>
        <time>2022-10-25T13:34:16.334Z</time>
      </trkpt>
      <trkpt lat="49.44975" lon="1.25782">
        <ele>147</ele>
        <time>2022-10-25T13:34:21.320Z</time>
      </trkpt>
      <trkpt lat="49.44973" lon="1.25772">
        <ele>147</ele>
        <time>2022-10-25T13:34:26.305Z</time>
      </trkpt>
      <trkpt lat="49.44972" lon="1.25764">
        <ele>147</ele>
        <time>2022-10-25T13:34:30.343Z</time>
      </trkpt>
      <trkpt lat="49.44971" lon="1.25755">
        <ele>147</ele>
        <time>2022-10-25T13:34:35.328Z</time>
      </trkpt>
      <trkpt lat="49.4497" lon="1.25746">
        <ele>147</ele>
        <time>2022-10-25T13:34:40.332Z</time>
      </trkpt>
      <trkpt lat="49.44969" lon="1.25738">
        <ele>147</ele>
        <time>2022-10-25T13:34:45.327Z</time>
      </trkpt>
      <trkpt lat="49.44967" lon="1.25728">
        <ele>146</ele>
        <time>2022-10-25T13:34:50.337Z</time>
      </trkpt>
      <trkpt lat="49.44966" lon="1.25718">
        <ele>146</ele>
        <time>2022-10-25T13:34:55.328Z</time>
      </trkpt>
      <trkpt lat="49.44965" lon="1.25709">
        <ele>146</ele>
        <time>2022-10-25T13:35:00.302Z</time>
      </trkpt>
      <trkpt lat="49.44964" lon="1.25702">
        <ele>145</ele>
        <time>2022-10-25T13:35:04.323Z</time>
      </trkpt>
      <trkpt lat="49.44963" lon="1.25695">
        <ele>145</ele>
        <time>2022-10-25T13:35:08.346Z</time>
      </trkpt>
      <trkpt lat="49.44961" lon="1.25685">
        <ele>145</ele>
        <time>2022-10-25T13:35:13.340Z</time>
      </trkpt>
      <trkpt lat="49.4496" lon="1.25678">
        <ele>144</ele>
        <time>2022-10-25T13:35:17.314Z</time>
      </trkpt>
      <trkpt lat="49.44959" lon="1.25669">
        <ele>144</ele>
        <time>2022-10-25T13:35:22.311Z</time>
      </trkpt>
      <trkpt lat="49.44957" lon="1.25662">
        <ele>144</ele>
        <time>2022-10-25T13:35:26.318Z</time>
      </trkpt>
      <trkpt lat="49.44956" lon="1.25654">
        <ele>144</ele>
        <time>2022-10-25T13:35:31.354Z</time>
      </trkpt>
      <trkpt lat="49.44955" lon="1.25646">
        <ele>143</ele>
        <time>2022-10-25T13:35:35.348Z</time>
      </trkpt>
      <trkpt lat="49.44953" lon="1.25636">
        <ele>143</ele>
        <time>2022-10-25T13:35:40.340Z</time>
      </trkpt>
      <trkpt lat="49.44952" lon="1.25628">
        <ele>143</ele>
        <time>2022-10-25T13:35:45.316Z</time>
      </trkpt>
      <trkpt lat="49.44951" lon="1.25618">
        <ele>143</ele>
        <time>2022-10-25T13:35:50.335Z</time>
      </trkpt>
      <trkpt lat="49.44949" lon="1.25608">
        <ele>143</ele>
        <time>2022-10-25T13:35:55.338Z</time>
      </trkpt>
      <trkpt lat="49.44947" lon="1.25599">
        <ele>143</ele>
        <time>2022-10-25T13:36:00.307Z</time>
      </trkpt>
      <trkpt lat="49.44943" lon="1.25595">
        <ele>143</ele>
        <time>2022-10-25T13:36:04.331Z</time>
      </trkpt>
      <trkpt lat="49.4494" lon="1.25593">
        <ele>143</ele>
        <time>2022-10-25T13:36:09.322Z</time>
      </trkpt>
      <trkpt lat="49.44937" lon="1.25595">
        <ele>143</ele>
        <time>2022-10-25T13:36:14.325Z</time>
      </trkpt>
      <trkpt lat="49.44932" lon="1.25595">
        <ele>143</ele>
        <time>2022-10-25T13:36:18.327Z</time>
      </trkpt>
      <trkpt lat="49.44926" lon="1.25595">
        <ele>143</ele>
        <time>2022-10-25T13:36:23.339Z</time>
      </trkpt>
      <trkpt lat="49.4492" lon="1.25597">
        <ele>144</ele>
        <time>2022-10-25T13:36:27.352Z</time>
      </trkpt>
      <trkpt lat="49.44914" lon="1.25599">
        <ele>144</ele>
        <time>2022-10-25T13:36:32.351Z</time>
      </trkpt>
      <trkpt lat="49.44908" lon="1.256">
        <ele>144</ele>
        <time>2022-10-25T13:36:37.344Z</time>
      </trkpt>
      <trkpt lat="49.44902" lon="1.25602">
        <ele>144</ele>
        <time>2022-10-25T13:36:42.315Z</time>
      </trkpt>
      <trkpt lat="49.44896" lon="1.25605">
        <ele>144</ele>
        <time>2022-10-25T13:36:47.304Z</time>
      </trkpt>
      <trkpt lat="49.44892" lon="1.25607">
        <ele>144</ele>
        <time>2022-10-25T13:36:51.355Z</time>
      </trkpt>
      <trkpt lat="49.44886" lon="1.25608">
        <ele>144</ele>
        <time>2022-10-25T13:36:56.326Z</time>
      </trkpt>
      <trkpt lat="49.44881" lon="1.25605">
        <ele>144</ele>
        <time>2022-10-25T13:37:01.325Z</time>
      </trkpt>
      <trkpt lat="49.4488" lon="1.25599">
        <ele>144</ele>
        <time>2022-10-25T13:37:05.358Z</time>
      </trkpt>
      <trkpt lat="49.44879" lon="1.25591">
        <ele>144</ele>
        <time>2022-10-25T13:37:10.325Z</time>
      </trkpt>
      <trkpt lat="49.44879" lon="1.25585">
        <ele>144</ele>
        <time>2022-10-25T13:37:14.333Z</time>
      </trkpt>
      <trkpt lat="49.44878" lon="1.25578">
        <ele>144</ele>
        <time>2022-10-25T13:37:18.348Z</time>
      </trkpt>
      <trkpt lat="49.44877" lon="1.25569">
        <ele>144</ele>
        <time>2022-10-25T13:37:23.349Z</time>
      </trkpt>
      <trkpt lat="49.44876" lon="1.2556">
        <ele>144</ele>
        <time>2022-10-25T13:37:28.302Z</time>
      </trkpt>
      <trkpt lat="49.44876" lon="1.25553">
        <ele>144</ele>
        <time>2022-10-25T13:37:32.334Z</time>
      </trkpt>
      <trkpt lat="49.44876" lon="1.25546">
        <ele>144</ele>
        <time>2022-10-25T13:37:36.355Z</time>
      </trkpt>
      <trkpt lat="49.44875" lon="1.25537">
        <ele>144</ele>
        <time>2022-10-25T13:37:41.348Z</time>
      </trkpt>
      <trkpt lat="49.44874" lon="1.25528">
        <ele>144</ele>
        <time>2022-10-25T13:37:46.354Z</time>
      </trkpt>
      <trkpt lat="49.44873" lon="1.25519">
        <ele>144</ele>
        <time>2022-10-25T13:37:51.339Z</time>
      </trkpt>
      <trkpt lat="49.44872" lon="1.25512">
        <ele>144</ele>
        <time>2022-10-25T13:37:55.335Z</time>
      </trkpt>
      <trkpt lat="49.44871" lon="1.25505">
        <ele>144</ele>
        <time>2022-10-25T13:37:59.336Z</time>
      </trkpt>
      <trkpt lat="49.4487" lon="1.25495">
        <ele>144</ele>
        <time>2022-10-25T13:38:04.346Z</time>
      </trkpt>
      <trkpt lat="49.4487" lon="1.25487">
        <ele>144</ele>
        <time>2022-10-25T13:38:09.344Z</time>
      </trkpt>
      <trkpt lat="49.44869" lon="1.2548">
        <ele>144</ele>
        <time>2022-10-25T13:38:13.381Z</time>
      </trkpt>
      <trkpt lat="49.44868" lon="1.25471">
        <ele>144</ele>
        <time>2022-10-25T13:38:18.346Z</time>
      </trkpt>
      <trkpt lat="49.44868" lon="1.25464">
        <ele>144</ele>
        <time>2022-10-25T13:38:22.358Z</time>
      </trkpt>
      <trkpt lat="49.44867" lon="1.25455">
        <ele>145</ele>
        <time>2022-10-25T13:38:27.334Z</time>
      </trkpt>
      <trkpt lat="49.44866" lon="1.25446">
        <ele>145</ele>
        <time>2022-10-25T13:38:32.312Z</time>
      </trkpt>
      <trkpt lat="49.44866" lon="1.25438">
        <ele>145</ele>
        <time>2022-10-25T13:38:36.362Z</time>
      </trkpt>
      <trkpt lat="49.44865" lon="1.2543">
        <ele>146</ele>
        <time>2022-10-25T13:38:41.360Z</time>
      </trkpt>
      <trkpt lat="49.44863" lon="1.2542">
        <ele>146</ele>
        <time>2022-10-25T13:38:46.342Z</time>
      </trkpt>
      <trkpt lat="49.44863" lon="1.25412">
        <ele>146</ele>
        <time>2022-10-25T13:38:50.340Z</time>
      </trkpt>
      <trkpt lat="49.44862" lon="1.25405">
        <ele>146</ele>
        <time>2022-10-25T13:38:54.354Z</time>
      </trkpt>
      <trkpt lat="49.44862" lon="1.25396">
        <ele>147</ele>
        <time>2022-10-25T13:38:59.355Z</time>
      </trkpt>
      <trkpt lat="49.44861" lon="1.25387">
        <ele>147</ele>
        <time>2022-10-25T13:39:04.320Z</time>
      </trkpt>
      <trkpt lat="49.4486" lon="1.2538">
        <ele>147</ele>
        <time>2022-10-25T13:39:08.349Z</time>
      </trkpt>
      <trkpt lat="49.44859" lon="1.25371">
        <ele>148</ele>
        <time>2022-10-25T13:39:13.349Z</time>
      </trkpt>
      <trkpt lat="49.44858" lon="1.25361">
        <ele>148</ele>
        <time>2022-10-25T13:39:18.329Z</time>
      </trkpt>
      <trkpt lat="49.44857" lon="1.25355">
        <ele>148</ele>
        <time>2022-10-25T13:39:22.330Z</time>
      </trkpt>
      <trkpt lat="49.44857" lon="1.25347">
        <ele>148</ele>
        <time>2022-10-25T13:39:26.340Z</time>
      </trkpt>
      <trkpt lat="49.44855" lon="1.25338">
        <ele>149</ele>
        <time>2022-10-25T13:39:31.340Z</time>
      </trkpt>
      <trkpt lat="49.44855" lon="1.25329">
        <ele>149</ele>
        <time>2022-10-25T13:39:36.327Z</time>
      </trkpt>
      <trkpt lat="49.44854" lon="1.25323">
        <ele>149</ele>
        <time>2022-10-25T13:39:40.344Z</time>
      </trkpt>
      <trkpt lat="49.44853" lon="1.25314">
        <ele>149</ele>
        <time>2022-10-25T13:39:45.320Z</time>
      </trkpt>
      <trkpt lat="49.44852" lon="1.25306">
        <ele>149</ele>
        <time>2022-10-25T13:39:49.390Z</time>
      </trkpt>
      <trkpt lat="49.44851" lon="1.25298">
        <ele>149</ele>
        <time>2022-10-25T13:39:54.326Z</time>
      </trkpt>
      <trkpt lat="49.4485" lon="1.25291">
        <ele>149</ele>
        <time>2022-10-25T13:39:58.370Z</time>
      </trkpt>
      <trkpt lat="49.4485" lon="1.25286">
        <ele>149</ele>
        <time>2022-10-25T13:40:02.371Z</time>
      </trkpt>
      <trkpt lat="49.44849" lon="1.25277">
        <ele>149</ele>
        <time>2022-10-25T13:40:07.336Z</time>
      </trkpt>
      <trkpt lat="49.44848" lon="1.25268">
        <ele>149</ele>
        <time>2022-10-25T13:40:12.336Z</time>
      </trkpt>
      <trkpt lat="49.44848" lon="1.2526">
        <ele>149</ele>
        <time>2022-10-25T13:40:17.329Z</time>
      </trkpt>
      <trkpt lat="49.44847" lon="1.25253">
        <ele>149</ele>
        <time>2022-10-25T13:40:21.341Z</time>
      </trkpt>
      <trkpt lat="49.44846" lon="1.25244">
        <ele>149</ele>
        <time>2022-10-25T13:40:26.354Z</time>
      </trkpt>
      <trkpt lat="49.44846" lon="1.25236">
        <ele>149</ele>
        <time>2022-10-25T13:40:31.347Z</time>
      </trkpt>
      <trkpt lat="49.44845" lon="1.25228">
        <ele>149</ele>
        <time>2022-10-25T13:40:35.358Z</time>
      </trkpt>
      <trkpt lat="49.44844" lon="1.25219">
        <ele>149</ele>
        <time>2022-10-25T13:40:40.352Z</time>
      </trkpt>
      <trkpt lat="49.44842" lon="1.2521">
        <ele>149</ele>
        <time>2022-10-25T13:40:45.351Z</time>
      </trkpt>
      <trkpt lat="49.44841" lon="1.25202">
        <ele>148</ele>
        <time>2022-10-25T13:40:50.346Z</time>
      </trkpt>
      <trkpt lat="49.4484" lon="1.25192">
        <ele>148</ele>
        <time>2022-10-25T13:40:55.311Z</time>
      </trkpt>
      <trkpt lat="49.44839" lon="1.25186">
        <ele>148</ele>
        <time>2022-10-25T13:40:59.360Z</time>
      </trkpt>
      <trkpt lat="49.44839" lon="1.25177">
        <ele>148</ele>
        <time>2022-10-25T13:41:04.335Z</time>
      </trkpt>
      <trkpt lat="49.44838" lon="1.2517">
        <ele>148</ele>
        <time>2022-10-25T13:41:08.346Z</time>
      </trkpt>
      <trkpt lat="49.44838" lon="1.25163">
        <ele>148</ele>
        <time>2022-10-25T13:41:12.334Z</time>
      </trkpt>
      <trkpt lat="49.44837" lon="1.25154">
        <ele>148</ele>
        <time>2022-10-25T13:41:17.353Z</time>
      </trkpt>
      <trkpt lat="49.44835" lon="1.25145">
        <ele>148</ele>
        <time>2022-10-25T13:41:22.305Z</time>
      </trkpt>
      <trkpt lat="49.44834" lon="1.25139">
        <ele>148</ele>
        <time>2022-10-25T13:41:26.319Z</time>
      </trkpt>
      <trkpt lat="49.44833" lon="1.25131">
        <ele>148</ele>
        <time>2022-10-25T13:41:30.320Z</time>
      </trkpt>
      <trkpt lat="49.44832" lon="1.25125">
        <ele>148</ele>
        <time>2022-10-25T13:41:34.336Z</time>
      </trkpt>
      <trkpt lat="49.44832" lon="1.25116">
        <ele>148</ele>
        <time>2022-10-25T13:41:39.353Z</time>
      </trkpt>
      <trkpt lat="49.44831" lon="1.25106">
        <ele>148</ele>
        <time>2022-10-25T13:41:44.335Z</time>
      </trkpt>
      <trkpt lat="49.4483" lon="1.25101">
        <ele>148</ele>
        <time>2022-10-25T13:41:49.339Z</time>
      </trkpt>
      <trkpt lat="49.4483" lon="1.251">
        <ele>148</ele>
        <time>2022-10-25T13:41:53.342Z</time>
      </trkpt>
      <trkpt lat="49.4483" lon="1.25097">
        <ele>147</ele>
        <time>2022-10-25T13:41:58.349Z</time>
      </trkpt>
      <trkpt lat="49.44829" lon="1.25088">
        <ele>147</ele>
        <time>2022-10-25T13:42:03.307Z</time>
      </trkpt>
      <trkpt lat="49.44829" lon="1.25081">
        <ele>147</ele>
        <time>2022-10-25T13:42:07.358Z</time>
      </trkpt>
      <trkpt lat="49.44828" lon="1.25073">
        <ele>147</ele>
        <time>2022-10-25T13:42:11.349Z</time>
      </trkpt>
      <trkpt lat="49.44827" lon="1.25063">
        <ele>146</ele>
        <time>2022-10-25T13:42:16.307Z</time>
      </trkpt>
      <trkpt lat="49.44827" lon="1.25056">
        <ele>146</ele>
        <time>2022-10-25T13:42:20.355Z</time>
      </trkpt>
      <trkpt lat="49.44826" lon="1.25047">
        <ele>146</ele>
        <time>2022-10-25T13:42:25.346Z</time>
      </trkpt>
      <trkpt lat="49.44824" lon="1.25037">
        <ele>146</ele>
        <time>2022-10-25T13:42:30.305Z</time>
      </trkpt>
      <trkpt lat="49.44824" lon="1.2503">
        <ele>146</ele>
        <time>2022-10-25T13:42:34.330Z</time>
      </trkpt>
      <trkpt lat="49.44823" lon="1.25022">
        <ele>146</ele>
        <time>2022-10-25T13:42:38.359Z</time>
      </trkpt>
      <trkpt lat="49.44821" lon="1.25012">
        <ele>146</ele>
        <time>2022-10-25T13:42:43.342Z</time>
      </trkpt>
      <trkpt lat="49.4482" lon="1.25003">
        <ele>146</ele>
        <time>2022-10-25T13:42:48.349Z</time>
      </trkpt>
      <trkpt lat="49.4482" lon="1.24994">
        <ele>146</ele>
        <time>2022-10-25T13:42:53.343Z</time>
      </trkpt>
      <trkpt lat="49.44818" lon="1.24984">
        <ele>146</ele>
        <time>2022-10-25T13:42:58.336Z</time>
      </trkpt>
      <trkpt lat="49.44817" lon="1.24974">
        <ele>146</ele>
        <time>2022-10-25T13:43:03.345Z</time>
      </trkpt>
      <trkpt lat="49.44816" lon="1.24967">
        <ele>146</ele>
        <time>2022-10-25T13:43:08.350Z</time>
      </trkpt>
      <trkpt lat="49.44815" lon="1.24958">
        <ele>146</ele>
        <time>2022-10-25T13:43:13.374Z</time>
      </trkpt>
      <trkpt lat="49.44815" lon="1.24948">
        <ele>146</ele>
        <time>2022-10-25T13:43:18.317Z</time>
      </trkpt>
      <trkpt lat="49.44814" lon="1.24942">
        <ele>146</ele>
        <time>2022-10-25T13:43:22.327Z</time>
      </trkpt>
      <trkpt lat="49.44813" lon="1.24934">
        <ele>146</ele>
        <time>2022-10-25T13:43:26.357Z</time>
      </trkpt>
      <trkpt lat="49.44812" lon="1.24926">
        <ele>146</ele>
        <time>2022-10-25T13:43:31.329Z</time>
      </trkpt>
      <trkpt lat="49.44812" lon="1.24919">
        <ele>146</ele>
        <time>2022-10-25T13:43:35.349Z</time>
      </trkpt>
      <trkpt lat="49.44811" lon="1.24911">
        <ele>146</ele>
        <time>2022-10-25T13:43:40.331Z</time>
      </trkpt>
      <trkpt lat="49.4481" lon="1.24902">
        <ele>146</ele>
        <time>2022-10-25T13:43:45.362Z</time>
      </trkpt>
      <trkpt lat="49.44809" lon="1.24894">
        <ele>146</ele>
        <time>2022-10-25T13:43:50.334Z</time>
      </trkpt>
      <trkpt lat="49.44807" lon="1.24888">
        <ele>146</ele>
        <time>2022-10-25T13:43:55.336Z</time>
      </trkpt>
      <trkpt lat="49.44806" lon="1.2488">
        <ele>146</ele>
        <time>2022-10-25T13:43:59.336Z</time>
      </trkpt>
      <trkpt lat="49.44805" lon="1.24873">
        <ele>146</ele>
        <time>2022-10-25T13:44:03.352Z</time>
      </trkpt>
      <trkpt lat="49.44804" lon="1.24865">
        <ele>146</ele>
        <time>2022-10-25T13:44:08.344Z</time>
      </trkpt>
      <trkpt lat="49.44803" lon="1.24857">
        <ele>146</ele>
        <time>2022-10-25T13:44:13.326Z</time>
      </trkpt>
      <trkpt lat="49.44803" lon="1.2485">
        <ele>146</ele>
        <time>2022-10-25T13:44:17.347Z</time>
      </trkpt>
      <trkpt lat="49.44802" lon="1.24841">
        <ele>146</ele>
        <time>2022-10-25T13:44:22.333Z</time>
      </trkpt>
      <trkpt lat="49.44802" lon="1.24833">
        <ele>146</ele>
        <time>2022-10-25T13:44:27.336Z</time>
      </trkpt>
      <trkpt lat="49.44801" lon="1.24824">
        <ele>146</ele>
        <time>2022-10-25T13:44:32.320Z</time>
      </trkpt>
      <trkpt lat="49.448" lon="1.24815">
        <ele>147</ele>
        <time>2022-10-25T13:44:37.333Z</time>
      </trkpt>
      <trkpt lat="49.44799" lon="1.24807">
        <ele>147</ele>
        <time>2022-10-25T13:44:42.335Z</time>
      </trkpt>
      <trkpt lat="49.44798" lon="1.24798">
        <ele>147</ele>
        <time>2022-10-25T13:44:47.349Z</time>
      </trkpt>
      <trkpt lat="49.44797" lon="1.2479">
        <ele>148</ele>
        <time>2022-10-25T13:44:52.344Z</time>
      </trkpt>
      <trkpt lat="49.44795" lon="1.24781">
        <ele>148</ele>
        <time>2022-10-25T13:44:57.343Z</time>
      </trkpt>
      <trkpt lat="49.44795" lon="1.24774">
        <ele>148</ele>
        <time>2022-10-25T13:45:01.363Z</time>
      </trkpt>
      <trkpt lat="49.44793" lon="1.24765">
        <ele>148</ele>
        <time>2022-10-25T13:45:06.333Z</time>
      </trkpt>
      <trkpt lat="49.44792" lon="1.24757">
        <ele>148</ele>
        <time>2022-10-25T13:45:11.368Z</time>
      </trkpt>
      <trkpt lat="49.44791" lon="1.24749">
        <ele>146</ele>
        <time>2022-10-25T13:45:16.330Z</time>
      </trkpt>
      <trkpt lat="49.4479" lon="1.24741">
        <ele>146</ele>
        <time>2022-10-25T13:45:21.325Z</time>
      </trkpt>
      <trkpt lat="49.4479" lon="1.24734">
        <ele>146</ele>
        <time>2022-10-25T13:45:25.318Z</time>
      </trkpt>
      <trkpt lat="49.4479" lon="1.24727">
        <ele>146</ele>
        <time>2022-10-25T13:45:29.363Z</time>
      </trkpt>
      <trkpt lat="49.44788" lon="1.24718">
        <ele>146</ele>
        <time>2022-10-25T13:45:34.334Z</time>
      </trkpt>
      <trkpt lat="49.44788" lon="1.2471">
        <ele>146</ele>
        <time>2022-10-25T13:45:38.346Z</time>
      </trkpt>
      <trkpt lat="49.44786" lon="1.24701">
        <ele>147</ele>
        <time>2022-10-25T13:45:43.345Z</time>
      </trkpt>
      <trkpt lat="49.44785" lon="1.24693">
        <ele>147</ele>
        <time>2022-10-25T13:45:48.331Z</time>
      </trkpt>
      <trkpt lat="49.44784" lon="1.24685">
        <ele>147</ele>
        <time>2022-10-25T13:45:53.363Z</time>
      </trkpt>
      <trkpt lat="49.44783" lon="1.24678">
        <ele>148</ele>
        <time>2022-10-25T13:45:58.331Z</time>
      </trkpt>
      <trkpt lat="49.44783" lon="1.24673">
        <ele>148</ele>
        <time>2022-10-25T13:46:02.339Z</time>
      </trkpt>
      <trkpt lat="49.44784" lon="1.24666">
        <ele>148</ele>
        <time>2022-10-25T13:46:07.354Z</time>
      </trkpt>
      <trkpt lat="49.44784" lon="1.24659">
        <ele>148</ele>
        <time>2022-10-25T13:46:12.334Z</time>
      </trkpt>
      <trkpt lat="49.44783" lon="1.24655">
        <ele>148</ele>
        <time>2022-10-25T13:46:17.344Z</time>
      </trkpt>
      <trkpt lat="49.44782" lon="1.24646">
        <ele>151</ele>
        <time>2022-10-25T13:47:03.334Z</time>
      </trkpt>
      <trkpt lat="49.44781" lon="1.24645">
        <ele>151</ele>
        <time>2022-10-25T13:47:08.321Z</time>
      </trkpt>
      <trkpt lat="49.44783" lon="1.24645">
        <ele>151</ele>
        <time>2022-10-25T13:47:12.347Z</time>
      </trkpt>
      <trkpt lat="49.44786" lon="1.24643">
        <ele>151</ele>
        <time>2022-10-25T13:47:17.333Z</time>
      </trkpt>
      <trkpt lat="49.44788" lon="1.24641">
        <ele>151</ele>
        <time>2022-10-25T13:47:22.343Z</time>
      </trkpt>
      <trkpt lat="49.44791" lon="1.24639">
        <ele>151</ele>
        <time>2022-10-25T13:47:27.348Z</time>
      </trkpt>
      <trkpt lat="49.44795" lon="1.24637">
        <ele>151</ele>
        <time>2022-10-25T13:47:32.299Z</time>
      </trkpt>
      <trkpt lat="49.44799" lon="1.24636">
        <ele>151</ele>
        <time>2022-10-25T13:47:36.334Z</time>
      </trkpt>
      <trkpt lat="49.44802" lon="1.24634">
        <ele>151</ele>
        <time>2022-10-25T13:47:41.343Z</time>
      </trkpt>
      <trkpt lat="49.44805" lon="1.24631">
        <ele>151</ele>
        <time>2022-10-25T13:47:46.294Z</time>
      </trkpt>
      <trkpt lat="49.4481" lon="1.24627">
        <ele>151</ele>
        <time>2022-10-25T13:47:50.324Z</time>
      </trkpt>
      <trkpt lat="49.44816" lon="1.24626">
        <ele>151</ele>
        <time>2022-10-25T13:47:55.358Z</time>
      </trkpt>
      <trkpt lat="49.44819" lon="1.24624">
        <ele>152</ele>
        <time>2022-10-25T13:48:00.344Z</time>
      </trkpt>
      <trkpt lat="49.44826" lon="1.2462">
        <ele>152</ele>
        <time>2022-10-25T13:48:10.339Z</time>
      </trkpt>
      <trkpt lat="49.44829" lon="1.2462">
        <ele>152</ele>
        <time>2022-10-25T13:48:15.303Z</time>
      </trkpt>
      <trkpt lat="49.4483" lon="1.2462">
        <ele>152</ele>
        <time>2022-10-25T13:48:19.343Z</time>
      </trkpt>
      <trkpt lat="49.4483" lon="1.24619">
        <ele>152</ele>
        <time>2022-10-25T13:48:23.331Z</time>
      </trkpt>
      <trkpt lat="49.44831" lon="1.2462">
        <ele>152</ele>
        <time>2022-10-25T13:48:28.303Z</time>
      </trkpt>
      <trkpt lat="49.44835" lon="1.24619">
        <ele>152</ele>
        <time>2022-10-25T13:48:32.343Z</time>
      </trkpt>
      <trkpt lat="49.44838" lon="1.24617">
        <ele>152</ele>
        <time>2022-10-25T13:48:36.348Z</time>
      </trkpt>
      <trkpt lat="49.44842" lon="1.24615">
        <ele>152</ele>
        <time>2022-10-25T13:48:41.306Z</time>
      </trkpt>
      <trkpt lat="49.44847" lon="1.24615">
        <ele>152</ele>
        <time>2022-10-25T13:48:45.342Z</time>
      </trkpt>
      <trkpt lat="49.44852" lon="1.24612">
        <ele>152</ele>
        <time>2022-10-25T13:48:50.326Z</time>
      </trkpt>
      <trkpt lat="49.44857" lon="1.2461">
        <ele>152</ele>
        <time>2022-10-25T13:48:55.304Z</time>
      </trkpt>
      <trkpt lat="49.44861" lon="1.24611">
        <ele>152</ele>
        <time>2022-10-25T13:48:59.338Z</time>
      </trkpt>
      <trkpt lat="49.44866" lon="1.2461">
        <ele>152</ele>
        <time>2022-10-25T13:49:04.332Z</time>
      </trkpt>
      <trkpt lat="49.44871" lon="1.2461">
        <ele>152</ele>
        <time>2022-10-25T13:49:09.338Z</time>
      </trkpt>
      <trkpt lat="49.44878" lon="1.2461">
        <ele>151</ele>
        <time>2022-10-25T13:49:14.310Z</time>
      </trkpt>
      <trkpt lat="49.44882" lon="1.2461">
        <ele>151</ele>
        <time>2022-10-25T13:49:18.323Z</time>
      </trkpt>
      <trkpt lat="49.44887" lon="1.24609">
        <ele>151</ele>
        <time>2022-10-25T13:49:22.314Z</time>
      </trkpt>
      <trkpt lat="49.44891" lon="1.2461">
        <ele>151</ele>
        <time>2022-10-25T13:49:27.304Z</time>
      </trkpt>
      <trkpt lat="49.44894" lon="1.24614">
        <ele>151</ele>
        <time>2022-10-25T13:49:31.343Z</time>
      </trkpt>
      <trkpt lat="49.449" lon="1.24617">
        <ele>151</ele>
        <time>2022-10-25T13:49:36.294Z</time>
      </trkpt>
      <trkpt lat="49.44904" lon="1.24619">
        <ele>148</ele>
        <time>2022-10-25T13:49:40.333Z</time>
      </trkpt>
      <trkpt lat="49.44907" lon="1.2462">
        <ele>148</ele>
        <time>2022-10-25T13:49:44.348Z</time>
      </trkpt>
      <trkpt lat="49.44912" lon="1.24624">
        <ele>148</ele>
        <time>2022-10-25T13:49:49.329Z</time>
      </trkpt>
      <trkpt lat="49.44916" lon="1.24624">
        <ele>148</ele>
        <time>2022-10-25T13:49:53.340Z</time>
      </trkpt>
      <trkpt lat="49.4492" lon="1.24624">
        <ele>148</ele>
        <time>2022-10-25T13:49:58.300Z</time>
      </trkpt>
      <trkpt lat="49.44922" lon="1.24624">
        <ele>148</ele>
        <time>2022-10-25T13:50:02.313Z</time>
      </trkpt>
      <trkpt lat="49.44926" lon="1.24625">
        <ele>149</ele>
        <time>2022-10-25T13:50:07.326Z</time>
      </trkpt>
      <trkpt lat="49.44931" lon="1.24627">
        <ele>147</ele>
        <time>2022-10-25T13:50:12.333Z</time>
      </trkpt>
      <trkpt lat="49.44936" lon="1.24629">
        <ele>147</ele>
        <time>2022-10-25T13:50:17.312Z</time>
      </trkpt>
      <trkpt lat="49.4494" lon="1.24631">
        <ele>147</ele>
        <time>2022-10-25T13:50:21.335Z</time>
      </trkpt>
      <trkpt lat="49.44944" lon="1.24633">
        <ele>147</ele>
        <time>2022-10-25T13:50:26.341Z</time>
      </trkpt>
      <trkpt lat="49.44949" lon="1.24634">
        <ele>147</ele>
        <time>2022-10-25T13:50:31.338Z</time>
      </trkpt>
      <trkpt lat="49.44953" lon="1.24636">
        <ele>147</ele>
        <time>2022-10-25T13:50:36.324Z</time>
      </trkpt>
      <trkpt lat="49.44958" lon="1.24639">
        <ele>147</ele>
        <time>2022-10-25T13:50:41.350Z</time>
      </trkpt>
      <trkpt lat="49.44962" lon="1.24639">
        <ele>147</ele>
        <time>2022-10-25T13:50:46.330Z</time>
      </trkpt>
      <trkpt lat="49.44967" lon="1.24637">
        <ele>147</ele>
        <time>2022-10-25T13:50:50.337Z</time>
      </trkpt>
      <trkpt lat="49.44972" lon="1.24633">
        <ele>147</ele>
        <time>2022-10-25T13:50:55.324Z</time>
      </trkpt>
      <trkpt lat="49.44977" lon="1.24631">
        <ele>147</ele>
        <time>2022-10-25T13:50:59.328Z</time>
      </trkpt>
      <trkpt lat="49.44982" lon="1.24628">
        <ele>147</ele>
        <time>2022-10-25T13:51:04.339Z</time>
      </trkpt>
      <trkpt lat="49.44987" lon="1.24627">
        <ele>148</ele>
        <time>2022-10-25T13:51:08.329Z</time>
      </trkpt>
      <trkpt lat="49.44991" lon="1.24624">
        <ele>146</ele>
        <time>2022-10-25T13:51:13.334Z</time>
      </trkpt>
      <trkpt lat="49.44995" lon="1.24621">
        <ele>146</ele>
        <time>2022-10-25T13:51:17.361Z</time>
      </trkpt>
      <trkpt lat="49.45001" lon="1.24617">
        <ele>146</ele>
        <time>2022-10-25T13:51:22.320Z</time>
      </trkpt>
      <trkpt lat="49.45005" lon="1.24613">
        <ele>146</ele>
        <time>2022-10-25T13:51:27.338Z</time>
      </trkpt>
      <trkpt lat="49.4501" lon="1.24612">
        <ele>146</ele>
        <time>2022-10-25T13:51:31.342Z</time>
      </trkpt>
      <trkpt lat="49.45015" lon="1.24609">
        <ele>143</ele>
        <time>2022-10-25T13:51:36.347Z</time>
      </trkpt>
      <trkpt lat="49.45021" lon="1.24606">
        <ele>143</ele>
        <time>2022-10-25T13:51:41.316Z</time>
      </trkpt>
      <trkpt lat="49.45024" lon="1.24603">
        <ele>143</ele>
        <time>2022-10-25T13:51:45.349Z</time>
      </trkpt>
      <trkpt lat="49.45027" lon="1.246">
        <ele>143</ele>
        <time>2022-10-25T13:51:50.317Z</time>
      </trkpt>
      <trkpt lat="49.4503" lon="1.24596">
        <ele>141</ele>
        <time>2022-10-25T13:51:54.332Z</time>
      </trkpt>
      <trkpt lat="49.45032" lon="1.24592">
        <ele>141</ele>
        <time>2022-10-25T13:51:59.337Z</time>
      </trkpt>
      <trkpt lat="49.45035" lon="1.24588">
        <ele>141</ele>
        <time>2022-10-25T13:52:04.337Z</time>
      </trkpt>
      <trkpt lat="49.45038" lon="1.24586">
        <ele>141</ele>
        <time>2022-10-25T13:52:09.311Z</time>
      </trkpt>
      <trkpt lat="49.45038" lon="1.24585">
        <ele>141</ele>
        <time>2022-10-25T13:52:13.323Z</time>
      </trkpt>
      <trkpt lat="49.4504" lon="1.2458">
        <ele>141</ele>
        <time>2022-10-25T13:52:18.302Z</time>
      </trkpt>
      <trkpt lat="49.45043" lon="1.24572">
        <ele>134</ele>
        <time>2022-10-25T13:52:22.318Z</time>
      </trkpt>
      <trkpt lat="49.45045" lon="1.24571">
        <ele>134</ele>
        <time>2022-10-25T13:52:27.295Z</time>
      </trkpt>
      <trkpt lat="49.45047" lon="1.24569">
        <ele>131</ele>
        <time>2022-10-25T13:52:31.305Z</time>
      </trkpt>
      <trkpt lat="49.45049" lon="1.24568">
        <ele>131</ele>
        <time>2022-10-25T13:52:35.310Z</time>
      </trkpt>
      <trkpt lat="49.45052" lon="1.24565">
        <ele>131</ele>
        <time>2022-10-25T13:52:39.316Z</time>
      </trkpt>
      <trkpt lat="49.45055" lon="1.24562">
        <ele>131</ele>
        <time>2022-10-25T13:52:44.315Z</time>
      </trkpt>
      <trkpt lat="49.45059" lon="1.24561">
        <ele>131</ele>
        <time>2022-10-25T13:52:48.333Z</time>
      </trkpt>
      <trkpt lat="49.45062" lon="1.24557">
        <ele>131</ele>
        <time>2022-10-25T13:52:53.300Z</time>
      </trkpt>
      <trkpt lat="49.45065" lon="1.24555">
        <ele>131</ele>
        <time>2022-10-25T13:52:57.332Z</time>
      </trkpt>
      <trkpt lat="49.45067" lon="1.24552">
        <ele>131</ele>
        <time>2022-10-25T13:53:02.330Z</time>
      </trkpt>
      <trkpt lat="49.45071" lon="1.24548">
        <ele>125</ele>
        <time>2022-10-25T13:53:11.312Z</time>
      </trkpt>
      <trkpt lat="49.45074" lon="1.24547">
        <ele>125</ele>
        <time>2022-10-25T13:53:15.322Z</time>
      </trkpt>
      <trkpt lat="49.45074" lon="1.24543">
        <ele>125</ele>
        <time>2022-10-25T13:53:20.290Z</time>
      </trkpt>
      <trkpt lat="49.45076" lon="1.2454">
        <ele>126</ele>
        <time>2022-10-25T13:53:24.308Z</time>
      </trkpt>
      <trkpt lat="49.45078" lon="1.24537">
        <ele>126</ele>
        <time>2022-10-25T13:53:28.337Z</time>
      </trkpt>
      <trkpt lat="49.45079" lon="1.24536">
        <ele>126</ele>
        <time>2022-10-25T13:53:33.336Z</time>
      </trkpt>
      <trkpt lat="49.45079" lon="1.2453">
        <ele>126</ele>
        <time>2022-10-25T13:53:38.317Z</time>
      </trkpt>
      <trkpt lat="49.45083" lon="1.24526">
        <ele>126</ele>
        <time>2022-10-25T13:53:42.334Z</time>
      </trkpt>
      <trkpt lat="49.45088" lon="1.24521">
        <ele>126</ele>
        <time>2022-10-25T13:53:47.328Z</time>
      </trkpt>
      <trkpt lat="49.45088" lon="1.24508">
        <ele>127</ele>
        <time>2022-10-25T13:54:25.324Z</time>
      </trkpt>
      <trkpt lat="49.45087" lon="1.24506">
        <ele>127</ele>
        <time>2022-10-25T13:54:30.287Z</time>
      </trkpt>
      <trkpt lat="49.45087" lon="1.24506">
        <ele>127</ele>
        <time>2022-10-25T13:54:34.303Z</time>
      </trkpt>
      <trkpt lat="49.45086" lon="1.24504">
        <ele>127</ele>
        <time>2022-10-25T13:54:38.318Z</time>
      </trkpt>
      <trkpt lat="49.45086" lon="1.245">
        <ele>127</ele>
        <time>2022-10-25T13:54:43.308Z</time>
      </trkpt>
      <trkpt lat="49.45084" lon="1.24497">
        <ele>127</ele>
        <time>2022-10-25T13:54:47.330Z</time>
      </trkpt>
      <trkpt lat="49.45084" lon="1.2449">
        <ele>127</ele>
        <time>2022-10-25T13:54:52.308Z</time>
      </trkpt>
      <trkpt lat="49.45083" lon="1.24485">
        <ele>127</ele>
        <time>2022-10-25T13:54:57.331Z</time>
      </trkpt>
      <trkpt lat="49.4508" lon="1.24478">
        <ele>127</ele>
        <time>2022-10-25T13:55:02.292Z</time>
      </trkpt>
      <trkpt lat="49.45078" lon="1.24473">
        <ele>127</ele>
        <time>2022-10-25T13:55:06.317Z</time>
      </trkpt>
      <trkpt lat="49.45076" lon="1.24467">
        <ele>127</ele>
        <time>2022-10-25T13:55:11.314Z</time>
      </trkpt>
      <trkpt lat="49.45074" lon="1.2446">
        <ele>127</ele>
        <time>2022-10-25T13:55:16.308Z</time>
      </trkpt>
      <trkpt lat="49.45074" lon="1.24454">
        <ele>128</ele>
        <time>2022-10-25T13:55:20.336Z</time>
      </trkpt>
      <trkpt lat="49.45072" lon="1.24446">
        <ele>128</ele>
        <time>2022-10-25T13:55:25.326Z</time>
      </trkpt>
      <trkpt lat="49.4507" lon="1.24438">
        <ele>128</ele>
        <time>2022-10-25T13:55:30.325Z</time>
      </trkpt>
      <trkpt lat="49.45069" lon="1.24432">
        <ele>126</ele>
        <time>2022-10-25T13:55:34.321Z</time>
      </trkpt>
      <trkpt lat="49.45067" lon="1.24425">
        <ele>126</ele>
        <time>2022-10-25T13:55:39.294Z</time>
      </trkpt>
      <trkpt lat="49.45065" lon="1.2442">
        <ele>126</ele>
        <time>2022-10-25T13:55:43.324Z</time>
      </trkpt>
      <trkpt lat="49.45061" lon="1.24416">
        <ele>126</ele>
        <time>2022-10-25T13:55:48.308Z</time>
      </trkpt>
      <trkpt lat="49.45059" lon="1.24412">
        <ele>126</ele>
        <time>2022-10-25T13:55:52.325Z</time>
      </trkpt>
      <trkpt lat="49.45052" lon="1.24409">
        <ele>126</ele>
        <time>2022-10-25T13:55:57.321Z</time>
      </trkpt>
      <trkpt lat="49.45048" lon="1.24406">
        <ele>126</ele>
        <time>2022-10-25T13:56:02.295Z</time>
      </trkpt>
      <trkpt lat="49.45043" lon="1.24403">
        <ele>126</ele>
        <time>2022-10-25T13:56:06.319Z</time>
      </trkpt>
      <trkpt lat="49.45037" lon="1.244">
        <ele>125</ele>
        <time>2022-10-25T13:56:11.332Z</time>
      </trkpt>
      <trkpt lat="49.45033" lon="1.24397">
        <ele>125</ele>
        <time>2022-10-25T13:56:16.332Z</time>
      </trkpt>
      <trkpt lat="49.45028" lon="1.24394">
        <ele>125</ele>
        <time>2022-10-25T13:56:21.298Z</time>
      </trkpt>
      <trkpt lat="49.45024" lon="1.24392">
        <ele>125</ele>
        <time>2022-10-25T13:56:25.316Z</time>
      </trkpt>
      <trkpt lat="49.45019" lon="1.24387">
        <ele>125</ele>
        <time>2022-10-25T13:56:30.338Z</time>
      </trkpt>
      <trkpt lat="49.45018" lon="1.24385">
        <ele>125</ele>
        <time>2022-10-25T13:56:35.331Z</time>
      </trkpt>
      <trkpt lat="49.45017" lon="1.2438">
        <ele>125</ele>
        <time>2022-10-25T13:56:40.322Z</time>
      </trkpt>
      <trkpt lat="49.45016" lon="1.24377">
        <ele>125</ele>
        <time>2022-10-25T13:56:45.323Z</time>
      </trkpt>
      <trkpt lat="49.45016" lon="1.24372">
        <ele>127</ele>
        <time>2022-10-25T13:56:50.298Z</time>
      </trkpt>
      <trkpt lat="49.45016" lon="1.24367">
        <ele>127</ele>
        <time>2022-10-25T13:56:54.317Z</time>
      </trkpt>
      <trkpt lat="49.45015" lon="1.24364">
        <ele>127</ele>
        <time>2022-10-25T13:56:59.331Z</time>
      </trkpt>
      <trkpt lat="49.45015" lon="1.24364">
        <ele>127</ele>
        <time>2022-10-25T13:57:04.326Z</time>
      </trkpt>
      <trkpt lat="49.45012" lon="1.24361">
        <ele>126</ele>
        <time>2022-10-25T13:57:08.318Z</time>
      </trkpt>
      <trkpt lat="49.45009" lon="1.2436">
        <ele>126</ele>
        <time>2022-10-25T13:57:13.316Z</time>
      </trkpt>
      <trkpt lat="49.45009" lon="1.24358">
        <ele>126</ele>
        <time>2022-10-25T13:57:18.328Z</time>
      </trkpt>
      <trkpt lat="49.45005" lon="1.24358">
        <ele>126</ele>
        <time>2022-10-25T13:57:22.329Z</time>
      </trkpt>
      <trkpt lat="49.45001" lon="1.24356">
        <ele>126</ele>
        <time>2022-10-25T13:57:26.323Z</time>
      </trkpt>
      <trkpt lat="49.44995" lon="1.24355">
        <ele>126</ele>
        <time>2022-10-25T13:57:31.323Z</time>
      </trkpt>
      <trkpt lat="49.44988" lon="1.24352">
        <ele>126</ele>
        <time>2022-10-25T13:57:36.303Z</time>
      </trkpt>
      <trkpt lat="49.44982" lon="1.2435">
        <ele>125</ele>
        <time>2022-10-25T13:57:41.316Z</time>
      </trkpt>
      <trkpt lat="49.44976" lon="1.24347">
        <ele>125</ele>
        <time>2022-10-25T13:57:46.320Z</time>
      </trkpt>
      <trkpt lat="49.4497" lon="1.24343">
        <ele>125</ele>
        <time>2022-10-25T13:57:51.355Z</time>
      </trkpt>
      <trkpt lat="49.44965" lon="1.24338">
        <ele>125</ele>
        <time>2022-10-25T13:57:56.314Z</time>
      </trkpt>
      <trkpt lat="49.44961" lon="1.24333">
        <ele>125</ele>
        <time>2022-10-25T13:58:00.330Z</time>
      </trkpt>
      <trkpt lat="49.44956" lon="1.24326">
        <ele>121</ele>
        <time>2022-10-25T13:58:05.342Z</time>
      </trkpt>
      <trkpt lat="49.44952" lon="1.24318">
        <ele>121</ele>
        <time>2022-10-25T13:58:10.298Z</time>
      </trkpt>
      <trkpt lat="49.4495" lon="1.2431">
        <ele>121</ele>
        <time>2022-10-25T13:58:14.298Z</time>
      </trkpt>
      <trkpt lat="49.44948" lon="1.24302">
        <ele>121</ele>
        <time>2022-10-25T13:58:18.311Z</time>
      </trkpt>
      <trkpt lat="49.44945" lon="1.24299">
        <ele>121</ele>
        <time>2022-10-25T13:58:22.304Z</time>
      </trkpt>
      <trkpt lat="49.44945" lon="1.24293">
        <ele>121</ele>
        <time>2022-10-25T13:58:27.314Z</time>
      </trkpt>
      <trkpt lat="49.44943" lon="1.24285">
        <ele>121</ele>
        <time>2022-10-25T13:58:32.295Z</time>
      </trkpt>
      <trkpt lat="49.44941" lon="1.24277">
        <ele>121</ele>
        <time>2022-10-25T13:58:36.315Z</time>
      </trkpt>
      <trkpt lat="49.44941" lon="1.24266">
        <ele>121</ele>
        <time>2022-10-25T13:58:41.303Z</time>
      </trkpt>
      <trkpt lat="49.44941" lon="1.2426">
        <ele>121</ele>
        <time>2022-10-25T13:58:45.310Z</time>
      </trkpt>
      <trkpt lat="49.44938" lon="1.24251">
        <ele>121</ele>
        <time>2022-10-25T13:58:50.317Z</time>
      </trkpt>
      <trkpt lat="49.44938" lon="1.24245">
        <ele>121</ele>
        <time>2022-10-25T13:58:54.303Z</time>
      </trkpt>
      <trkpt lat="49.44936" lon="1.24238">
        <ele>121</ele>
        <time>2022-10-25T13:58:59.306Z</time>
      </trkpt>
      <trkpt lat="49.44933" lon="1.24232">
        <ele>123</ele>
        <time>2022-10-25T13:59:03.312Z</time>
      </trkpt>
      <trkpt lat="49.44932" lon="1.24225">
        <ele>123</ele>
        <time>2022-10-25T13:59:08.310Z</time>
      </trkpt>
      <trkpt lat="49.4493" lon="1.24219">
        <ele>121</ele>
        <time>2022-10-25T13:59:12.318Z</time>
      </trkpt>
      <trkpt lat="49.44922" lon="1.24207">
        <ele>123</ele>
        <time>2022-10-25T14:00:45.296Z</time>
      </trkpt>
      <trkpt lat="49.44922" lon="1.24207">
        <ele>123</ele>
        <time>2022-10-25T14:00:49.307Z</time>
      </trkpt>
      <trkpt lat="49.44922" lon="1.24207">
        <ele>123</ele>
        <time>2022-10-25T14:00:53.311Z</time>
      </trkpt>
      <trkpt lat="49.44924" lon="1.24202">
        <ele>123</ele>
        <time>2022-10-25T14:00:58.298Z</time>
      </trkpt>
      <trkpt lat="49.44926" lon="1.24196">
        <ele>123</ele>
        <time>2022-10-25T14:01:02.307Z</time>
      </trkpt>
      <trkpt lat="49.44927" lon="1.24192">
        <ele>123</ele>
        <time>2022-10-25T14:01:56.332Z</time>
      </trkpt>
      <trkpt lat="49.44929" lon="1.24186">
        <ele>123</ele>
        <time>2022-10-25T14:02:01.310Z</time>
      </trkpt>
      <trkpt lat="49.44933" lon="1.2418">
        <ele>126</ele>
        <time>2022-10-25T14:02:06.318Z</time>
      </trkpt>
      <trkpt lat="49.44938" lon="1.24177">
        <ele>126</ele>
        <time>2022-10-25T14:02:11.309Z</time>
      </trkpt>
      <trkpt lat="49.44938" lon="1.24176">
        <ele>126</ele>
        <time>2022-10-25T14:02:15.322Z</time>
      </trkpt>
      <trkpt lat="49.44939" lon="1.24178">
        <ele>126</ele>
        <time>2022-10-25T14:05:27.322Z</time>
      </trkpt>
      <trkpt lat="49.44937" lon="1.24178">
        <ele>126</ele>
        <time>2022-10-25T14:05:31.331Z</time>
      </trkpt>
      <trkpt lat="49.44934" lon="1.24183">
        <ele>125</ele>
        <time>2022-10-25T14:05:36.319Z</time>
      </trkpt>
      <trkpt lat="49.4493" lon="1.2419">
        <ele>123</ele>
        <time>2022-10-25T14:05:41.312Z</time>
      </trkpt>
      <trkpt lat="49.44928" lon="1.24195">
        <ele>123</ele>
        <time>2022-10-25T14:05:46.307Z</time>
      </trkpt>
      <trkpt lat="49.44924" lon="1.24196">
        <ele>123</ele>
        <time>2022-10-25T14:09:46.308Z</time>
      </trkpt>
      <trkpt lat="49.44925" lon="1.24191">
        <ele>123</ele>
        <time>2022-10-25T14:09:51.296Z</time>
      </trkpt>
      <trkpt lat="49.44924" lon="1.24185">
        <ele>123</ele>
        <time>2022-10-25T14:09:55.307Z</time>
      </trkpt>
      <trkpt lat="49.44925" lon="1.24179">
        <ele>125</ele>
        <time>2022-10-25T14:10:00.316Z</time>
      </trkpt>
      <trkpt lat="49.44926" lon="1.24175">
        <ele>125</ele>
        <time>2022-10-25T14:10:05.306Z</time>
      </trkpt>
      <trkpt lat="49.44929" lon="1.24172">
        <ele>125</ele>
        <time>2022-10-25T14:11:20.347Z</time>
      </trkpt>
      <trkpt lat="49.44929" lon="1.24171">
        <ele>125</ele>
        <time>2022-10-25T14:11:25.318Z</time>
      </trkpt>
      <trkpt lat="49.44929" lon="1.24171">
        <ele>125</ele>
        <time>2022-10-25T14:11:30.343Z</time>
      </trkpt>
      <trkpt lat="49.44928" lon="1.24168">
        <ele>125</ele>
        <time>2022-10-25T14:11:35.323Z</time>
      </trkpt>
      <trkpt lat="49.44928" lon="1.24162">
        <ele>125</ele>
        <time>2022-10-25T14:11:40.321Z</time>
      </trkpt>
      <trkpt lat="49.44926" lon="1.24156">
        <ele>125</ele>
        <time>2022-10-25T14:11:44.337Z</time>
      </trkpt>
      <trkpt lat="49.44925" lon="1.2415">
        <ele>126</ele>
        <time>2022-10-25T14:11:49.331Z</time>
      </trkpt>
      <trkpt lat="49.44924" lon="1.24144">
        <ele>126</ele>
        <time>2022-10-25T14:11:54.301Z</time>
      </trkpt>
      <trkpt lat="49.44923" lon="1.24139">
        <ele>126</ele>
        <time>2022-10-25T14:11:58.314Z</time>
      </trkpt>
      <trkpt lat="49.44923" lon="1.24131">
        <ele>126</ele>
        <time>2022-10-25T14:12:03.313Z</time>
      </trkpt>
      <trkpt lat="49.44923" lon="1.24127">
        <ele>126</ele>
        <time>2022-10-25T14:12:07.316Z</time>
      </trkpt>
      <trkpt lat="49.44921" lon="1.24119">
        <ele>128</ele>
        <time>2022-10-25T14:12:12.319Z</time>
      </trkpt>
      <trkpt lat="49.44921" lon="1.24111">
        <ele>128</ele>
        <time>2022-10-25T14:12:17.334Z</time>
      </trkpt>
      <trkpt lat="49.4492" lon="1.24103">
        <ele>128</ele>
        <time>2022-10-25T14:12:22.334Z</time>
      </trkpt>
      <trkpt lat="49.44919" lon="1.24097">
        <ele>130</ele>
        <time>2022-10-25T14:12:27.326Z</time>
      </trkpt>
      <trkpt lat="49.44918" lon="1.24093">
        <ele>130</ele>
        <time>2022-10-25T14:12:32.331Z</time>
      </trkpt>
      <trkpt lat="49.44919" lon="1.24086">
        <ele>130</ele>
        <time>2022-10-25T14:12:37.324Z</time>
      </trkpt>
      <trkpt lat="49.4492" lon="1.2408">
        <ele>130</ele>
        <time>2022-10-25T14:12:42.336Z</time>
      </trkpt>
      <trkpt lat="49.4492" lon="1.24075">
        <ele>130</ele>
        <time>2022-10-25T14:12:47.324Z</time>
      </trkpt>
      <trkpt lat="49.44919" lon="1.24067">
        <ele>131</ele>
        <time>2022-10-25T14:12:52.333Z</time>
      </trkpt>
      <trkpt lat="49.44917" lon="1.24061">
        <ele>131</ele>
        <time>2022-10-25T14:12:57.314Z</time>
      </trkpt>
      <trkpt lat="49.44916" lon="1.24054">
        <ele>131</ele>
        <time>2022-10-25T14:13:02.306Z</time>
      </trkpt>
      <trkpt lat="49.44916" lon="1.24047">
        <ele>131</ele>
        <time>2022-10-25T14:13:07.306Z</time>
      </trkpt>
      <trkpt lat="49.44915" lon="1.24042">
        <ele>131</ele>
        <time>2022-10-25T14:13:11.313Z</time>
      </trkpt>
      <trkpt lat="49.44914" lon="1.24034">
        <ele>132</ele>
        <time>2022-10-25T14:13:16.324Z</time>
      </trkpt>
      <trkpt lat="49.44913" lon="1.24029">
        <ele>132</ele>
        <time>2022-10-25T14:13:20.344Z</time>
      </trkpt>
      <trkpt lat="49.4491" lon="1.24026">
        <ele>132</ele>
        <time>2022-10-25T14:13:25.320Z</time>
      </trkpt>
      <trkpt lat="49.4491" lon="1.24022">
        <ele>132</ele>
        <time>2022-10-25T14:13:29.328Z</time>
      </trkpt>
      <trkpt lat="49.4491" lon="1.24014">
        <ele>132</ele>
        <time>2022-10-25T14:13:34.314Z</time>
      </trkpt>
      <trkpt lat="49.4491" lon="1.24006">
        <ele>132</ele>
        <time>2022-10-25T14:13:39.326Z</time>
      </trkpt>
      <trkpt lat="49.4491" lon="1.23997">
        <ele>132</ele>
        <time>2022-10-25T14:13:44.320Z</time>
      </trkpt>
      <trkpt lat="49.44909" lon="1.2399">
        <ele>132</ele>
        <time>2022-10-25T14:13:48.338Z</time>
      </trkpt>
      <trkpt lat="49.44908" lon="1.23983">
        <ele>133</ele>
        <time>2022-10-25T14:13:53.331Z</time>
      </trkpt>
      <trkpt lat="49.44907" lon="1.23981">
        <ele>133</ele>
        <time>2022-10-25T14:13:57.328Z</time>
      </trkpt>
      <trkpt lat="49.44907" lon="1.23977">
        <ele>133</ele>
        <time>2022-10-25T14:14:01.352Z</time>
      </trkpt>
      <trkpt lat="49.44907" lon="1.23971">
        <ele>133</ele>
        <time>2022-10-25T14:14:06.345Z</time>
      </trkpt>
      <trkpt lat="49.44907" lon="1.23964">
        <ele>133</ele>
        <time>2022-10-25T14:14:11.330Z</time>
      </trkpt>
      <trkpt lat="49.44906" lon="1.23956">
        <ele>134</ele>
        <time>2022-10-25T14:14:16.328Z</time>
      </trkpt>
      <trkpt lat="49.44907" lon="1.23948">
        <ele>134</ele>
        <time>2022-10-25T14:14:21.343Z</time>
      </trkpt>
      <trkpt lat="49.44906" lon="1.23941">
        <ele>134</ele>
        <time>2022-10-25T14:14:26.336Z</time>
      </trkpt>
      <trkpt lat="49.44903" lon="1.23932">
        <ele>134</ele>
        <time>2022-10-25T14:14:31.301Z</time>
      </trkpt>
      <trkpt lat="49.44903" lon="1.23926">
        <ele>138</ele>
        <time>2022-10-25T14:14:35.312Z</time>
      </trkpt>
      <trkpt lat="49.44902" lon="1.2392">
        <ele>138</ele>
        <time>2022-10-25T14:14:39.325Z</time>
      </trkpt>
      <trkpt lat="49.44902" lon="1.2391">
        <ele>138</ele>
        <time>2022-10-25T14:14:44.312Z</time>
      </trkpt>
      <trkpt lat="49.449" lon="1.23902">
        <ele>139</ele>
        <time>2022-10-25T14:14:49.303Z</time>
      </trkpt>
      <trkpt lat="49.449" lon="1.23898">
        <ele>139</ele>
        <time>2022-10-25T14:14:53.326Z</time>
      </trkpt>
      <trkpt lat="49.44899" lon="1.2389">
        <ele>139</ele>
        <time>2022-10-25T14:14:58.308Z</time>
      </trkpt>
      <trkpt lat="49.44897" lon="1.23884">
        <ele>139</ele>
        <time>2022-10-25T14:15:02.314Z</time>
      </trkpt>
      <trkpt lat="49.44896" lon="1.23877">
        <ele>139</ele>
        <time>2022-10-25T14:15:07.320Z</time>
      </trkpt>
      <trkpt lat="49.44895" lon="1.23869">
        <ele>139</ele>
        <time>2022-10-25T14:15:12.317Z</time>
      </trkpt>
      <trkpt lat="49.44893" lon="1.23861">
        <ele>139</ele>
        <time>2022-10-25T14:15:17.324Z</time>
      </trkpt>
      <trkpt lat="49.44892" lon="1.23853">
        <ele>139</ele>
        <time>2022-10-25T14:15:22.318Z</time>
      </trkpt>
      <trkpt lat="49.4489" lon="1.23847">
        <ele>140</ele>
        <time>2022-10-25T14:15:27.316Z</time>
      </trkpt>
      <trkpt lat="49.44889" lon="1.2384">
        <ele>140</ele>
        <time>2022-10-25T14:15:32.314Z</time>
      </trkpt>
      <trkpt lat="49.44888" lon="1.23833">
        <ele>140</ele>
        <time>2022-10-25T14:15:37.320Z</time>
      </trkpt>
      <trkpt lat="49.44888" lon="1.23827">
        <ele>140</ele>
        <time>2022-10-25T14:15:41.330Z</time>
      </trkpt>
      <trkpt lat="49.44887" lon="1.2382">
        <ele>140</ele>
        <time>2022-10-25T14:15:46.328Z</time>
      </trkpt>
      <trkpt lat="49.44887" lon="1.23814">
        <ele>142</ele>
        <time>2022-10-25T14:15:50.337Z</time>
      </trkpt>
      <trkpt lat="49.44885" lon="1.23807">
        <ele>142</ele>
        <time>2022-10-25T14:15:54.342Z</time>
      </trkpt>
      <trkpt lat="49.44883" lon="1.23798">
        <ele>142</ele>
        <time>2022-10-25T14:15:59.350Z</time>
      </trkpt>
      <trkpt lat="49.44883" lon="1.23789">
        <ele>143</ele>
        <time>2022-10-25T14:16:04.330Z</time>
      </trkpt>
      <trkpt lat="49.44881" lon="1.23782">
        <ele>143</ele>
        <time>2022-10-25T14:16:09.331Z</time>
      </trkpt>
      <trkpt lat="49.4488" lon="1.23776">
        <ele>143</ele>
        <time>2022-10-25T14:16:14.337Z</time>
      </trkpt>
      <trkpt lat="49.4488" lon="1.23772">
        <ele>143</ele>
        <time>2022-10-25T14:16:19.335Z</time>
      </trkpt>
      <trkpt lat="49.44877" lon="1.2377">
        <ele>143</ele>
        <time>2022-10-25T14:16:24.311Z</time>
      </trkpt>
      <trkpt lat="49.44877" lon="1.23765">
        <ele>143</ele>
        <time>2022-10-25T14:16:28.301Z</time>
      </trkpt>
      <trkpt lat="49.44876" lon="1.23758">
        <ele>145</ele>
        <time>2022-10-25T14:16:33.319Z</time>
      </trkpt>
      <trkpt lat="49.44875" lon="1.23751">
        <ele>145</ele>
        <time>2022-10-25T14:16:38.318Z</time>
      </trkpt>
      <trkpt lat="49.44874" lon="1.23747">
        <ele>147</ele>
        <time>2022-10-25T14:16:42.320Z</time>
      </trkpt>
      <trkpt lat="49.44873" lon="1.23738">
        <ele>147</ele>
        <time>2022-10-25T14:16:47.322Z</time>
      </trkpt>
      <trkpt lat="49.44873" lon="1.23731">
        <ele>147</ele>
        <time>2022-10-25T14:16:52.306Z</time>
      </trkpt>
      <trkpt lat="49.44874" lon="1.23722">
        <ele>147</ele>
        <time>2022-10-25T14:16:57.313Z</time>
      </trkpt>
      <trkpt lat="49.44873" lon="1.23714">
        <ele>147</ele>
        <time>2022-10-25T14:17:02.299Z</time>
      </trkpt>
      <trkpt lat="49.44873" lon="1.23708">
        <ele>147</ele>
        <time>2022-10-25T14:17:06.327Z</time>
      </trkpt>
      <trkpt lat="49.44874" lon="1.23701">
        <ele>147</ele>
        <time>2022-10-25T14:17:11.324Z</time>
      </trkpt>
      <trkpt lat="49.44874" lon="1.23693">
        <ele>147</ele>
        <time>2022-10-25T14:17:16.293Z</time>
      </trkpt>
      <trkpt lat="49.44873" lon="1.23687">
        <ele>147</ele>
        <time>2022-10-25T14:17:20.325Z</time>
      </trkpt>
      <trkpt lat="49.44872" lon="1.2368">
        <ele>146</ele>
        <time>2022-10-25T14:17:25.337Z</time>
      </trkpt>
      <trkpt lat="49.44871" lon="1.23674">
        <ele>146</ele>
        <time>2022-10-25T14:17:30.322Z</time>
      </trkpt>
      <trkpt lat="49.44869" lon="1.23666">
        <ele>146</ele>
        <time>2022-10-25T14:17:35.325Z</time>
      </trkpt>
      <trkpt lat="49.44867" lon="1.23661">
        <ele>146</ele>
        <time>2022-10-25T14:17:39.337Z</time>
      </trkpt>
      <trkpt lat="49.44864" lon="1.23655">
        <ele>146</ele>
        <time>2022-10-25T14:17:44.331Z</time>
      </trkpt>
      <trkpt lat="49.44861" lon="1.23649">
        <ele>146</ele>
        <time>2022-10-25T14:17:48.343Z</time>
      </trkpt>
      <trkpt lat="49.4486" lon="1.23641">
        <ele>146</ele>
        <time>2022-10-25T14:17:53.321Z</time>
      </trkpt>
      <trkpt lat="49.44859" lon="1.23632">
        <ele>146</ele>
        <time>2022-10-25T14:17:58.332Z</time>
      </trkpt>
      <trkpt lat="49.44858" lon="1.23624">
        <ele>147</ele>
        <time>2022-10-25T14:18:02.341Z</time>
      </trkpt>
      <trkpt lat="49.44857" lon="1.23615">
        <ele>147</ele>
        <time>2022-10-25T14:18:07.329Z</time>
      </trkpt>
      <trkpt lat="49.44855" lon="1.2361">
        <ele>147</ele>
        <time>2022-10-25T14:18:12.323Z</time>
      </trkpt>
      <trkpt lat="49.44854" lon="1.236">
        <ele>147</ele>
        <time>2022-10-25T14:18:17.351Z</time>
      </trkpt>
      <trkpt lat="49.44852" lon="1.23593">
        <ele>146</ele>
        <time>2022-10-25T14:18:22.334Z</time>
      </trkpt>
      <trkpt lat="49.44851" lon="1.23586">
        <ele>146</ele>
        <time>2022-10-25T14:18:26.322Z</time>
      </trkpt>
      <trkpt lat="49.44849" lon="1.23577">
        <ele>146</ele>
        <time>2022-10-25T14:18:31.302Z</time>
      </trkpt>
      <trkpt lat="49.44848" lon="1.23574">
        <ele>146</ele>
        <time>2022-10-25T14:18:35.318Z</time>
      </trkpt>
      <trkpt lat="49.44846" lon="1.23566">
        <ele>151</ele>
        <time>2022-10-25T14:18:40.310Z</time>
      </trkpt>
      <trkpt lat="49.44843" lon="1.23559">
        <ele>151</ele>
        <time>2022-10-25T14:18:45.327Z</time>
      </trkpt>
      <trkpt lat="49.44841" lon="1.23553">
        <ele>151</ele>
        <time>2022-10-25T14:18:50.313Z</time>
      </trkpt>
      <trkpt lat="49.4484" lon="1.23547">
        <ele>151</ele>
        <time>2022-10-25T14:18:54.330Z</time>
      </trkpt>
      <trkpt lat="49.44837" lon="1.23542">
        <ele>151</ele>
        <time>2022-10-25T14:18:58.330Z</time>
      </trkpt>
      <trkpt lat="49.44834" lon="1.23535">
        <ele>151</ele>
        <time>2022-10-25T14:19:03.335Z</time>
      </trkpt>
      <trkpt lat="49.44832" lon="1.23528">
        <ele>151</ele>
        <time>2022-10-25T14:19:08.335Z</time>
      </trkpt>
      <trkpt lat="49.4483" lon="1.23521">
        <ele>151</ele>
        <time>2022-10-25T14:19:13.302Z</time>
      </trkpt>
      <trkpt lat="49.44828" lon="1.23515">
        <ele>151</ele>
        <time>2022-10-25T14:19:17.324Z</time>
      </trkpt>
      <trkpt lat="49.44826" lon="1.23509">
        <ele>149</ele>
        <time>2022-10-25T14:19:22.341Z</time>
      </trkpt>
      <trkpt lat="49.44823" lon="1.23499">
        <ele>149</ele>
        <time>2022-10-25T14:19:27.332Z</time>
      </trkpt>
      <trkpt lat="49.4482" lon="1.23491">
        <ele>149</ele>
        <time>2022-10-25T14:19:32.324Z</time>
      </trkpt>
      <trkpt lat="49.44817" lon="1.23485">
        <ele>154</ele>
        <time>2022-10-25T14:19:36.338Z</time>
      </trkpt>
      <trkpt lat="49.44815" lon="1.2348">
        <ele>154</ele>
        <time>2022-10-25T14:19:40.343Z</time>
      </trkpt>
      <trkpt lat="49.44812" lon="1.23473">
        <ele>154</ele>
        <time>2022-10-25T14:19:45.333Z</time>
      </trkpt>
      <trkpt lat="49.4481" lon="1.23465">
        <ele>154</ele>
        <time>2022-10-25T14:19:50.299Z</time>
      </trkpt>
      <trkpt lat="49.44808" lon="1.23457">
        <ele>151</ele>
        <time>2022-10-25T14:19:54.308Z</time>
      </trkpt>
      <trkpt lat="49.44806" lon="1.23448">
        <ele>151</ele>
        <time>2022-10-25T14:19:58.303Z</time>
      </trkpt>
      <trkpt lat="49.44804" lon="1.23441">
        <ele>151</ele>
        <time>2022-10-25T14:20:02.336Z</time>
      </trkpt>
      <trkpt lat="49.44802" lon="1.23433">
        <ele>151</ele>
        <time>2022-10-25T14:20:07.309Z</time>
      </trkpt>
      <trkpt lat="49.448" lon="1.23423">
        <ele>149</ele>
        <time>2022-10-25T14:20:11.329Z</time>
      </trkpt>
      <trkpt lat="49.44797" lon="1.23413">
        <ele>149</ele>
        <time>2022-10-25T14:20:16.325Z</time>
      </trkpt>
      <trkpt lat="49.44794" lon="1.23404">
        <ele>149</ele>
        <time>2022-10-25T14:20:21.296Z</time>
      </trkpt>
      <trkpt lat="49.44792" lon="1.23397">
        <ele>148</ele>
        <time>2022-10-25T14:20:25.328Z</time>
      </trkpt>
      <trkpt lat="49.44789" lon="1.23392">
        <ele>150</ele>
        <time>2022-10-25T14:20:29.353Z</time>
      </trkpt>
      <trkpt lat="49.44787" lon="1.23386">
        <ele>150</ele>
        <time>2022-10-25T14:20:34.302Z</time>
      </trkpt>
      <trkpt lat="49.44785" lon="1.23378">
        <ele>150</ele>
        <time>2022-10-25T14:20:38.322Z</time>
      </trkpt>
      <trkpt lat="49.44784" lon="1.23368">
        <ele>149</ele>
        <time>2022-10-25T14:20:43.323Z</time>
      </trkpt>
      <trkpt lat="49.44783" lon="1.2336">
        <ele>149</ele>
        <time>2022-10-25T14:20:48.319Z</time>
      </trkpt>
      <trkpt lat="49.44781" lon="1.23352">
        <ele>149</ele>
        <time>2022-10-25T14:20:53.320Z</time>
      </trkpt>
      <trkpt lat="49.4478" lon="1.23344">
        <ele>149</ele>
        <time>2022-10-25T14:20:57.330Z</time>
      </trkpt>
      <trkpt lat="49.44779" lon="1.23336">
        <ele>149</ele>
        <time>2022-10-25T14:21:01.337Z</time>
      </trkpt>
      <trkpt lat="49.44778" lon="1.23327">
        <ele>149</ele>
        <time>2022-10-25T14:21:06.336Z</time>
      </trkpt>
      <trkpt lat="49.44778" lon="1.23327">
        <ele>149</ele>
        <time>2022-10-25T14:21:30.296Z</time>
      </trkpt>
      <trkpt lat="49.44777" lon="1.23328">
        <ele>149</ele>
        <time>2022-10-25T14:21:34.315Z</time>
      </trkpt>
      <trkpt lat="49.44777" lon="1.23324">
        <ele>149</ele>
        <time>2022-10-25T14:21:38.329Z</time>
      </trkpt>
      <trkpt lat="49.44776" lon="1.23317">
        <ele>149</ele>
        <time>2022-10-25T14:21:42.335Z</time>
      </trkpt>
      <trkpt lat="49.44775" lon="1.23312">
        <ele>149</ele>
        <time>2022-10-25T14:21:47.316Z</time>
      </trkpt>
      <trkpt lat="49.44774" lon="1.23303">
        <ele>149</ele>
        <time>2022-10-25T14:21:52.304Z</time>
      </trkpt>
      <trkpt lat="49.44772" lon="1.23294">
        <ele>149</ele>
        <time>2022-10-25T14:21:57.303Z</time>
      </trkpt>
      <trkpt lat="49.44771" lon="1.23288">
        <ele>149</ele>
        <time>2022-10-25T14:22:01.309Z</time>
      </trkpt>
      <trkpt lat="49.4477" lon="1.23281">
        <ele>149</ele>
        <time>2022-10-25T14:22:06.303Z</time>
      </trkpt>
      <trkpt lat="49.44769" lon="1.23274">
        <ele>149</ele>
        <time>2022-10-25T14:22:10.314Z</time>
      </trkpt>
      <trkpt lat="49.44768" lon="1.23266">
        <ele>149</ele>
        <time>2022-10-25T14:22:15.304Z</time>
      </trkpt>
      <trkpt lat="49.44767" lon="1.23256">
        <ele>148</ele>
        <time>2022-10-25T14:22:20.292Z</time>
      </trkpt>
      <trkpt lat="49.44765" lon="1.2325">
        <ele>148</ele>
        <time>2022-10-25T14:22:24.321Z</time>
      </trkpt>
      <trkpt lat="49.44763" lon="1.23242">
        <ele>148</ele>
        <time>2022-10-25T14:22:29.315Z</time>
      </trkpt>
      <trkpt lat="49.44761" lon="1.23233">
        <ele>148</ele>
        <time>2022-10-25T14:22:34.312Z</time>
      </trkpt>
      <trkpt lat="49.4476" lon="1.23224">
        <ele>148</ele>
        <time>2022-10-25T14:22:39.313Z</time>
      </trkpt>
      <trkpt lat="49.44759" lon="1.23215">
        <ele>148</ele>
        <time>2022-10-25T14:22:44.323Z</time>
      </trkpt>
      <trkpt lat="49.44757" lon="1.23209">
        <ele>148</ele>
        <time>2022-10-25T14:22:48.333Z</time>
      </trkpt>
      <trkpt lat="49.44755" lon="1.23201">
        <ele>148</ele>
        <time>2022-10-25T14:22:53.325Z</time>
      </trkpt>
      <trkpt lat="49.44753" lon="1.23192">
        <ele>148</ele>
        <time>2022-10-25T14:22:58.319Z</time>
      </trkpt>
      <trkpt lat="49.44751" lon="1.23184">
        <ele>148</ele>
        <time>2022-10-25T14:23:03.323Z</time>
      </trkpt>
      <trkpt lat="49.44748" lon="1.23177">
        <ele>148</ele>
        <time>2022-10-25T14:23:08.333Z</time>
      </trkpt>
      <trkpt lat="49.44748" lon="1.23168">
        <ele>148</ele>
        <time>2022-10-25T14:23:13.320Z</time>
      </trkpt>
      <trkpt lat="49.44746" lon="1.23162">
        <ele>148</ele>
        <time>2022-10-25T14:23:17.338Z</time>
      </trkpt>
      <trkpt lat="49.44743" lon="1.23155">
        <ele>148</ele>
        <time>2022-10-25T14:23:22.346Z</time>
      </trkpt>
      <trkpt lat="49.4474" lon="1.23148">
        <ele>148</ele>
        <time>2022-10-25T14:23:27.329Z</time>
      </trkpt>
      <trkpt lat="49.44737" lon="1.2314">
        <ele>148</ele>
        <time>2022-10-25T14:23:32.342Z</time>
      </trkpt>
      <trkpt lat="49.44735" lon="1.23133">
        <ele>148</ele>
        <time>2022-10-25T14:23:37.323Z</time>
      </trkpt>
      <trkpt lat="49.44733" lon="1.23128">
        <ele>148</ele>
        <time>2022-10-25T14:23:41.321Z</time>
      </trkpt>
      <trkpt lat="49.44731" lon="1.2312">
        <ele>148</ele>
        <time>2022-10-25T14:23:46.334Z</time>
      </trkpt>
      <trkpt lat="49.44728" lon="1.23112">
        <ele>148</ele>
        <time>2022-10-25T14:23:51.306Z</time>
      </trkpt>
      <trkpt lat="49.44727" lon="1.23108">
        <ele>148</ele>
        <time>2022-10-25T14:23:55.301Z</time>
      </trkpt>
      <trkpt lat="49.44725" lon="1.23102">
        <ele>148</ele>
        <time>2022-10-25T14:24:00.324Z</time>
      </trkpt>
      <trkpt lat="49.44725" lon="1.23095">
        <ele>148</ele>
        <time>2022-10-25T14:24:05.315Z</time>
      </trkpt>
      <trkpt lat="49.44724" lon="1.23087">
        <ele>148</ele>
        <time>2022-10-25T14:24:09.324Z</time>
      </trkpt>
      <trkpt lat="49.44721" lon="1.23078">
        <ele>148</ele>
        <time>2022-10-25T14:24:14.317Z</time>
      </trkpt>
      <trkpt lat="49.44719" lon="1.23073">
        <ele>148</ele>
        <time>2022-10-25T14:24:18.318Z</time>
      </trkpt>
      <trkpt lat="49.44716" lon="1.23067">
        <ele>148</ele>
        <time>2022-10-25T14:24:23.326Z</time>
      </trkpt>
      <trkpt lat="49.44713" lon="1.2306">
        <ele>148</ele>
        <time>2022-10-25T14:24:28.328Z</time>
      </trkpt>
      <trkpt lat="49.44711" lon="1.23052">
        <ele>148</ele>
        <time>2022-10-25T14:24:33.335Z</time>
      </trkpt>
      <trkpt lat="49.44709" lon="1.23045">
        <ele>148</ele>
        <time>2022-10-25T14:24:37.332Z</time>
      </trkpt>
      <trkpt lat="49.44705" lon="1.23037">
        <ele>147</ele>
        <time>2022-10-25T14:24:42.321Z</time>
      </trkpt>
      <trkpt lat="49.44703" lon="1.23031">
        <ele>147</ele>
        <time>2022-10-25T14:24:46.338Z</time>
      </trkpt>
      <trkpt lat="49.447" lon="1.23023">
        <ele>147</ele>
        <time>2022-10-25T14:24:51.303Z</time>
      </trkpt>
      <trkpt lat="49.44697" lon="1.23017">
        <ele>147</ele>
        <time>2022-10-25T14:24:55.322Z</time>
      </trkpt>
      <trkpt lat="49.44695" lon="1.23011">
        <ele>147</ele>
        <time>2022-10-25T14:24:59.338Z</time>
      </trkpt>
      <trkpt lat="49.44692" lon="1.23005">
        <ele>147</ele>
        <time>2022-10-25T14:25:03.333Z</time>
      </trkpt>
      <trkpt lat="49.4469" lon="1.22996">
        <ele>147</ele>
        <time>2022-10-25T14:25:08.326Z</time>
      </trkpt>
      <trkpt lat="49.44688" lon="1.22988">
        <ele>147</ele>
        <time>2022-10-25T14:25:13.315Z</time>
      </trkpt>
      <trkpt lat="49.44685" lon="1.22982">
        <ele>147</ele>
        <time>2022-10-25T14:25:17.321Z</time>
      </trkpt>
      <trkpt lat="49.44683" lon="1.22976">
        <ele>147</ele>
        <time>2022-10-25T14:25:21.318Z</time>
      </trkpt>
      <trkpt lat="49.4468" lon="1.22967">
        <ele>147</ele>
        <time>2022-10-25T14:25:26.296Z</time>
      </trkpt>
      <trkpt lat="49.44678" lon="1.2296">
        <ele>147</ele>
        <time>2022-10-25T14:25:30.329Z</time>
      </trkpt>
      <trkpt lat="49.44676" lon="1.22952">
        <ele>147</ele>
        <time>2022-10-25T14:25:35.321Z</time>
      </trkpt>
      <trkpt lat="49.44674" lon="1.22946">
        <ele>147</ele>
        <time>2022-10-25T14:25:39.343Z</time>
      </trkpt>
      <trkpt lat="49.44671" lon="1.22938">
        <ele>147</ele>
        <time>2022-10-25T14:25:44.344Z</time>
      </trkpt>
      <trkpt lat="49.44669" lon="1.2293">
        <ele>147</ele>
        <time>2022-10-25T14:25:49.312Z</time>
      </trkpt>
      <trkpt lat="49.44668" lon="1.22926">
        <ele>147</ele>
        <time>2022-10-25T14:25:53.319Z</time>
      </trkpt>
      <trkpt lat="49.44666" lon="1.22919">
        <ele>147</ele>
        <time>2022-10-25T14:25:57.330Z</time>
      </trkpt>
      <trkpt lat="49.44664" lon="1.22909">
        <ele>147</ele>
        <time>2022-10-25T14:26:02.319Z</time>
      </trkpt>
      <trkpt lat="49.44663" lon="1.22905">
        <ele>147</ele>
        <time>2022-10-25T14:26:06.331Z</time>
      </trkpt>
      <trkpt lat="49.44661" lon="1.229">
        <ele>148</ele>
        <time>2022-10-25T14:26:11.320Z</time>
      </trkpt>
      <trkpt lat="49.4466" lon="1.22895">
        <ele>148</ele>
        <time>2022-10-25T14:26:15.338Z</time>
      </trkpt>
      <trkpt lat="49.44659" lon="1.22888">
        <ele>148</ele>
        <time>2022-10-25T14:26:19.332Z</time>
      </trkpt>
      <trkpt lat="49.44655" lon="1.2288">
        <ele>148</ele>
        <time>2022-10-25T14:26:24.327Z</time>
      </trkpt>
      <trkpt lat="49.44653" lon="1.22872">
        <ele>148</ele>
        <time>2022-10-25T14:26:29.302Z</time>
      </trkpt>
      <trkpt lat="49.44652" lon="1.22865">
        <ele>148</ele>
        <time>2022-10-25T14:26:33.331Z</time>
      </trkpt>
      <trkpt lat="49.44652" lon="1.22858">
        <ele>148</ele>
        <time>2022-10-25T14:26:38.336Z</time>
      </trkpt>
      <trkpt lat="49.4465" lon="1.22849">
        <ele>148</ele>
        <time>2022-10-25T14:26:43.331Z</time>
      </trkpt>
      <trkpt lat="49.44649" lon="1.22841">
        <ele>149</ele>
        <time>2022-10-25T14:26:48.338Z</time>
      </trkpt>
      <trkpt lat="49.44648" lon="1.22834">
        <ele>149</ele>
        <time>2022-10-25T14:26:53.328Z</time>
      </trkpt>
      <trkpt lat="49.44647" lon="1.22826">
        <ele>149</ele>
        <time>2022-10-25T14:26:58.355Z</time>
      </trkpt>
      <trkpt lat="49.44646" lon="1.22817">
        <ele>149</ele>
        <time>2022-10-25T14:27:03.323Z</time>
      </trkpt>
      <trkpt lat="49.44644" lon="1.2281">
        <ele>149</ele>
        <time>2022-10-25T14:27:07.334Z</time>
      </trkpt>
      <trkpt lat="49.44642" lon="1.22803">
        <ele>149</ele>
        <time>2022-10-25T14:27:12.334Z</time>
      </trkpt>
      <trkpt lat="49.44641" lon="1.22797">
        <ele>149</ele>
        <time>2022-10-25T14:27:16.331Z</time>
      </trkpt>
      <trkpt lat="49.44639" lon="1.22788">
        <ele>149</ele>
        <time>2022-10-25T14:27:21.359Z</time>
      </trkpt>
      <trkpt lat="49.44636" lon="1.22778">
        <ele>149</ele>
        <time>2022-10-25T14:27:26.335Z</time>
      </trkpt>
      <trkpt lat="49.44636" lon="1.22769">
        <ele>149</ele>
        <time>2022-10-25T14:27:31.328Z</time>
      </trkpt>
      <trkpt lat="49.44633" lon="1.22763">
        <ele>149</ele>
        <time>2022-10-25T14:27:35.330Z</time>
      </trkpt>
      <trkpt lat="49.44631" lon="1.22755">
        <ele>149</ele>
        <time>2022-10-25T14:27:40.340Z</time>
      </trkpt>
      <trkpt lat="49.44629" lon="1.22746">
        <ele>149</ele>
        <time>2022-10-25T14:27:45.337Z</time>
      </trkpt>
      <trkpt lat="49.44627" lon="1.22737">
        <ele>149</ele>
        <time>2022-10-25T14:27:50.328Z</time>
      </trkpt>
      <trkpt lat="49.44626" lon="1.22731">
        <ele>149</ele>
        <time>2022-10-25T14:27:55.342Z</time>
      </trkpt>
      <trkpt lat="49.44625" lon="1.22723">
        <ele>149</ele>
        <time>2022-10-25T14:28:00.317Z</time>
      </trkpt>
      <trkpt lat="49.44623" lon="1.22714">
        <ele>148</ele>
        <time>2022-10-25T14:28:05.340Z</time>
      </trkpt>
      <trkpt lat="49.44622" lon="1.22708">
        <ele>148</ele>
        <time>2022-10-25T14:28:10.345Z</time>
      </trkpt>
      <trkpt lat="49.44619" lon="1.22699">
        <ele>148</ele>
        <time>2022-10-25T14:28:15.325Z</time>
      </trkpt>
      <trkpt lat="49.44618" lon="1.22693">
        <ele>148</ele>
        <time>2022-10-25T14:28:19.323Z</time>
      </trkpt>
      <trkpt lat="49.44616" lon="1.22686">
        <ele>148</ele>
        <time>2022-10-25T14:28:23.347Z</time>
      </trkpt>
      <trkpt lat="49.44614" lon="1.22677">
        <ele>148</ele>
        <time>2022-10-25T14:28:28.328Z</time>
      </trkpt>
      <trkpt lat="49.44612" lon="1.22668">
        <ele>148</ele>
        <time>2022-10-25T14:28:33.326Z</time>
      </trkpt>
      <trkpt lat="49.44611" lon="1.22661">
        <ele>148</ele>
        <time>2022-10-25T14:28:38.323Z</time>
      </trkpt>
      <trkpt lat="49.4461" lon="1.22652">
        <ele>149</ele>
        <time>2022-10-25T14:28:43.313Z</time>
      </trkpt>
      <trkpt lat="49.4461" lon="1.22645">
        <ele>149</ele>
        <time>2022-10-25T14:28:47.326Z</time>
      </trkpt>
      <trkpt lat="49.44609" lon="1.22637">
        <ele>149</ele>
        <time>2022-10-25T14:28:51.331Z</time>
      </trkpt>
      <trkpt lat="49.44607" lon="1.2263">
        <ele>149</ele>
        <time>2022-10-25T14:28:56.312Z</time>
      </trkpt>
      <trkpt lat="49.44606" lon="1.22622">
        <ele>149</ele>
        <time>2022-10-25T14:29:01.336Z</time>
      </trkpt>
      <trkpt lat="49.44605" lon="1.22613">
        <ele>149</ele>
        <time>2022-10-25T14:29:06.320Z</time>
      </trkpt>
      <trkpt lat="49.44604" lon="1.22604">
        <ele>149</ele>
        <time>2022-10-25T14:29:11.317Z</time>
      </trkpt>
      <trkpt lat="49.44605" lon="1.22596">
        <ele>148</ele>
        <time>2022-10-25T14:29:16.311Z</time>
      </trkpt>
      <trkpt lat="49.44604" lon="1.22586">
        <ele>148</ele>
        <time>2022-10-25T14:29:21.322Z</time>
      </trkpt>
      <trkpt lat="49.44603" lon="1.22577">
        <ele>148</ele>
        <time>2022-10-25T14:29:26.301Z</time>
      </trkpt>
      <trkpt lat="49.44601" lon="1.2257">
        <ele>148</ele>
        <time>2022-10-25T14:29:30.300Z</time>
      </trkpt>
      <trkpt lat="49.446" lon="1.22562">
        <ele>148</ele>
        <time>2022-10-25T14:29:34.318Z</time>
      </trkpt>
      <trkpt lat="49.44598" lon="1.22553">
        <ele>148</ele>
        <time>2022-10-25T14:29:39.302Z</time>
      </trkpt>
      <trkpt lat="49.44597" lon="1.22544">
        <ele>148</ele>
        <time>2022-10-25T14:29:43.354Z</time>
      </trkpt>
      <trkpt lat="49.44597" lon="1.22535">
        <ele>147</ele>
        <time>2022-10-25T14:29:48.322Z</time>
      </trkpt>
      <trkpt lat="49.44597" lon="1.22527">
        <ele>147</ele>
        <time>2022-10-25T14:29:53.332Z</time>
      </trkpt>
      <trkpt lat="49.44595" lon="1.2252">
        <ele>147</ele>
        <time>2022-10-25T14:29:57.358Z</time>
      </trkpt>
      <trkpt lat="49.44594" lon="1.22511">
        <ele>148</ele>
        <time>2022-10-25T14:30:02.315Z</time>
      </trkpt>
      <trkpt lat="49.44592" lon="1.22504">
        <ele>148</ele>
        <time>2022-10-25T14:30:06.329Z</time>
      </trkpt>
      <trkpt lat="49.44589" lon="1.22497">
        <ele>148</ele>
        <time>2022-10-25T14:30:11.325Z</time>
      </trkpt>
      <trkpt lat="49.44583" lon="1.22497">
        <ele>148</ele>
        <time>2022-10-25T14:30:16.321Z</time>
      </trkpt>
      <trkpt lat="49.44577" lon="1.225">
        <ele>148</ele>
        <time>2022-10-25T14:30:21.308Z</time>
      </trkpt>
      <trkpt lat="49.44573" lon="1.22501">
        <ele>148</ele>
        <time>2022-10-25T14:30:25.339Z</time>
      </trkpt>
      <trkpt lat="49.44567" lon="1.22504">
        <ele>148</ele>
        <time>2022-10-25T14:30:30.329Z</time>
      </trkpt>
      <trkpt lat="49.44562" lon="1.22506">
        <ele>148</ele>
        <time>2022-10-25T14:30:35.335Z</time>
      </trkpt>
      <trkpt lat="49.44556" lon="1.22506">
        <ele>148</ele>
        <time>2022-10-25T14:30:40.328Z</time>
      </trkpt>
      <trkpt lat="49.44551" lon="1.22509">
        <ele>148</ele>
        <time>2022-10-25T14:30:45.330Z</time>
      </trkpt>
      <trkpt lat="49.44546" lon="1.2251">
        <ele>148</ele>
        <time>2022-10-25T14:30:49.327Z</time>
      </trkpt>
      <trkpt lat="49.44542" lon="1.22512">
        <ele>148</ele>
        <time>2022-10-25T14:30:53.331Z</time>
      </trkpt>
      <trkpt lat="49.44537" lon="1.22515">
        <ele>146</ele>
        <time>2022-10-25T14:30:57.351Z</time>
      </trkpt>
      <trkpt lat="49.44531" lon="1.22518">
        <ele>146</ele>
        <time>2022-10-25T14:31:02.296Z</time>
      </trkpt>
      <trkpt lat="49.44525" lon="1.22521">
        <ele>146</ele>
        <time>2022-10-25T14:31:06.308Z</time>
      </trkpt>
      <trkpt lat="49.44519" lon="1.22524">
        <ele>146</ele>
        <time>2022-10-25T14:31:11.343Z</time>
      </trkpt>
      <trkpt lat="49.44513" lon="1.22526">
        <ele>146</ele>
        <time>2022-10-25T14:31:16.317Z</time>
      </trkpt>
      <trkpt lat="49.44507" lon="1.2253">
        <ele>146</ele>
        <time>2022-10-25T14:31:21.324Z</time>
      </trkpt>
      <trkpt lat="49.445" lon="1.22533">
        <ele>146</ele>
        <time>2022-10-25T14:31:26.311Z</time>
      </trkpt>
      <trkpt lat="49.44495" lon="1.22534">
        <ele>146</ele>
        <time>2022-10-25T14:31:30.308Z</time>
      </trkpt>
      <trkpt lat="49.4449" lon="1.22535">
        <ele>146</ele>
        <time>2022-10-25T14:31:35.315Z</time>
      </trkpt>
      <trkpt lat="49.44486" lon="1.22539">
        <ele>146</ele>
        <time>2022-10-25T14:31:39.322Z</time>
      </trkpt>
      <trkpt lat="49.44481" lon="1.22541">
        <ele>146</ele>
        <time>2022-10-25T14:31:43.318Z</time>
      </trkpt>
      <trkpt lat="49.44466" lon="1.22549">
        <ele>146</ele>
        <time>2022-10-25T14:32:02.301Z</time>
      </trkpt>
      <trkpt lat="49.44466" lon="1.22549">
        <ele>146</ele>
        <time>2022-10-25T14:32:06.334Z</time>
      </trkpt>
      <trkpt lat="49.44463" lon="1.2255">
        <ele>146</ele>
        <time>2022-10-25T14:32:11.339Z</time>
      </trkpt>
      <trkpt lat="49.44456" lon="1.22552">
        <ele>146</ele>
        <time>2022-10-25T14:32:16.300Z</time>
      </trkpt>
      <trkpt lat="49.44452" lon="1.22554">
        <ele>146</ele>
        <time>2022-10-25T14:32:20.327Z</time>
      </trkpt>
      <trkpt lat="49.44448" lon="1.22555">
        <ele>146</ele>
        <time>2022-10-25T14:32:24.333Z</time>
      </trkpt>
      <trkpt lat="49.44443" lon="1.22557">
        <ele>146</ele>
        <time>2022-10-25T14:32:28.339Z</time>
      </trkpt>
      <trkpt lat="49.44437" lon="1.2256">
        <ele>146</ele>
        <time>2022-10-25T14:32:33.338Z</time>
      </trkpt>
      <trkpt lat="49.44434" lon="1.22563">
        <ele>146</ele>
        <time>2022-10-25T14:32:37.332Z</time>
      </trkpt>
      <trkpt lat="49.44429" lon="1.22566">
        <ele>145</ele>
        <time>2022-10-25T14:32:42.319Z</time>
      </trkpt>
      <trkpt lat="49.44425" lon="1.22568">
        <ele>145</ele>
        <time>2022-10-25T14:32:46.344Z</time>
      </trkpt>
      <trkpt lat="49.44419" lon="1.22569">
        <ele>145</ele>
        <time>2022-10-25T14:32:51.324Z</time>
      </trkpt>
      <trkpt lat="49.44413" lon="1.22571">
        <ele>145</ele>
        <time>2022-10-25T14:32:56.325Z</time>
      </trkpt>
      <trkpt lat="49.44407" lon="1.22574">
        <ele>145</ele>
        <time>2022-10-25T14:33:01.325Z</time>
      </trkpt>
      <trkpt lat="49.44402" lon="1.22576">
        <ele>146</ele>
        <time>2022-10-25T14:33:05.349Z</time>
      </trkpt>
      <trkpt lat="49.44396" lon="1.22576">
        <ele>146</ele>
        <time>2022-10-25T14:33:10.318Z</time>
      </trkpt>
      <trkpt lat="49.44394" lon="1.22578">
        <ele>146</ele>
        <time>2022-10-25T14:33:14.344Z</time>
      </trkpt>
      <trkpt lat="49.44391" lon="1.22581">
        <ele>146</ele>
        <time>2022-10-25T14:33:19.343Z</time>
      </trkpt>
      <trkpt lat="49.44385" lon="1.22585">
        <ele>146</ele>
        <time>2022-10-25T14:33:24.336Z</time>
      </trkpt>
      <trkpt lat="49.44379" lon="1.22588">
        <ele>146</ele>
        <time>2022-10-25T14:33:29.310Z</time>
      </trkpt>
      <trkpt lat="49.44374" lon="1.2259">
        <ele>147</ele>
        <time>2022-10-25T14:33:33.324Z</time>
      </trkpt>
      <trkpt lat="49.44362" lon="1.22592">
        <ele>147</ele>
        <time>2022-10-25T14:33:51.318Z</time>
      </trkpt>
      <trkpt lat="49.44362" lon="1.22592">
        <ele>147</ele>
        <time>2022-10-25T14:33:55.331Z</time>
      </trkpt>
      <trkpt lat="49.44359" lon="1.22594">
        <ele>147</ele>
        <time>2022-10-25T14:34:00.294Z</time>
      </trkpt>
      <trkpt lat="49.44357" lon="1.22594">
        <ele>147</ele>
        <time>2022-10-25T14:34:04.320Z</time>
      </trkpt>
      <trkpt lat="49.44354" lon="1.22596">
        <ele>147</ele>
        <time>2022-10-25T14:34:08.346Z</time>
      </trkpt>
      <trkpt lat="49.44348" lon="1.22597">
        <ele>147</ele>
        <time>2022-10-25T14:34:13.303Z</time>
      </trkpt>
      <trkpt lat="49.44345" lon="1.226">
        <ele>147</ele>
        <time>2022-10-25T14:34:17.339Z</time>
      </trkpt>
      <trkpt lat="49.44339" lon="1.22603">
        <ele>147</ele>
        <time>2022-10-25T14:34:22.331Z</time>
      </trkpt>
      <trkpt lat="49.44332" lon="1.22606">
        <ele>147</ele>
        <time>2022-10-25T14:34:27.316Z</time>
      </trkpt>
      <trkpt lat="49.44327" lon="1.22608">
        <ele>147</ele>
        <time>2022-10-25T14:34:32.321Z</time>
      </trkpt>
      <trkpt lat="49.44322" lon="1.2261">
        <ele>147</ele>
        <time>2022-10-25T14:34:36.347Z</time>
      </trkpt>
      <trkpt lat="49.44315" lon="1.22614">
        <ele>146</ele>
        <time>2022-10-25T14:34:41.336Z</time>
      </trkpt>
      <trkpt lat="49.44308" lon="1.22614">
        <ele>146</ele>
        <time>2022-10-25T14:34:46.340Z</time>
      </trkpt>
      <trkpt lat="49.44303" lon="1.22617">
        <ele>146</ele>
        <time>2022-10-25T14:34:50.346Z</time>
      </trkpt>
      <trkpt lat="49.44297" lon="1.2262">
        <ele>146</ele>
        <time>2022-10-25T14:34:55.345Z</time>
      </trkpt>
      <trkpt lat="49.44291" lon="1.22623">
        <ele>147</ele>
        <time>2022-10-25T14:35:00.298Z</time>
      </trkpt>
      <trkpt lat="49.44286" lon="1.22626">
        <ele>147</ele>
        <time>2022-10-25T14:35:04.336Z</time>
      </trkpt>
      <trkpt lat="49.4428" lon="1.2263">
        <ele>147</ele>
        <time>2022-10-25T14:35:09.348Z</time>
      </trkpt>
      <trkpt lat="49.44275" lon="1.22633">
        <ele>147</ele>
        <time>2022-10-25T14:35:14.334Z</time>
      </trkpt>
      <trkpt lat="49.44269" lon="1.22637">
        <ele>147</ele>
        <time>2022-10-25T14:35:19.332Z</time>
      </trkpt>
      <trkpt lat="49.44263" lon="1.2264">
        <ele>149</ele>
        <time>2022-10-25T14:35:24.332Z</time>
      </trkpt>
      <trkpt lat="49.44258" lon="1.22646">
        <ele>149</ele>
        <time>2022-10-25T14:35:29.331Z</time>
      </trkpt>
      <trkpt lat="49.44253" lon="1.2265">
        <ele>149</ele>
        <time>2022-10-25T14:35:34.320Z</time>
      </trkpt>
      <trkpt lat="49.44248" lon="1.22655">
        <ele>149</ele>
        <time>2022-10-25T14:35:39.351Z</time>
      </trkpt>
      <trkpt lat="49.44242" lon="1.22658">
        <ele>149</ele>
        <time>2022-10-25T14:35:44.338Z</time>
      </trkpt>
      <trkpt lat="49.44237" lon="1.2266">
        <ele>149</ele>
        <time>2022-10-25T14:35:49.326Z</time>
      </trkpt>
      <trkpt lat="49.44233" lon="1.22662">
        <ele>151</ele>
        <time>2022-10-25T14:35:53.339Z</time>
      </trkpt>
      <trkpt lat="49.44228" lon="1.22665">
        <ele>151</ele>
        <time>2022-10-25T14:35:58.327Z</time>
      </trkpt>
      <trkpt lat="49.44222" lon="1.2267">
        <ele>151</ele>
        <time>2022-10-25T14:36:03.300Z</time>
      </trkpt>
      <trkpt lat="49.44218" lon="1.22672">
        <ele>151</ele>
        <time>2022-10-25T14:36:07.322Z</time>
      </trkpt>
      <trkpt lat="49.44212" lon="1.22677">
        <ele>151</ele>
        <time>2022-10-25T14:36:12.332Z</time>
      </trkpt>
      <trkpt lat="49.44205" lon="1.22682">
        <ele>150</ele>
        <time>2022-10-25T14:36:17.329Z</time>
      </trkpt>
      <trkpt lat="49.442" lon="1.22685">
        <ele>150</ele>
        <time>2022-10-25T14:36:22.335Z</time>
      </trkpt>
      <trkpt lat="49.44195" lon="1.22687">
        <ele>150</ele>
        <time>2022-10-25T14:36:27.320Z</time>
      </trkpt>
      <trkpt lat="49.44192" lon="1.22688">
        <ele>150</ele>
        <time>2022-10-25T14:36:31.324Z</time>
      </trkpt>
      <trkpt lat="49.44188" lon="1.2269">
        <ele>150</ele>
        <time>2022-10-25T14:36:35.342Z</time>
      </trkpt>
      <trkpt lat="49.44183" lon="1.22695">
        <ele>150</ele>
        <time>2022-10-25T14:36:40.316Z</time>
      </trkpt>
      <trkpt lat="49.44178" lon="1.22699">
        <ele>151</ele>
        <time>2022-10-25T14:36:45.299Z</time>
      </trkpt>
      <trkpt lat="49.44175" lon="1.22701">
        <ele>151</ele>
        <time>2022-10-25T14:36:49.350Z</time>
      </trkpt>
      <trkpt lat="49.44171" lon="1.22703">
        <ele>151</ele>
        <time>2022-10-25T14:36:54.341Z</time>
      </trkpt>
      <trkpt lat="49.44164" lon="1.2271">
        <ele>150</ele>
        <time>2022-10-25T14:36:59.328Z</time>
      </trkpt>
      <trkpt lat="49.44157" lon="1.22714">
        <ele>150</ele>
        <time>2022-10-25T14:37:04.310Z</time>
      </trkpt>
      <trkpt lat="49.4415" lon="1.2272">
        <ele>151</ele>
        <time>2022-10-25T14:37:09.307Z</time>
      </trkpt>
      <trkpt lat="49.44144" lon="1.22725">
        <ele>151</ele>
        <time>2022-10-25T14:37:13.319Z</time>
      </trkpt>
      <trkpt lat="49.44137" lon="1.22731">
        <ele>151</ele>
        <time>2022-10-25T14:37:18.304Z</time>
      </trkpt>
      <trkpt lat="49.44132" lon="1.22735">
        <ele>151</ele>
        <time>2022-10-25T14:37:22.298Z</time>
      </trkpt>
      <trkpt lat="49.44128" lon="1.22738">
        <ele>150</ele>
        <time>2022-10-25T14:37:26.310Z</time>
      </trkpt>
      <trkpt lat="49.44124" lon="1.22741">
        <ele>150</ele>
        <time>2022-10-25T14:37:30.309Z</time>
      </trkpt>
      <trkpt lat="49.44118" lon="1.22745">
        <ele>150</ele>
        <time>2022-10-25T14:37:35.318Z</time>
      </trkpt>
      <trkpt lat="49.44114" lon="1.22749">
        <ele>150</ele>
        <time>2022-10-25T14:37:39.326Z</time>
      </trkpt>
      <trkpt lat="49.44109" lon="1.22752">
        <ele>150</ele>
        <time>2022-10-25T14:37:44.306Z</time>
      </trkpt>
      <trkpt lat="49.44105" lon="1.22755">
        <ele>150</ele>
        <time>2022-10-25T14:37:48.313Z</time>
      </trkpt>
      <trkpt lat="49.441" lon="1.22758">
        <ele>150</ele>
        <time>2022-10-25T14:37:52.318Z</time>
      </trkpt>
      <trkpt lat="49.44096" lon="1.22761">
        <ele>151</ele>
        <time>2022-10-25T14:37:56.317Z</time>
      </trkpt>
      <trkpt lat="49.4409" lon="1.22765">
        <ele>150</ele>
        <time>2022-10-25T14:38:01.344Z</time>
      </trkpt>
      <trkpt lat="49.44085" lon="1.22768">
        <ele>150</ele>
        <time>2022-10-25T14:38:06.344Z</time>
      </trkpt>
      <trkpt lat="49.4408" lon="1.22773">
        <ele>150</ele>
        <time>2022-10-25T14:38:11.298Z</time>
      </trkpt>
      <trkpt lat="49.44075" lon="1.22776">
        <ele>150</ele>
        <time>2022-10-25T14:38:15.337Z</time>
      </trkpt>
      <trkpt lat="49.4407" lon="1.2278">
        <ele>150</ele>
        <time>2022-10-25T14:38:20.332Z</time>
      </trkpt>
      <trkpt lat="49.44065" lon="1.22783">
        <ele>151</ele>
        <time>2022-10-25T14:38:25.298Z</time>
      </trkpt>
      <trkpt lat="49.44061" lon="1.22786">
        <ele>151</ele>
        <time>2022-10-25T14:38:29.316Z</time>
      </trkpt>
      <trkpt lat="49.44057" lon="1.2279">
        <ele>151</ele>
        <time>2022-10-25T14:38:33.324Z</time>
      </trkpt>
      <trkpt lat="49.44051" lon="1.22792">
        <ele>150</ele>
        <time>2022-10-25T14:38:38.318Z</time>
      </trkpt>
      <trkpt lat="49.44047" lon="1.22794">
        <ele>150</ele>
        <time>2022-10-25T14:38:42.331Z</time>
      </trkpt>
      <trkpt lat="49.44041" lon="1.22799">
        <ele>150</ele>
        <time>2022-10-25T14:38:47.328Z</time>
      </trkpt>
      <trkpt lat="49.44037" lon="1.22801">
        <ele>150</ele>
        <time>2022-10-25T14:38:51.341Z</time>
      </trkpt>
      <trkpt lat="49.44032" lon="1.22805">
        <ele>150</ele>
        <time>2022-10-25T14:38:56.323Z</time>
      </trkpt>
      <trkpt lat="49.44027" lon="1.22808">
        <ele>150</ele>
        <time>2022-10-25T14:39:00.337Z</time>
      </trkpt>
      <trkpt lat="49.44022" lon="1.22812">
        <ele>150</ele>
        <time>2022-10-25T14:39:05.321Z</time>
      </trkpt>
      <trkpt lat="49.44017" lon="1.22815">
        <ele>150</ele>
        <time>2022-10-25T14:39:09.352Z</time>
      </trkpt>
      <trkpt lat="49.44012" lon="1.22818">
        <ele>150</ele>
        <time>2022-10-25T14:39:14.339Z</time>
      </trkpt>
      <trkpt lat="49.44005" lon="1.22823">
        <ele>149</ele>
        <time>2022-10-25T14:39:19.339Z</time>
      </trkpt>
      <trkpt lat="49.44" lon="1.22827">
        <ele>149</ele>
        <time>2022-10-25T14:39:23.357Z</time>
      </trkpt>
      <trkpt lat="49.43995" lon="1.22831">
        <ele>149</ele>
        <time>2022-10-25T14:39:28.297Z</time>
      </trkpt>
      <trkpt lat="49.43991" lon="1.22832">
        <ele>149</ele>
        <time>2022-10-25T14:39:32.316Z</time>
      </trkpt>
      <trkpt lat="49.43986" lon="1.22835">
        <ele>149</ele>
        <time>2022-10-25T14:39:36.316Z</time>
      </trkpt>
      <trkpt lat="49.43981" lon="1.22838">
        <ele>150</ele>
        <time>2022-10-25T14:39:41.314Z</time>
      </trkpt>
      <trkpt lat="49.43976" lon="1.22843">
        <ele>150</ele>
        <time>2022-10-25T14:39:46.312Z</time>
      </trkpt>
      <trkpt lat="49.43971" lon="1.22846">
        <ele>150</ele>
        <time>2022-10-25T14:39:50.314Z</time>
      </trkpt>
      <trkpt lat="49.43966" lon="1.2285">
        <ele>150</ele>
        <time>2022-10-25T14:39:55.328Z</time>
      </trkpt>
      <trkpt lat="49.43961" lon="1.22854">
        <ele>150</ele>
        <time>2022-10-25T14:40:00.311Z</time>
      </trkpt>
      <trkpt lat="49.43956" lon="1.22857">
        <ele>152</ele>
        <time>2022-10-25T14:40:05.301Z</time>
      </trkpt>
      <trkpt lat="49.43953" lon="1.22859">
        <ele>152</ele>
        <time>2022-10-25T14:40:09.347Z</time>
      </trkpt>
      <trkpt lat="49.43948" lon="1.22862">
        <ele>152</ele>
        <time>2022-10-25T14:40:14.342Z</time>
      </trkpt>
      <trkpt lat="49.43943" lon="1.22866">
        <ele>152</ele>
        <time>2022-10-25T14:40:19.317Z</time>
      </trkpt>
      <trkpt lat="49.4394" lon="1.22868">
        <ele>152</ele>
        <time>2022-10-25T14:40:23.325Z</time>
      </trkpt>
      <trkpt lat="49.43936" lon="1.22872">
        <ele>152</ele>
        <time>2022-10-25T14:40:28.300Z</time>
      </trkpt>
      <trkpt lat="49.43932" lon="1.22876">
        <ele>153</ele>
        <time>2022-10-25T14:40:32.321Z</time>
      </trkpt>
      <trkpt lat="49.43929" lon="1.22878">
        <ele>153</ele>
        <time>2022-10-25T14:40:36.334Z</time>
      </trkpt>
      <trkpt lat="49.43924" lon="1.22881">
        <ele>153</ele>
        <time>2022-10-25T14:40:40.334Z</time>
      </trkpt>
      <trkpt lat="49.4392" lon="1.22886">
        <ele>153</ele>
        <time>2022-10-25T14:40:45.311Z</time>
      </trkpt>
      <trkpt lat="49.43915" lon="1.2289">
        <ele>153</ele>
        <time>2022-10-25T14:40:49.332Z</time>
      </trkpt>
      <trkpt lat="49.4391" lon="1.22893">
        <ele>153</ele>
        <time>2022-10-25T14:40:53.334Z</time>
      </trkpt>
      <trkpt lat="49.43905" lon="1.22896">
        <ele>153</ele>
        <time>2022-10-25T14:40:58.315Z</time>
      </trkpt>
      <trkpt lat="49.439" lon="1.229">
        <ele>152</ele>
        <time>2022-10-25T14:41:03.341Z</time>
      </trkpt>
      <trkpt lat="49.43895" lon="1.22903">
        <ele>152</ele>
        <time>2022-10-25T14:41:08.327Z</time>
      </trkpt>
      <trkpt lat="49.4389" lon="1.22905">
        <ele>152</ele>
        <time>2022-10-25T14:41:13.334Z</time>
      </trkpt>
      <trkpt lat="49.43884" lon="1.22906">
        <ele>152</ele>
        <time>2022-10-25T14:41:18.311Z</time>
      </trkpt>
      <trkpt lat="49.4388" lon="1.2291">
        <ele>152</ele>
        <time>2022-10-25T14:41:22.320Z</time>
      </trkpt>
      <trkpt lat="49.43876" lon="1.22914">
        <ele>152</ele>
        <time>2022-10-25T14:41:27.330Z</time>
      </trkpt>
      <trkpt lat="49.43871" lon="1.2292">
        <ele>151</ele>
        <time>2022-10-25T14:41:32.342Z</time>
      </trkpt>
      <trkpt lat="49.43867" lon="1.2293">
        <ele>151</ele>
        <time>2022-10-25T14:41:37.329Z</time>
      </trkpt>
      <trkpt lat="49.43866" lon="1.2294">
        <ele>150</ele>
        <time>2022-10-25T14:41:42.318Z</time>
      </trkpt>
      <trkpt lat="49.43868" lon="1.22947">
        <ele>150</ele>
        <time>2022-10-25T14:41:46.297Z</time>
      </trkpt>
      <trkpt lat="49.43867" lon="1.22955">
        <ele>150</ele>
        <time>2022-10-25T14:41:51.312Z</time>
      </trkpt>
      <trkpt lat="49.43868" lon="1.22963">
        <ele>150</ele>
        <time>2022-10-25T14:41:56.311Z</time>
      </trkpt>
      <trkpt lat="49.43869" lon="1.22972">
        <ele>150</ele>
        <time>2022-10-25T14:42:01.314Z</time>
      </trkpt>
      <trkpt lat="49.43868" lon="1.22981">
        <ele>150</ele>
        <time>2022-10-25T14:42:05.324Z</time>
      </trkpt>
      <trkpt lat="49.43867" lon="1.22986">
        <ele>150</ele>
        <time>2022-10-25T14:42:10.324Z</time>
      </trkpt>
      <trkpt lat="49.43866" lon="1.22985">
        <ele>150</ele>
        <time>2022-10-25T14:42:19.322Z</time>
      </trkpt>
      <trkpt lat="49.43866" lon="1.22985">
        <ele>150</ele>
        <time>2022-10-25T14:42:23.328Z</time>
      </trkpt>
      <trkpt lat="49.43866" lon="1.2299">
        <ele>151</ele>
        <time>2022-10-25T14:42:28.312Z</time>
      </trkpt>
      <trkpt lat="49.43865" lon="1.22995">
        <ele>151</ele>
        <time>2022-10-25T14:42:32.320Z</time>
      </trkpt>
      <trkpt lat="49.43864" lon="1.23002">
        <ele>151</ele>
        <time>2022-10-25T14:42:36.324Z</time>
      </trkpt>
      <trkpt lat="49.43863" lon="1.2301">
        <ele>151</ele>
        <time>2022-10-25T14:42:41.332Z</time>
      </trkpt>
      <trkpt lat="49.43863" lon="1.2302">
        <ele>151</ele>
        <time>2022-10-25T14:42:46.332Z</time>
      </trkpt>
      <trkpt lat="49.43861" lon="1.23025">
        <ele>151</ele>
        <time>2022-10-25T14:42:51.336Z</time>
      </trkpt>
      <trkpt lat="49.4386" lon="1.23033">
        <ele>151</ele>
        <time>2022-10-25T14:42:56.296Z</time>
      </trkpt>
      <trkpt lat="49.43858" lon="1.23038">
        <ele>151</ele>
        <time>2022-10-25T14:43:00.323Z</time>
      </trkpt>
      <trkpt lat="49.43854" lon="1.23043">
        <ele>150</ele>
        <time>2022-10-25T14:43:05.338Z</time>
      </trkpt>
      <trkpt lat="49.4385" lon="1.2305">
        <ele>150</ele>
        <time>2022-10-25T14:43:10.328Z</time>
      </trkpt>
      <trkpt lat="49.43847" lon="1.23056">
        <ele>148</ele>
        <time>2022-10-25T14:43:15.334Z</time>
      </trkpt>
      <trkpt lat="49.43843" lon="1.23064">
        <ele>148</ele>
        <time>2022-10-25T14:43:20.323Z</time>
      </trkpt>
      <trkpt lat="49.4384" lon="1.2307">
        <ele>147</ele>
        <time>2022-10-25T14:43:24.335Z</time>
      </trkpt>
      <trkpt lat="49.43837" lon="1.23076">
        <ele>147</ele>
        <time>2022-10-25T14:43:29.295Z</time>
      </trkpt>
      <trkpt lat="49.43835" lon="1.23081">
        <ele>147</ele>
        <time>2022-10-25T14:43:33.329Z</time>
      </trkpt>
      <trkpt lat="49.43832" lon="1.23086">
        <ele>147</ele>
        <time>2022-10-25T14:43:38.332Z</time>
      </trkpt>
      <trkpt lat="49.43829" lon="1.23096">
        <ele>147</ele>
        <time>2022-10-25T14:43:43.322Z</time>
      </trkpt>
      <trkpt lat="49.43827" lon="1.23103">
        <ele>147</ele>
        <time>2022-10-25T14:43:47.342Z</time>
      </trkpt>
      <trkpt lat="49.43824" lon="1.23111">
        <ele>147</ele>
        <time>2022-10-25T14:43:52.323Z</time>
      </trkpt>
      <trkpt lat="49.43822" lon="1.23116">
        <ele>147</ele>
        <time>2022-10-25T14:43:57.334Z</time>
      </trkpt>
      <trkpt lat="49.4382" lon="1.23122">
        <ele>147</ele>
        <time>2022-10-25T14:44:02.318Z</time>
      </trkpt>
      <trkpt lat="49.43817" lon="1.23129">
        <ele>144</ele>
        <time>2022-10-25T14:44:07.327Z</time>
      </trkpt>
      <trkpt lat="49.43814" lon="1.23135">
        <ele>144</ele>
        <time>2022-10-25T14:44:12.301Z</time>
      </trkpt>
      <trkpt lat="49.43811" lon="1.2314">
        <ele>144</ele>
        <time>2022-10-25T14:44:16.330Z</time>
      </trkpt>
      <trkpt lat="49.43809" lon="1.23144">
        <ele>144</ele>
        <time>2022-10-25T14:44:20.334Z</time>
      </trkpt>
      <trkpt lat="49.43807" lon="1.23152">
        <ele>144</ele>
        <time>2022-10-25T14:44:25.316Z</time>
      </trkpt>
      <trkpt lat="49.43805" lon="1.23158">
        <ele>143</ele>
        <time>2022-10-25T14:44:29.338Z</time>
      </trkpt>
      <trkpt lat="49.43802" lon="1.23167">
        <ele>143</ele>
        <time>2022-10-25T14:44:34.300Z</time>
      </trkpt>
      <trkpt lat="49.438" lon="1.23174">
        <ele>143</ele>
        <time>2022-10-25T14:44:38.334Z</time>
      </trkpt>
      <trkpt lat="49.43797" lon="1.23181">
        <ele>142</ele>
        <time>2022-10-25T14:44:42.343Z</time>
      </trkpt>
      <trkpt lat="49.43794" lon="1.23188">
        <ele>142</ele>
        <time>2022-10-25T14:44:47.322Z</time>
      </trkpt>
      <trkpt lat="49.43792" lon="1.23194">
        <ele>142</ele>
        <time>2022-10-25T14:44:51.339Z</time>
      </trkpt>
      <trkpt lat="49.4379" lon="1.23203">
        <ele>140</ele>
        <time>2022-10-25T14:44:56.326Z</time>
      </trkpt>
      <trkpt lat="49.43787" lon="1.23211">
        <ele>139</ele>
        <time>2022-10-25T14:45:01.333Z</time>
      </trkpt>
      <trkpt lat="49.43784" lon="1.23218">
        <ele>139</ele>
        <time>2022-10-25T14:45:06.339Z</time>
      </trkpt>
      <trkpt lat="49.43781" lon="1.23227">
        <ele>139</ele>
        <time>2022-10-25T14:45:11.339Z</time>
      </trkpt>
      <trkpt lat="49.43779" lon="1.23234">
        <ele>139</ele>
        <time>2022-10-25T14:45:16.326Z</time>
      </trkpt>
      <trkpt lat="49.43777" lon="1.23243">
        <ele>139</ele>
        <time>2022-10-25T14:45:21.338Z</time>
      </trkpt>
      <trkpt lat="49.43776" lon="1.23252">
        <ele>139</ele>
        <time>2022-10-25T14:45:26.348Z</time>
      </trkpt>
      <trkpt lat="49.43774" lon="1.2326">
        <ele>139</ele>
        <time>2022-10-25T14:45:31.332Z</time>
      </trkpt>
      <trkpt lat="49.43772" lon="1.23268">
        <ele>138</ele>
        <time>2022-10-25T14:45:36.299Z</time>
      </trkpt>
      <trkpt lat="49.4377" lon="1.23275">
        <ele>138</ele>
        <time>2022-10-25T14:45:40.340Z</time>
      </trkpt>
      <trkpt lat="49.43768" lon="1.23283">
        <ele>138</ele>
        <time>2022-10-25T14:45:45.330Z</time>
      </trkpt>
      <trkpt lat="49.43766" lon="1.2329">
        <ele>138</ele>
        <time>2022-10-25T14:45:50.329Z</time>
      </trkpt>
      <trkpt lat="49.43764" lon="1.23297">
        <ele>137</ele>
        <time>2022-10-25T14:45:55.339Z</time>
      </trkpt>
      <trkpt lat="49.43762" lon="1.23305">
        <ele>137</ele>
        <time>2022-10-25T14:46:00.321Z</time>
      </trkpt>
      <trkpt lat="49.4376" lon="1.23312">
        <ele>137</ele>
        <time>2022-10-25T14:46:04.340Z</time>
      </trkpt>
      <trkpt lat="49.43759" lon="1.23319">
        <ele>137</ele>
        <time>2022-10-25T14:46:09.335Z</time>
      </trkpt>
      <trkpt lat="49.43758" lon="1.23325">
        <ele>136</ele>
        <time>2022-10-25T14:46:13.360Z</time>
      </trkpt>
      <trkpt lat="49.43756" lon="1.23335">
        <ele>136</ele>
        <time>2022-10-25T14:46:18.338Z</time>
      </trkpt>
      <trkpt lat="49.43755" lon="1.23342">
        <ele>136</ele>
        <time>2022-10-25T14:46:23.332Z</time>
      </trkpt>
      <trkpt lat="49.43753" lon="1.23351">
        <ele>135</ele>
        <time>2022-10-25T14:46:28.331Z</time>
      </trkpt>
      <trkpt lat="49.43752" lon="1.23358">
        <ele>135</ele>
        <time>2022-10-25T14:46:33.337Z</time>
      </trkpt>
      <trkpt lat="49.43751" lon="1.23365">
        <ele>135</ele>
        <time>2022-10-25T14:46:38.340Z</time>
      </trkpt>
      <trkpt lat="49.43749" lon="1.23374">
        <ele>135</ele>
        <time>2022-10-25T14:46:43.341Z</time>
      </trkpt>
      <trkpt lat="49.43747" lon="1.23381">
        <ele>134</ele>
        <time>2022-10-25T14:46:48.319Z</time>
      </trkpt>
      <trkpt lat="49.43747" lon="1.23389">
        <ele>134</ele>
        <time>2022-10-25T14:46:53.326Z</time>
      </trkpt>
      <trkpt lat="49.43746" lon="1.23396">
        <ele>134</ele>
        <time>2022-10-25T14:46:57.320Z</time>
      </trkpt>
      <trkpt lat="49.43745" lon="1.23402">
        <ele>134</ele>
        <time>2022-10-25T14:47:01.330Z</time>
      </trkpt>
      <trkpt lat="49.43744" lon="1.2341">
        <ele>133</ele>
        <time>2022-10-25T14:47:06.320Z</time>
      </trkpt>
      <trkpt lat="49.43742" lon="1.23417">
        <ele>133</ele>
        <time>2022-10-25T14:47:11.321Z</time>
      </trkpt>
      <trkpt lat="49.43739" lon="1.23418">
        <ele>133</ele>
        <time>2022-10-25T14:47:15.330Z</time>
      </trkpt>
      <trkpt lat="49.43739" lon="1.23421">
        <ele>133</ele>
        <time>2022-10-25T14:47:20.318Z</time>
      </trkpt>
      <trkpt lat="49.43737" lon="1.23421">
        <ele>133</ele>
        <time>2022-10-25T14:47:24.351Z</time>
      </trkpt>
      <trkpt lat="49.43735" lon="1.23425">
        <ele>134</ele>
        <time>2022-10-25T14:48:44.330Z</time>
      </trkpt>
      <trkpt lat="49.43733" lon="1.23426">
        <ele>134</ele>
        <time>2022-10-25T14:48:49.331Z</time>
      </trkpt>
      <trkpt lat="49.43731" lon="1.23424">
        <ele>134</ele>
        <time>2022-10-25T14:48:54.330Z</time>
      </trkpt>
      <trkpt lat="49.4373" lon="1.23425">
        <ele>134</ele>
        <time>2022-10-25T14:48:59.327Z</time>
      </trkpt>
      <trkpt lat="49.43728" lon="1.23426">
        <ele>134</ele>
        <time>2022-10-25T14:49:04.315Z</time>
      </trkpt>
      <trkpt lat="49.43729" lon="1.23427">
        <ele>134</ele>
        <time>2022-10-25T14:49:32.318Z</time>
      </trkpt>
      <trkpt lat="49.43728" lon="1.2343">
        <ele>134</ele>
        <time>2022-10-25T14:49:37.328Z</time>
      </trkpt>
      <trkpt lat="49.43725" lon="1.2343">
        <ele>134</ele>
        <time>2022-10-25T14:49:42.325Z</time>
      </trkpt>
      <trkpt lat="49.43723" lon="1.23429">
        <ele>134</ele>
        <time>2022-10-25T14:49:47.342Z</time>
      </trkpt>
      <trkpt lat="49.4372" lon="1.23432">
        <ele>133</ele>
        <time>2022-10-25T14:49:52.321Z</time>
      </trkpt>
      <trkpt lat="49.43717" lon="1.23434">
        <ele>133</ele>
        <time>2022-10-25T14:49:57.316Z</time>
      </trkpt>
      <trkpt lat="49.43715" lon="1.23437">
        <ele>133</ele>
        <time>2022-10-25T14:50:01.329Z</time>
      </trkpt>
      <trkpt lat="49.43713" lon="1.23439">
        <ele>133</ele>
        <time>2022-10-25T14:50:06.321Z</time>
      </trkpt>
      <trkpt lat="49.4371" lon="1.23442">
        <ele>133</ele>
        <time>2022-10-25T14:50:11.342Z</time>
      </trkpt>
      <trkpt lat="49.43707" lon="1.23446">
        <ele>132</ele>
        <time>2022-10-25T14:50:16.311Z</time>
      </trkpt>
      <trkpt lat="49.43703" lon="1.23448">
        <ele>132</ele>
        <time>2022-10-25T14:50:26.325Z</time>
      </trkpt>
      <trkpt lat="49.43701" lon="1.23446">
        <ele>132</ele>
        <time>2022-10-25T14:50:31.335Z</time>
      </trkpt>
      <trkpt lat="49.43699" lon="1.2345">
        <ele>132</ele>
        <time>2022-10-25T14:50:36.325Z</time>
      </trkpt>
      <trkpt lat="49.43697" lon="1.23455">
        <ele>132</ele>
        <time>2022-10-25T14:50:41.329Z</time>
      </trkpt>
      <trkpt lat="49.43694" lon="1.23458">
        <ele>132</ele>
        <time>2022-10-25T14:50:45.339Z</time>
      </trkpt>
      <trkpt lat="49.43693" lon="1.23463">
        <ele>130</ele>
        <time>2022-10-25T14:50:50.321Z</time>
      </trkpt>
      <trkpt lat="49.43689" lon="1.23467">
        <ele>130</ele>
        <time>2022-10-25T14:50:55.310Z</time>
      </trkpt>
      <trkpt lat="49.43686" lon="1.23471">
        <ele>130</ele>
        <time>2022-10-25T14:50:59.315Z</time>
      </trkpt>
      <trkpt lat="49.43685" lon="1.23477">
        <ele>130</ele>
        <time>2022-10-25T14:51:04.312Z</time>
      </trkpt>
      <trkpt lat="49.43682" lon="1.23482">
        <ele>130</ele>
        <time>2022-10-25T14:51:09.328Z</time>
      </trkpt>
      <trkpt lat="49.43679" lon="1.23487">
        <ele>128</ele>
        <time>2022-10-25T14:51:14.316Z</time>
      </trkpt>
      <trkpt lat="49.43677" lon="1.23492">
        <ele>128</ele>
        <time>2022-10-25T14:51:19.319Z</time>
      </trkpt>
      <trkpt lat="49.43676" lon="1.23497">
        <ele>128</ele>
        <time>2022-10-25T14:51:24.308Z</time>
      </trkpt>
      <trkpt lat="49.43673" lon="1.23499">
        <ele>128</ele>
        <time>2022-10-25T14:51:28.309Z</time>
      </trkpt>
      <trkpt lat="49.43671" lon="1.23501">
        <ele>128</ele>
        <time>2022-10-25T14:51:33.328Z</time>
      </trkpt>
      <trkpt lat="49.43669" lon="1.23505">
        <ele>128</ele>
        <time>2022-10-25T14:51:37.337Z</time>
      </trkpt>
      <trkpt lat="49.43667" lon="1.2351">
        <ele>128</ele>
        <time>2022-10-25T14:51:42.312Z</time>
      </trkpt>
      <trkpt lat="49.43665" lon="1.23515">
        <ele>126</ele>
        <time>2022-10-25T14:51:46.315Z</time>
      </trkpt>
      <trkpt lat="49.43661" lon="1.2352">
        <ele>126</ele>
        <time>2022-10-25T14:51:51.331Z</time>
      </trkpt>
      <trkpt lat="49.43659" lon="1.23525">
        <ele>126</ele>
        <time>2022-10-25T14:51:55.338Z</time>
      </trkpt>
      <trkpt lat="49.43657" lon="1.2353">
        <ele>126</ele>
        <time>2022-10-25T14:52:00.303Z</time>
      </trkpt>
      <trkpt lat="49.43653" lon="1.23535">
        <ele>126</ele>
        <time>2022-10-25T14:52:09.344Z</time>
      </trkpt>
      <trkpt lat="49.43652" lon="1.23537">
        <ele>126</ele>
        <time>2022-10-25T14:52:14.302Z</time>
      </trkpt>
      <trkpt lat="49.4365" lon="1.23538">
        <ele>126</ele>
        <time>2022-10-25T14:52:19.312Z</time>
      </trkpt>
      <trkpt lat="49.43647" lon="1.23538">
        <ele>126</ele>
        <time>2022-10-25T14:52:23.348Z</time>
      </trkpt>
      <trkpt lat="49.43644" lon="1.23542">
        <ele>126</ele>
        <time>2022-10-25T14:52:28.303Z</time>
      </trkpt>
      <trkpt lat="49.4364" lon="1.23542">
        <ele>123</ele>
        <time>2022-10-25T14:52:33.336Z</time>
      </trkpt>
      <trkpt lat="49.43636" lon="1.23545">
        <ele>123</ele>
        <time>2022-10-25T14:52:38.311Z</time>
      </trkpt>
      <trkpt lat="49.43635" lon="1.23546">
        <ele>123</ele>
        <time>2022-10-25T14:52:43.336Z</time>
      </trkpt>
      <trkpt lat="49.43631" lon="1.23547">
        <ele>123</ele>
        <time>2022-10-25T14:52:48.306Z</time>
      </trkpt>
      <trkpt lat="49.43628" lon="1.23549">
        <ele>123</ele>
        <time>2022-10-25T14:52:52.302Z</time>
      </trkpt>
      <trkpt lat="49.43624" lon="1.23549">
        <ele>123</ele>
        <time>2022-10-25T14:52:57.318Z</time>
      </trkpt>
      <trkpt lat="49.43622" lon="1.2355">
        <ele>123</ele>
        <time>2022-10-25T14:53:01.335Z</time>
      </trkpt>
      <trkpt lat="49.43619" lon="1.23548">
        <ele>123</ele>
        <time>2022-10-25T14:53:06.307Z</time>
      </trkpt>
      <trkpt lat="49.43616" lon="1.23548">
        <ele>123</ele>
        <time>2022-10-25T14:53:11.331Z</time>
      </trkpt>
      <trkpt lat="49.43613" lon="1.23549">
        <ele>123</ele>
        <time>2022-10-25T14:53:16.309Z</time>
      </trkpt>
      <trkpt lat="49.43609" lon="1.23551">
        <ele>123</ele>
        <time>2022-10-25T14:53:21.324Z</time>
      </trkpt>
      <trkpt lat="49.43605" lon="1.23554">
        <ele>123</ele>
        <time>2022-10-25T14:53:26.309Z</time>
      </trkpt>
      <trkpt lat="49.43599" lon="1.23556">
        <ele>123</ele>
        <time>2022-10-25T14:53:31.318Z</time>
      </trkpt>
      <trkpt lat="49.43595" lon="1.23556">
        <ele>121</ele>
        <time>2022-10-25T14:53:36.303Z</time>
      </trkpt>
      <trkpt lat="49.43591" lon="1.23556">
        <ele>121</ele>
        <time>2022-10-25T14:53:40.313Z</time>
      </trkpt>
      <trkpt lat="49.43586" lon="1.23556">
        <ele>121</ele>
        <time>2022-10-25T14:53:45.319Z</time>
      </trkpt>
      <trkpt lat="49.43583" lon="1.23557">
        <ele>121</ele>
        <time>2022-10-25T14:53:49.321Z</time>
      </trkpt>
      <trkpt lat="49.43579" lon="1.23555">
        <ele>121</ele>
        <time>2022-10-25T14:53:54.306Z</time>
      </trkpt>
      <trkpt lat="49.43574" lon="1.23554">
        <ele>121</ele>
        <time>2022-10-25T14:53:59.324Z</time>
      </trkpt>
      <trkpt lat="49.4357" lon="1.23553">
        <ele>121</ele>
        <time>2022-10-25T14:54:04.313Z</time>
      </trkpt>
      <trkpt lat="49.43565" lon="1.23551">
        <ele>119</ele>
        <time>2022-10-25T14:54:09.330Z</time>
      </trkpt>
      <trkpt lat="49.43563" lon="1.23549">
        <ele>119</ele>
        <time>2022-10-25T14:54:14.315Z</time>
      </trkpt>
      <trkpt lat="49.4356" lon="1.2355">
        <ele>119</ele>
        <time>2022-10-25T14:54:19.332Z</time>
      </trkpt>
      <trkpt lat="49.43556" lon="1.23549">
        <ele>119</ele>
        <time>2022-10-25T14:54:24.307Z</time>
      </trkpt>
      <trkpt lat="49.43553" lon="1.23548">
        <ele>119</ele>
        <time>2022-10-25T14:54:28.310Z</time>
      </trkpt>
      <trkpt lat="49.4355" lon="1.23548">
        <ele>119</ele>
        <time>2022-10-25T14:54:32.317Z</time>
      </trkpt>
      <trkpt lat="49.43546" lon="1.23548">
        <ele>119</ele>
        <time>2022-10-25T14:54:37.321Z</time>
      </trkpt>
      <trkpt lat="49.43543" lon="1.2355">
        <ele>119</ele>
        <time>2022-10-25T14:54:41.330Z</time>
      </trkpt>
      <trkpt lat="49.43539" lon="1.2355">
        <ele>117</ele>
        <time>2022-10-25T14:54:46.311Z</time>
      </trkpt>
      <trkpt lat="49.43536" lon="1.23551">
        <ele>117</ele>
        <time>2022-10-25T14:54:51.312Z</time>
      </trkpt>
      <trkpt lat="49.43532" lon="1.23551">
        <ele>117</ele>
        <time>2022-10-25T14:54:56.310Z</time>
      </trkpt>
      <trkpt lat="49.43528" lon="1.23552">
        <ele>117</ele>
        <time>2022-10-25T14:55:01.306Z</time>
      </trkpt>
      <trkpt lat="49.43525" lon="1.23553">
        <ele>117</ele>
        <time>2022-10-25T14:55:05.334Z</time>
      </trkpt>
      <trkpt lat="49.43519" lon="1.23554">
        <ele>117</ele>
        <time>2022-10-25T14:55:10.317Z</time>
      </trkpt>
      <trkpt lat="49.43514" lon="1.23557">
        <ele>117</ele>
        <time>2022-10-25T14:55:15.335Z</time>
      </trkpt>
      <trkpt lat="49.4351" lon="1.23559">
        <ele>115</ele>
        <time>2022-10-25T14:55:20.316Z</time>
      </trkpt>
      <trkpt lat="49.43508" lon="1.2356">
        <ele>115</ele>
        <time>2022-10-25T14:55:24.318Z</time>
      </trkpt>
      <trkpt lat="49.43501" lon="1.23561">
        <ele>115</ele>
        <time>2022-10-25T14:55:29.323Z</time>
      </trkpt>
      <trkpt lat="49.43496" lon="1.23561">
        <ele>115</ele>
        <time>2022-10-25T14:55:34.306Z</time>
      </trkpt>
      <trkpt lat="49.43493" lon="1.23563">
        <ele>115</ele>
        <time>2022-10-25T14:55:38.323Z</time>
      </trkpt>
      <trkpt lat="49.43489" lon="1.23564">
        <ele>115</ele>
        <time>2022-10-25T14:55:43.330Z</time>
      </trkpt>
      <trkpt lat="49.43485" lon="1.23564">
        <ele>112</ele>
        <time>2022-10-25T14:55:48.312Z</time>
      </trkpt>
      <trkpt lat="49.43483" lon="1.23566">
        <ele>112</ele>
        <time>2022-10-25T14:55:53.330Z</time>
      </trkpt>
      <trkpt lat="49.4348" lon="1.23567">
        <ele>112</ele>
        <time>2022-10-25T14:55:57.327Z</time>
      </trkpt>
      <trkpt lat="49.43476" lon="1.23569">
        <ele>112</ele>
        <time>2022-10-25T14:56:02.306Z</time>
      </trkpt>
      <trkpt lat="49.43473" lon="1.23572">
        <ele>111</ele>
        <time>2022-10-25T14:56:06.315Z</time>
      </trkpt>
      <trkpt lat="49.43471" lon="1.23575">
        <ele>111</ele>
        <time>2022-10-25T14:56:11.317Z</time>
      </trkpt>
      <trkpt lat="49.43469" lon="1.23576">
        <ele>111</ele>
        <time>2022-10-25T14:56:15.335Z</time>
      </trkpt>
      <trkpt lat="49.43465" lon="1.23579">
        <ele>111</ele>
        <time>2022-10-25T14:56:20.325Z</time>
      </trkpt>
      <trkpt lat="49.43461" lon="1.23582">
        <ele>111</ele>
        <time>2022-10-25T14:56:25.333Z</time>
      </trkpt>
      <trkpt lat="49.43459" lon="1.23585">
        <ele>111</ele>
        <time>2022-10-25T14:56:29.346Z</time>
      </trkpt>
      <trkpt lat="49.43457" lon="1.23588">
        <ele>108</ele>
        <time>2022-10-25T14:56:34.305Z</time>
      </trkpt>
      <trkpt lat="49.43455" lon="1.23592">
        <ele>108</ele>
        <time>2022-10-25T14:56:39.331Z</time>
      </trkpt>
      <trkpt lat="49.43452" lon="1.23596">
        <ele>108</ele>
        <time>2022-10-25T14:56:44.328Z</time>
      </trkpt>
      <trkpt lat="49.43449" lon="1.23601">
        <ele>105</ele>
        <time>2022-10-25T14:56:49.308Z</time>
      </trkpt>
      <trkpt lat="49.43447" lon="1.23603">
        <ele>105</ele>
        <time>2022-10-25T14:56:53.311Z</time>
      </trkpt>
      <trkpt lat="49.43443" lon="1.23611">
        <ele>105</ele>
        <time>2022-10-25T14:56:58.321Z</time>
      </trkpt>
      <trkpt lat="49.4344" lon="1.23617">
        <ele>105</ele>
        <time>2022-10-25T14:57:03.336Z</time>
      </trkpt>
      <trkpt lat="49.43437" lon="1.23623">
        <ele>105</ele>
        <time>2022-10-25T14:57:08.306Z</time>
      </trkpt>
      <trkpt lat="49.43435" lon="1.23629">
        <ele>104</ele>
        <time>2022-10-25T14:57:12.325Z</time>
      </trkpt>
      <trkpt lat="49.43432" lon="1.23636">
        <ele>104</ele>
        <time>2022-10-25T14:57:17.344Z</time>
      </trkpt>
      <trkpt lat="49.4343" lon="1.23641">
        <ele>104</ele>
        <time>2022-10-25T14:57:21.358Z</time>
      </trkpt>
      <trkpt lat="49.43428" lon="1.23646">
        <ele>104</ele>
        <time>2022-10-25T14:57:26.309Z</time>
      </trkpt>
      <trkpt lat="49.43426" lon="1.23651">
        <ele>104</ele>
        <time>2022-10-25T14:57:30.321Z</time>
      </trkpt>
      <trkpt lat="49.43422" lon="1.2366">
        <ele>103</ele>
        <time>2022-10-25T14:57:35.295Z</time>
      </trkpt>
      <trkpt lat="49.4342" lon="1.23666">
        <ele>103</ele>
        <time>2022-10-25T14:57:39.303Z</time>
      </trkpt>
      <trkpt lat="49.4342" lon="1.2367">
        <ele>103</ele>
        <time>2022-10-25T14:57:43.340Z</time>
      </trkpt>
      <trkpt lat="49.43417" lon="1.23673">
        <ele>103</ele>
        <time>2022-10-25T14:57:48.315Z</time>
      </trkpt>
      <trkpt lat="49.43415" lon="1.23678">
        <ele>103</ele>
        <time>2022-10-25T14:57:53.327Z</time>
      </trkpt>
      <trkpt lat="49.43411" lon="1.23684">
        <ele>103</ele>
        <time>2022-10-25T14:57:58.315Z</time>
      </trkpt>
      <trkpt lat="49.43409" lon="1.2369">
        <ele>103</ele>
        <time>2022-10-25T14:58:03.300Z</time>
      </trkpt>
      <trkpt lat="49.43407" lon="1.23695">
        <ele>103</ele>
        <time>2022-10-25T14:58:07.321Z</time>
      </trkpt>
      <trkpt lat="49.43404" lon="1.237">
        <ele>103</ele>
        <time>2022-10-25T14:58:11.347Z</time>
      </trkpt>
      <trkpt lat="49.434" lon="1.23705">
        <ele>102</ele>
        <time>2022-10-25T14:58:16.291Z</time>
      </trkpt>
      <trkpt lat="49.43397" lon="1.23709">
        <ele>101</ele>
        <time>2022-10-25T14:58:20.308Z</time>
      </trkpt>
      <trkpt lat="49.43394" lon="1.23712">
        <ele>101</ele>
        <time>2022-10-25T14:58:24.322Z</time>
      </trkpt>
      <trkpt lat="49.43391" lon="1.23717">
        <ele>101</ele>
        <time>2022-10-25T14:58:29.296Z</time>
      </trkpt>
      <trkpt lat="49.43388" lon="1.23721">
        <ele>101</ele>
        <time>2022-10-25T14:58:33.323Z</time>
      </trkpt>
      <trkpt lat="49.43386" lon="1.23725">
        <ele>101</ele>
        <time>2022-10-25T14:58:37.329Z</time>
      </trkpt>
      <trkpt lat="49.43382" lon="1.23731">
        <ele>101</ele>
        <time>2022-10-25T14:58:42.300Z</time>
      </trkpt>
      <trkpt lat="49.4338" lon="1.23737">
        <ele>100</ele>
        <time>2022-10-25T14:58:46.315Z</time>
      </trkpt>
      <trkpt lat="49.43377" lon="1.23741">
        <ele>100</ele>
        <time>2022-10-25T14:58:51.325Z</time>
      </trkpt>
      <trkpt lat="49.43374" lon="1.23744">
        <ele>98</ele>
        <time>2022-10-25T14:58:55.330Z</time>
      </trkpt>
      <trkpt lat="49.43373" lon="1.23749">
        <ele>98</ele>
        <time>2022-10-25T14:59:00.322Z</time>
      </trkpt>
      <trkpt lat="49.43371" lon="1.23754">
        <ele>98</ele>
        <time>2022-10-25T14:59:05.314Z</time>
      </trkpt>
      <trkpt lat="49.43364" lon="1.23769">
        <ele>99</ele>
        <time>2022-10-25T14:59:28.332Z</time>
      </trkpt>
      <trkpt lat="49.43364" lon="1.23771">
        <ele>99</ele>
        <time>2022-10-25T14:59:33.344Z</time>
      </trkpt>
      <trkpt lat="49.43364" lon="1.23772">
        <ele>99</ele>
        <time>2022-10-25T14:59:38.320Z</time>
      </trkpt>
      <trkpt lat="49.43365" lon="1.23773">
        <ele>99</ele>
        <time>2022-10-25T14:59:43.318Z</time>
      </trkpt>
      <trkpt lat="49.43364" lon="1.23774">
        <ele>99</ele>
        <time>2022-10-25T14:59:48.326Z</time>
      </trkpt>
      <trkpt lat="49.43364" lon="1.23777">
        <ele>99</ele>
        <time>2022-10-25T15:02:23.294Z</time>
      </trkpt>
      <trkpt lat="49.43363" lon="1.23779">
        <ele>99</ele>
        <time>2022-10-25T15:02:27.327Z</time>
      </trkpt>
      <trkpt lat="49.4336" lon="1.23783">
        <ele>99</ele>
        <time>2022-10-25T15:02:32.314Z</time>
      </trkpt>
      <trkpt lat="49.43359" lon="1.23785">
        <ele>99</ele>
        <time>2022-10-25T15:02:37.297Z</time>
      </trkpt>
      <trkpt lat="49.43356" lon="1.23786">
        <ele>99</ele>
        <time>2022-10-25T15:02:41.318Z</time>
      </trkpt>
      <trkpt lat="49.43355" lon="1.23789">
        <ele>99</ele>
        <time>2022-10-25T15:02:45.343Z</time>
      </trkpt>
      <trkpt lat="49.43352" lon="1.23796">
        <ele>102</ele>
        <time>2022-10-25T15:02:50.297Z</time>
      </trkpt>
      <trkpt lat="49.4335" lon="1.23797">
        <ele>102</ele>
        <time>2022-10-25T15:02:54.329Z</time>
      </trkpt>
      <trkpt lat="49.43349" lon="1.23798">
        <ele>102</ele>
        <time>2022-10-25T15:02:58.342Z</time>
      </trkpt>
      <trkpt lat="49.43347" lon="1.23801">
        <ele>101</ele>
        <time>2022-10-25T15:03:03.323Z</time>
      </trkpt>
      <trkpt lat="49.43345" lon="1.23806">
        <ele>101</ele>
        <time>2022-10-25T15:03:07.336Z</time>
      </trkpt>
      <trkpt lat="49.4334" lon="1.23813">
        <ele>101</ele>
        <time>2022-10-25T15:03:12.330Z</time>
      </trkpt>
      <trkpt lat="49.43337" lon="1.23819">
        <ele>101</ele>
        <time>2022-10-25T15:03:17.343Z</time>
      </trkpt>
      <trkpt lat="49.43332" lon="1.23825">
        <ele>103</ele>
        <time>2022-10-25T15:03:22.327Z</time>
      </trkpt>
      <trkpt lat="49.43329" lon="1.2383">
        <ele>103</ele>
        <time>2022-10-25T15:03:26.328Z</time>
      </trkpt>
      <trkpt lat="49.43326" lon="1.23838">
        <ele>103</ele>
        <time>2022-10-25T15:03:31.296Z</time>
      </trkpt>
      <trkpt lat="49.43323" lon="1.23839">
        <ele>103</ele>
        <time>2022-10-25T15:03:35.320Z</time>
      </trkpt>
      <trkpt lat="49.43321" lon="1.23841">
        <ele>103</ele>
        <time>2022-10-25T15:03:39.334Z</time>
      </trkpt>
      <trkpt lat="49.43318" lon="1.23846">
        <ele>100</ele>
        <time>2022-10-25T15:03:44.329Z</time>
      </trkpt>
      <trkpt lat="49.43314" lon="1.23852">
        <ele>102</ele>
        <time>2022-10-25T15:03:49.318Z</time>
      </trkpt>
      <trkpt lat="49.4331" lon="1.23859">
        <ele>102</ele>
        <time>2022-10-25T15:03:54.303Z</time>
      </trkpt>
      <trkpt lat="49.43309" lon="1.23864">
        <ele>102</ele>
        <time>2022-10-25T15:03:58.336Z</time>
      </trkpt>
      <trkpt lat="49.43306" lon="1.23867">
        <ele>102</ele>
        <time>2022-10-25T15:04:03.313Z</time>
      </trkpt>
      <trkpt lat="49.43303" lon="1.23869">
        <ele>102</ele>
        <time>2022-10-25T15:04:07.338Z</time>
      </trkpt>
      <trkpt lat="49.43299" lon="1.23875">
        <ele>106</ele>
        <time>2022-10-25T15:04:12.323Z</time>
      </trkpt>
      <trkpt lat="49.43295" lon="1.2388">
        <ele>106</ele>
        <time>2022-10-25T15:04:17.326Z</time>
      </trkpt>
      <trkpt lat="49.43293" lon="1.23884">
        <ele>106</ele>
        <time>2022-10-25T15:04:21.341Z</time>
      </trkpt>
      <trkpt lat="49.4329" lon="1.23885">
        <ele>107</ele>
        <time>2022-10-25T15:04:26.327Z</time>
      </trkpt>
      <trkpt lat="49.43287" lon="1.23888">
        <ele>107</ele>
        <time>2022-10-25T15:04:31.321Z</time>
      </trkpt>
      <trkpt lat="49.43284" lon="1.23894">
        <ele>107</ele>
        <time>2022-10-25T15:04:36.310Z</time>
      </trkpt>
      <trkpt lat="49.43282" lon="1.23898">
        <ele>107</ele>
        <time>2022-10-25T15:04:40.313Z</time>
      </trkpt>
      <trkpt lat="49.43281" lon="1.23903">
        <ele>110</ele>
        <time>2022-10-25T15:04:45.297Z</time>
      </trkpt>
      <trkpt lat="49.43276" lon="1.23911">
        <ele>110</ele>
        <time>2022-10-25T15:04:49.303Z</time>
      </trkpt>
      <trkpt lat="49.43275" lon="1.23912">
        <ele>110</ele>
        <time>2022-10-25T15:04:53.336Z</time>
      </trkpt>
      <trkpt lat="49.43274" lon="1.23915">
        <ele>110</ele>
        <time>2022-10-25T15:04:57.335Z</time>
      </trkpt>
      <trkpt lat="49.43271" lon="1.23919">
        <ele>110</ele>
        <time>2022-10-25T15:05:02.292Z</time>
      </trkpt>
      <trkpt lat="49.43267" lon="1.23924">
        <ele>110</ele>
        <time>2022-10-25T15:05:07.336Z</time>
      </trkpt>
      <trkpt lat="49.43265" lon="1.23928">
        <ele>110</ele>
        <time>2022-10-25T15:05:12.308Z</time>
      </trkpt>
      <trkpt lat="49.43262" lon="1.23934">
        <ele>114</ele>
        <time>2022-10-25T15:05:17.311Z</time>
      </trkpt>
      <trkpt lat="49.4326" lon="1.23938">
        <ele>114</ele>
        <time>2022-10-25T15:05:22.319Z</time>
      </trkpt>
      <trkpt lat="49.43258" lon="1.2394">
        <ele>114</ele>
        <time>2022-10-25T15:05:26.331Z</time>
      </trkpt>
      <trkpt lat="49.43257" lon="1.23943">
        <ele>114</ele>
        <time>2022-10-25T15:05:31.323Z</time>
      </trkpt>
      <trkpt lat="49.43255" lon="1.23945">
        <ele>114</ele>
        <time>2022-10-25T15:05:36.316Z</time>
      </trkpt>
      <trkpt lat="49.43252" lon="1.23947">
        <ele>114</ele>
        <time>2022-10-25T15:05:41.343Z</time>
      </trkpt>
      <trkpt lat="49.43248" lon="1.23947">
        <ele>114</ele>
        <time>2022-10-25T15:05:46.337Z</time>
      </trkpt>
      <trkpt lat="49.43246" lon="1.2395">
        <ele>114</ele>
        <time>2022-10-25T15:05:51.299Z</time>
      </trkpt>
      <trkpt lat="49.43243" lon="1.23954">
        <ele>114</ele>
        <time>2022-10-25T15:05:55.317Z</time>
      </trkpt>
      <trkpt lat="49.4324" lon="1.23959">
        <ele>114</ele>
        <time>2022-10-25T15:05:59.332Z</time>
      </trkpt>
      <trkpt lat="49.43238" lon="1.23964">
        <ele>114</ele>
        <time>2022-10-25T15:06:04.296Z</time>
      </trkpt>
      <trkpt lat="49.43235" lon="1.23967">
        <ele>116</ele>
        <time>2022-10-25T15:06:08.341Z</time>
      </trkpt>
      <trkpt lat="49.43232" lon="1.2397">
        <ele>116</ele>
        <time>2022-10-25T15:06:13.334Z</time>
      </trkpt>
      <trkpt lat="49.4323" lon="1.23974">
        <ele>116</ele>
        <time>2022-10-25T15:06:18.295Z</time>
      </trkpt>
      <trkpt lat="49.43228" lon="1.23978">
        <ele>116</ele>
        <time>2022-10-25T15:06:22.323Z</time>
      </trkpt>
      <trkpt lat="49.43226" lon="1.23982">
        <ele>116</ele>
        <time>2022-10-25T15:06:27.329Z</time>
      </trkpt>
      <trkpt lat="49.43222" lon="1.23985">
        <ele>116</ele>
        <time>2022-10-25T15:06:31.333Z</time>
      </trkpt>
      <trkpt lat="49.43219" lon="1.23989">
        <ele>118</ele>
        <time>2022-10-25T15:06:36.344Z</time>
      </trkpt>
      <trkpt lat="49.43218" lon="1.23991">
        <ele>118</ele>
        <time>2022-10-25T15:06:41.360Z</time>
      </trkpt>
      <trkpt lat="49.43216" lon="1.23992">
        <ele>118</ele>
        <time>2022-10-25T15:06:46.317Z</time>
      </trkpt>
      <trkpt lat="49.43212" lon="1.23994">
        <ele>118</ele>
        <time>2022-10-25T15:06:51.290Z</time>
      </trkpt>
      <trkpt lat="49.43209" lon="1.23997">
        <ele>118</ele>
        <time>2022-10-25T15:06:55.330Z</time>
      </trkpt>
      <trkpt lat="49.43206" lon="1.23999">
        <ele>123</ele>
        <time>2022-10-25T15:06:59.342Z</time>
      </trkpt>
      <trkpt lat="49.43203" lon="1.24002">
        <ele>123</ele>
        <time>2022-10-25T15:07:04.325Z</time>
      </trkpt>
      <trkpt lat="49.43199" lon="1.24007">
        <ele>123</ele>
        <time>2022-10-25T15:07:09.345Z</time>
      </trkpt>
      <trkpt lat="49.43196" lon="1.2401">
        <ele>123</ele>
        <time>2022-10-25T15:07:14.339Z</time>
      </trkpt>
      <trkpt lat="49.43192" lon="1.24014">
        <ele>123</ele>
        <time>2022-10-25T15:07:19.331Z</time>
      </trkpt>
      <trkpt lat="49.43189" lon="1.24017">
        <ele>125</ele>
        <time>2022-10-25T15:07:24.312Z</time>
      </trkpt>
      <trkpt lat="49.43187" lon="1.24019">
        <ele>125</ele>
        <time>2022-10-25T15:07:28.323Z</time>
      </trkpt>
      <trkpt lat="49.43185" lon="1.24023">
        <ele>125</ele>
        <time>2022-10-25T15:07:33.299Z</time>
      </trkpt>
      <trkpt lat="49.43183" lon="1.24027">
        <ele>125</ele>
        <time>2022-10-25T15:07:37.322Z</time>
      </trkpt>
      <trkpt lat="49.43181" lon="1.2403">
        <ele>125</ele>
        <time>2022-10-25T15:07:41.341Z</time>
      </trkpt>
      <trkpt lat="49.43179" lon="1.24035">
        <ele>129</ele>
        <time>2022-10-25T15:07:46.308Z</time>
      </trkpt>
      <trkpt lat="49.43177" lon="1.24038">
        <ele>129</ele>
        <time>2022-10-25T15:07:50.324Z</time>
      </trkpt>
      <trkpt lat="49.43174" lon="1.24041">
        <ele>129</ele>
        <time>2022-10-25T15:07:55.332Z</time>
      </trkpt>
      <trkpt lat="49.43172" lon="1.24044">
        <ele>130</ele>
        <time>2022-10-25T15:07:59.344Z</time>
      </trkpt>
      <trkpt lat="49.4317" lon="1.24048">
        <ele>130</ele>
        <time>2022-10-25T15:08:04.314Z</time>
      </trkpt>
      <trkpt lat="49.43168" lon="1.24052">
        <ele>130</ele>
        <time>2022-10-25T15:08:08.330Z</time>
      </trkpt>
      <trkpt lat="49.43165" lon="1.24057">
        <ele>130</ele>
        <time>2022-10-25T15:08:13.320Z</time>
      </trkpt>
      <trkpt lat="49.43163" lon="1.24063">
        <ele>130</ele>
        <time>2022-10-25T15:08:18.330Z</time>
      </trkpt>
      <trkpt lat="49.4316" lon="1.2407">
        <ele>131</ele>
        <time>2022-10-25T15:08:23.339Z</time>
      </trkpt>
      <trkpt lat="49.43156" lon="1.24074">
        <ele>131</ele>
        <time>2022-10-25T15:08:28.325Z</time>
      </trkpt>
      <trkpt lat="49.43153" lon="1.2408">
        <ele>131</ele>
        <time>2022-10-25T15:08:33.326Z</time>
      </trkpt>
      <trkpt lat="49.43151" lon="1.24083">
        <ele>135</ele>
        <time>2022-10-25T15:08:37.328Z</time>
      </trkpt>
      <trkpt lat="49.43148" lon="1.24088">
        <ele>135</ele>
        <time>2022-10-25T15:08:42.313Z</time>
      </trkpt>
      <trkpt lat="49.43146" lon="1.24088">
        <ele>135</ele>
        <time>2022-10-25T15:08:46.331Z</time>
      </trkpt>
      <trkpt lat="49.43144" lon="1.2409">
        <ele>135</ele>
        <time>2022-10-25T15:08:51.335Z</time>
      </trkpt>
      <trkpt lat="49.43144" lon="1.2409">
        <ele>135</ele>
        <time>2022-10-25T15:08:56.315Z</time>
      </trkpt>
      <trkpt lat="49.43145" lon="1.24094">
        <ele>135</ele>
        <time>2022-10-25T15:09:01.335Z</time>
      </trkpt>
      <trkpt lat="49.43145" lon="1.24098">
        <ele>136</ele>
        <time>2022-10-25T15:09:06.309Z</time>
      </trkpt>
      <trkpt lat="49.43145" lon="1.24105">
        <ele>136</ele>
        <time>2022-10-25T15:09:11.322Z</time>
      </trkpt>
      <trkpt lat="49.43144" lon="1.24109">
        <ele>136</ele>
        <time>2022-10-25T15:09:16.317Z</time>
      </trkpt>
      <trkpt lat="49.43143" lon="1.24116">
        <ele>136</ele>
        <time>2022-10-25T15:09:21.325Z</time>
      </trkpt>
      <trkpt lat="49.43142" lon="1.24122">
        <ele>136</ele>
        <time>2022-10-25T15:09:26.325Z</time>
      </trkpt>
      <trkpt lat="49.43142" lon="1.24128">
        <ele>138</ele>
        <time>2022-10-25T15:09:30.326Z</time>
      </trkpt>
      <trkpt lat="49.43142" lon="1.24133">
        <ele>138</ele>
        <time>2022-10-25T15:09:35.328Z</time>
      </trkpt>
      <trkpt lat="49.4314" lon="1.24139">
        <ele>138</ele>
        <time>2022-10-25T15:09:40.325Z</time>
      </trkpt>
      <trkpt lat="49.43138" lon="1.24144">
        <ele>138</ele>
        <time>2022-10-25T15:09:45.326Z</time>
      </trkpt>
      <trkpt lat="49.43136" lon="1.2415">
        <ele>138</ele>
        <time>2022-10-25T15:09:49.326Z</time>
      </trkpt>
      <trkpt lat="49.43134" lon="1.24153">
        <ele>141</ele>
        <time>2022-10-25T15:09:54.335Z</time>
      </trkpt>
      <trkpt lat="49.43132" lon="1.24157">
        <ele>141</ele>
        <time>2022-10-25T15:09:59.330Z</time>
      </trkpt>
      <trkpt lat="49.4313" lon="1.24164">
        <ele>141</ele>
        <time>2022-10-25T15:10:04.330Z</time>
      </trkpt>
      <trkpt lat="49.43127" lon="1.24169">
        <ele>141</ele>
        <time>2022-10-25T15:10:09.315Z</time>
      </trkpt>
      <trkpt lat="49.43125" lon="1.24172">
        <ele>141</ele>
        <time>2022-10-25T15:10:13.326Z</time>
      </trkpt>
      <trkpt lat="49.43123" lon="1.2418">
        <ele>141</ele>
        <time>2022-10-25T15:10:18.299Z</time>
      </trkpt>
      <trkpt lat="49.43122" lon="1.24185">
        <ele>143</ele>
        <time>2022-10-25T15:10:22.319Z</time>
      </trkpt>
      <trkpt lat="49.4312" lon="1.24191">
        <ele>143</ele>
        <time>2022-10-25T15:10:27.323Z</time>
      </trkpt>
      <trkpt lat="49.4312" lon="1.242">
        <ele>143</ele>
        <time>2022-10-25T15:10:32.314Z</time>
      </trkpt>
      <trkpt lat="49.4312" lon="1.24203">
        <ele>143</ele>
        <time>2022-10-25T15:10:36.321Z</time>
      </trkpt>
      <trkpt lat="49.43119" lon="1.24209">
        <ele>145</ele>
        <time>2022-10-25T15:10:41.316Z</time>
      </trkpt>
      <trkpt lat="49.43118" lon="1.24214">
        <ele>145</ele>
        <time>2022-10-25T15:10:46.299Z</time>
      </trkpt>
      <trkpt lat="49.43117" lon="1.24221">
        <ele>145</ele>
        <time>2022-10-25T15:10:51.303Z</time>
      </trkpt>
      <trkpt lat="49.43117" lon="1.24226">
        <ele>145</ele>
        <time>2022-10-25T15:10:55.307Z</time>
      </trkpt>
      <trkpt lat="49.43117" lon="1.24228">
        <ele>145</ele>
        <time>2022-10-25T15:10:59.328Z</time>
      </trkpt>
      <trkpt lat="49.43118" lon="1.24235">
        <ele>145</ele>
        <time>2022-10-25T15:11:04.295Z</time>
      </trkpt>
      <trkpt lat="49.43118" lon="1.24243">
        <ele>147</ele>
        <time>2022-10-25T15:11:08.335Z</time>
      </trkpt>
      <trkpt lat="49.43119" lon="1.24251">
        <ele>147</ele>
        <time>2022-10-25T15:11:13.328Z</time>
      </trkpt>
      <trkpt lat="49.43119" lon="1.24259">
        <ele>147</ele>
        <time>2022-10-25T15:11:18.308Z</time>
      </trkpt>
      <trkpt lat="49.4312" lon="1.24265">
        <ele>147</ele>
        <time>2022-10-25T15:11:22.318Z</time>
      </trkpt>
      <trkpt lat="49.43121" lon="1.2427">
        <ele>147</ele>
        <time>2022-10-25T15:11:26.332Z</time>
      </trkpt>
      <trkpt lat="49.43123" lon="1.24275">
        <ele>147</ele>
        <time>2022-10-25T15:11:30.330Z</time>
      </trkpt>
      <trkpt lat="49.43123" lon="1.24283">
        <ele>147</ele>
        <time>2022-10-25T15:11:35.328Z</time>
      </trkpt>
      <trkpt lat="49.43122" lon="1.24292">
        <ele>147</ele>
        <time>2022-10-25T15:11:40.330Z</time>
      </trkpt>
      <trkpt lat="49.43122" lon="1.24297">
        <ele>146</ele>
        <time>2022-10-25T15:11:44.340Z</time>
      </trkpt>
      <trkpt lat="49.43123" lon="1.24304">
        <ele>146</ele>
        <time>2022-10-25T15:11:49.333Z</time>
      </trkpt>
      <trkpt lat="49.43122" lon="1.24313">
        <ele>146</ele>
        <time>2022-10-25T15:11:54.303Z</time>
      </trkpt>
      <trkpt lat="49.43123" lon="1.24319">
        <ele>146</ele>
        <time>2022-10-25T15:11:58.334Z</time>
      </trkpt>
      <trkpt lat="49.43122" lon="1.24324">
        <ele>147</ele>
        <time>2022-10-25T15:12:03.298Z</time>
      </trkpt>
      <trkpt lat="49.4312" lon="1.24328">
        <ele>147</ele>
        <time>2022-10-25T15:12:07.331Z</time>
      </trkpt>
      <trkpt lat="49.43119" lon="1.24332">
        <ele>147</ele>
        <time>2022-10-25T15:12:11.352Z</time>
      </trkpt>
      <trkpt lat="49.43118" lon="1.24337">
        <ele>147</ele>
        <time>2022-10-25T15:12:16.317Z</time>
      </trkpt>
      <trkpt lat="49.43117" lon="1.24339">
        <ele>147</ele>
        <time>2022-10-25T15:12:20.335Z</time>
      </trkpt>
      <trkpt lat="49.43119" lon="1.24347">
        <ele>147</ele>
        <time>2022-10-25T15:12:25.331Z</time>
      </trkpt>
      <trkpt lat="49.4312" lon="1.24352">
        <ele>147</ele>
        <time>2022-10-25T15:12:30.331Z</time>
      </trkpt>
      <trkpt lat="49.43121" lon="1.24357">
        <ele>147</ele>
        <time>2022-10-25T15:12:35.298Z</time>
      </trkpt>
      <trkpt lat="49.43124" lon="1.24362">
        <ele>147</ele>
        <time>2022-10-25T15:12:39.339Z</time>
      </trkpt>
      <trkpt lat="49.43125" lon="1.24368">
        <ele>147</ele>
        <time>2022-10-25T15:12:44.344Z</time>
      </trkpt>
      <trkpt lat="49.43126" lon="1.24375">
        <ele>148</ele>
        <time>2022-10-25T15:12:49.316Z</time>
      </trkpt>
      <trkpt lat="49.43127" lon="1.24382">
        <ele>148</ele>
        <time>2022-10-25T15:12:54.318Z</time>
      </trkpt>
      <trkpt lat="49.43129" lon="1.24387">
        <ele>148</ele>
        <time>2022-10-25T15:12:58.337Z</time>
      </trkpt>
      <trkpt lat="49.43131" lon="1.24394">
        <ele>148</ele>
        <time>2022-10-25T15:13:03.339Z</time>
      </trkpt>
      <trkpt lat="49.43132" lon="1.24404">
        <ele>148</ele>
        <time>2022-10-25T15:13:08.338Z</time>
      </trkpt>
      <trkpt lat="49.4313" lon="1.2441">
        <ele>148</ele>
        <time>2022-10-25T15:13:13.315Z</time>
      </trkpt>
      <trkpt lat="49.43131" lon="1.24419">
        <ele>148</ele>
        <time>2022-10-25T15:13:17.326Z</time>
      </trkpt>
      <trkpt lat="49.43131" lon="1.24427">
        <ele>148</ele>
        <time>2022-10-25T15:13:22.298Z</time>
      </trkpt>
      <trkpt lat="49.43133" lon="1.24433">
        <ele>149</ele>
        <time>2022-10-25T15:13:26.328Z</time>
      </trkpt>
      <trkpt lat="49.43134" lon="1.24438">
        <ele>149</ele>
        <time>2022-10-25T15:13:30.335Z</time>
      </trkpt>
      <trkpt lat="49.43134" lon="1.24444">
        <ele>149</ele>
        <time>2022-10-25T15:13:35.314Z</time>
      </trkpt>
      <trkpt lat="49.43136" lon="1.2445">
        <ele>149</ele>
        <time>2022-10-25T15:13:39.349Z</time>
      </trkpt>
      <trkpt lat="49.43137" lon="1.2446">
        <ele>150</ele>
        <time>2022-10-25T15:13:44.293Z</time>
      </trkpt>
      <trkpt lat="49.43139" lon="1.2447">
        <ele>150</ele>
        <time>2022-10-25T15:13:49.301Z</time>
      </trkpt>
      <trkpt lat="49.43139" lon="1.24477">
        <ele>150</ele>
        <time>2022-10-25T15:13:53.330Z</time>
      </trkpt>
      <trkpt lat="49.4314" lon="1.24479">
        <ele>150</ele>
        <time>2022-10-25T15:13:58.322Z</time>
      </trkpt>
      <trkpt lat="49.43141" lon="1.24482">
        <ele>150</ele>
        <time>2022-10-25T15:14:03.333Z</time>
      </trkpt>
      <trkpt lat="49.43141" lon="1.24487">
        <ele>150</ele>
        <time>2022-10-25T15:14:08.344Z</time>
      </trkpt>
      <trkpt lat="49.4314" lon="1.24493">
        <ele>150</ele>
        <time>2022-10-25T15:14:13.319Z</time>
      </trkpt>
      <trkpt lat="49.4314" lon="1.24498">
        <ele>150</ele>
        <time>2022-10-25T15:14:17.324Z</time>
      </trkpt>
      <trkpt lat="49.43141" lon="1.24504">
        <ele>150</ele>
        <time>2022-10-25T15:14:21.340Z</time>
      </trkpt>
      <trkpt lat="49.43142" lon="1.24509">
        <ele>150</ele>
        <time>2022-10-25T15:14:26.318Z</time>
      </trkpt>
      <trkpt lat="49.43141" lon="1.24513">
        <ele>150</ele>
        <time>2022-10-25T15:14:31.336Z</time>
      </trkpt>
      <trkpt lat="49.43141" lon="1.2452">
        <ele>151</ele>
        <time>2022-10-25T15:14:36.325Z</time>
      </trkpt>
      <trkpt lat="49.43139" lon="1.24526">
        <ele>151</ele>
        <time>2022-10-25T15:14:41.301Z</time>
      </trkpt>
      <trkpt lat="49.43139" lon="1.24532">
        <ele>151</ele>
        <time>2022-10-25T15:14:45.319Z</time>
      </trkpt>
      <trkpt lat="49.43137" lon="1.24539">
        <ele>151</ele>
        <time>2022-10-25T15:14:50.321Z</time>
      </trkpt>
      <trkpt lat="49.43136" lon="1.24546">
        <ele>151</ele>
        <time>2022-10-25T15:14:55.312Z</time>
      </trkpt>
      <trkpt lat="49.43137" lon="1.24551">
        <ele>151</ele>
        <time>2022-10-25T15:14:59.349Z</time>
      </trkpt>
      <trkpt lat="49.43137" lon="1.24559">
        <ele>151</ele>
        <time>2022-10-25T15:15:04.320Z</time>
      </trkpt>
      <trkpt lat="49.43136" lon="1.24568">
        <ele>151</ele>
        <time>2022-10-25T15:15:09.324Z</time>
      </trkpt>
      <trkpt lat="49.43136" lon="1.24575">
        <ele>152</ele>
        <time>2022-10-25T15:15:14.299Z</time>
      </trkpt>
      <trkpt lat="49.43136" lon="1.24581">
        <ele>152</ele>
        <time>2022-10-25T15:15:18.332Z</time>
      </trkpt>
      <trkpt lat="49.43138" lon="1.24583">
        <ele>152</ele>
        <time>2022-10-25T15:15:22.343Z</time>
      </trkpt>
      <trkpt lat="49.43141" lon="1.24586">
        <ele>152</ele>
        <time>2022-10-25T15:15:26.356Z</time>
      </trkpt>
      <trkpt lat="49.43141" lon="1.24596">
        <ele>152</ele>
        <time>2022-10-25T15:15:31.328Z</time>
      </trkpt>
      <trkpt lat="49.4314" lon="1.24606">
        <ele>153</ele>
        <time>2022-10-25T15:15:36.294Z</time>
      </trkpt>
      <trkpt lat="49.43141" lon="1.24612">
        <ele>153</ele>
        <time>2022-10-25T15:15:40.360Z</time>
      </trkpt>
      <trkpt lat="49.43142" lon="1.24621">
        <ele>153</ele>
        <time>2022-10-25T15:15:45.305Z</time>
      </trkpt>
      <trkpt lat="49.43145" lon="1.24629">
        <ele>154</ele>
        <time>2022-10-25T15:15:49.309Z</time>
      </trkpt>
      <trkpt lat="49.43146" lon="1.24636">
        <ele>154</ele>
        <time>2022-10-25T15:15:53.315Z</time>
      </trkpt>
      <trkpt lat="49.43147" lon="1.24643">
        <ele>154</ele>
        <time>2022-10-25T15:15:58.319Z</time>
      </trkpt>
      <trkpt lat="49.43148" lon="1.24648">
        <ele>154</ele>
        <time>2022-10-25T15:16:02.325Z</time>
      </trkpt>
      <trkpt lat="49.43151" lon="1.24657">
        <ele>154</ele>
        <time>2022-10-25T15:16:07.310Z</time>
      </trkpt>
      <trkpt lat="49.43152" lon="1.24664">
        <ele>154</ele>
        <time>2022-10-25T15:16:11.347Z</time>
      </trkpt>
      <trkpt lat="49.43154" lon="1.24671">
        <ele>156</ele>
        <time>2022-10-25T15:16:16.333Z</time>
      </trkpt>
      <trkpt lat="49.43155" lon="1.24678">
        <ele>156</ele>
        <time>2022-10-25T15:16:21.346Z</time>
      </trkpt>
      <trkpt lat="49.43157" lon="1.24683">
        <ele>156</ele>
        <time>2022-10-25T15:16:26.330Z</time>
      </trkpt>
      <trkpt lat="49.43157" lon="1.24689">
        <ele>156</ele>
        <time>2022-10-25T15:16:31.338Z</time>
      </trkpt>
      <trkpt lat="49.43157" lon="1.24693">
        <ele>156</ele>
        <time>2022-10-25T15:16:35.333Z</time>
      </trkpt>
      <trkpt lat="49.43157" lon="1.24702">
        <ele>156</ele>
        <time>2022-10-25T15:16:40.294Z</time>
      </trkpt>
      <trkpt lat="49.43158" lon="1.2471">
        <ele>156</ele>
        <time>2022-10-25T15:16:44.324Z</time>
      </trkpt>
      <trkpt lat="49.43158" lon="1.24717">
        <ele>156</ele>
        <time>2022-10-25T15:16:49.342Z</time>
      </trkpt>
      <trkpt lat="49.43162" lon="1.24729">
        <ele>156</ele>
        <time>2022-10-25T15:16:54.344Z</time>
      </trkpt>
      <trkpt lat="49.43163" lon="1.24737">
        <ele>156</ele>
        <time>2022-10-25T15:16:59.337Z</time>
      </trkpt>
      <trkpt lat="49.43164" lon="1.24746">
        <ele>156</ele>
        <time>2022-10-25T15:17:04.323Z</time>
      </trkpt>
      <trkpt lat="49.43164" lon="1.24753">
        <ele>156</ele>
        <time>2022-10-25T15:17:09.352Z</time>
      </trkpt>
      <trkpt lat="49.43165" lon="1.2476">
        <ele>156</ele>
        <time>2022-10-25T15:17:14.316Z</time>
      </trkpt>
      <trkpt lat="49.43167" lon="1.24765">
        <ele>155</ele>
        <time>2022-10-25T15:17:18.344Z</time>
      </trkpt>
      <trkpt lat="49.43169" lon="1.24771">
        <ele>155</ele>
        <time>2022-10-25T15:17:23.328Z</time>
      </trkpt>
      <trkpt lat="49.4317" lon="1.24778">
        <ele>155</ele>
        <time>2022-10-25T15:17:27.345Z</time>
      </trkpt>
      <trkpt lat="49.43171" lon="1.24784">
        <ele>155</ele>
        <time>2022-10-25T15:17:32.344Z</time>
      </trkpt>
      <trkpt lat="49.43173" lon="1.24792">
        <ele>155</ele>
        <time>2022-10-25T15:17:37.313Z</time>
      </trkpt>
      <trkpt lat="49.43173" lon="1.24799">
        <ele>155</ele>
        <time>2022-10-25T15:17:42.294Z</time>
      </trkpt>
      <trkpt lat="49.43175" lon="1.24807">
        <ele>155</ele>
        <time>2022-10-25T15:17:46.316Z</time>
      </trkpt>
      <trkpt lat="49.43177" lon="1.24813">
        <ele>155</ele>
        <time>2022-10-25T15:17:50.331Z</time>
      </trkpt>
      <trkpt lat="49.4318" lon="1.24822">
        <ele>155</ele>
        <time>2022-10-25T15:17:55.297Z</time>
      </trkpt>
      <trkpt lat="49.4318" lon="1.24828">
        <ele>155</ele>
        <time>2022-10-25T15:17:59.338Z</time>
      </trkpt>
      <trkpt lat="49.43182" lon="1.24833">
        <ele>156</ele>
        <time>2022-10-25T15:18:04.335Z</time>
      </trkpt>
      <trkpt lat="49.43184" lon="1.24841">
        <ele>156</ele>
        <time>2022-10-25T15:18:09.342Z</time>
      </trkpt>
      <trkpt lat="49.43184" lon="1.24845">
        <ele>156</ele>
        <time>2022-10-25T15:18:13.351Z</time>
      </trkpt>
      <trkpt lat="49.43185" lon="1.24853">
        <ele>157</ele>
        <time>2022-10-25T15:18:18.313Z</time>
      </trkpt>
      <trkpt lat="49.43185" lon="1.24858">
        <ele>157</ele>
        <time>2022-10-25T15:18:22.339Z</time>
      </trkpt>
      <trkpt lat="49.43188" lon="1.24864">
        <ele>157</ele>
        <time>2022-10-25T15:18:27.328Z</time>
      </trkpt>
      <trkpt lat="49.4319" lon="1.24869">
        <ele>157</ele>
        <time>2022-10-25T15:18:31.340Z</time>
      </trkpt>
      <trkpt lat="49.4319" lon="1.24874">
        <ele>157</ele>
        <time>2022-10-25T15:18:36.289Z</time>
      </trkpt>
      <trkpt lat="49.43188" lon="1.2488">
        <ele>157</ele>
        <time>2022-10-25T15:18:40.331Z</time>
      </trkpt>
      <trkpt lat="49.43187" lon="1.24888">
        <ele>157</ele>
        <time>2022-10-25T15:18:45.321Z</time>
      </trkpt>
      <trkpt lat="49.43188" lon="1.24892">
        <ele>157</ele>
        <time>2022-10-25T15:18:49.332Z</time>
      </trkpt>
      <trkpt lat="49.43189" lon="1.24898">
        <ele>157</ele>
        <time>2022-10-25T15:18:53.349Z</time>
      </trkpt>
      <trkpt lat="49.43191" lon="1.24907">
        <ele>156</ele>
        <time>2022-10-25T15:18:58.297Z</time>
      </trkpt>
      <trkpt lat="49.43192" lon="1.24915">
        <ele>156</ele>
        <time>2022-10-25T15:19:02.319Z</time>
      </trkpt>
      <trkpt lat="49.43194" lon="1.24925">
        <ele>156</ele>
        <time>2022-10-25T15:19:07.322Z</time>
      </trkpt>
      <trkpt lat="49.43195" lon="1.24934">
        <ele>155</ele>
        <time>2022-10-25T15:19:12.342Z</time>
      </trkpt>
      <trkpt lat="49.43196" lon="1.2494">
        <ele>155</ele>
        <time>2022-10-25T15:19:17.333Z</time>
      </trkpt>
      <trkpt lat="49.43197" lon="1.24948">
        <ele>155</ele>
        <time>2022-10-25T15:19:22.322Z</time>
      </trkpt>
      <trkpt lat="49.432" lon="1.24954">
        <ele>155</ele>
        <time>2022-10-25T15:19:27.328Z</time>
      </trkpt>
      <trkpt lat="49.43202" lon="1.24964">
        <ele>154</ele>
        <time>2022-10-25T15:19:32.335Z</time>
      </trkpt>
      <trkpt lat="49.43201" lon="1.24975">
        <ele>154</ele>
        <time>2022-10-25T15:19:37.325Z</time>
      </trkpt>
      <trkpt lat="49.432" lon="1.24983">
        <ele>154</ele>
        <time>2022-10-25T15:19:42.328Z</time>
      </trkpt>
      <trkpt lat="49.432" lon="1.2499">
        <ele>153</ele>
        <time>2022-10-25T15:19:47.352Z</time>
      </trkpt>
      <trkpt lat="49.432" lon="1.24992">
        <ele>153</ele>
        <time>2022-10-25T15:19:52.324Z</time>
      </trkpt>
      <trkpt lat="49.43199" lon="1.24997">
        <ele>153</ele>
        <time>2022-10-25T15:22:06.330Z</time>
      </trkpt>
      <trkpt lat="49.432" lon="1.24998">
        <ele>153</ele>
        <time>2022-10-25T15:22:11.360Z</time>
      </trkpt>
      <trkpt lat="49.432" lon="1.25005">
        <ele>153</ele>
        <time>2022-10-25T15:22:16.342Z</time>
      </trkpt>
      <trkpt lat="49.43201" lon="1.25011">
        <ele>153</ele>
        <time>2022-10-25T15:22:21.335Z</time>
      </trkpt>
      <trkpt lat="49.43202" lon="1.25017">
        <ele>153</ele>
        <time>2022-10-25T15:22:26.327Z</time>
      </trkpt>
      <trkpt lat="49.43204" lon="1.25026">
        <ele>153</ele>
        <time>2022-10-25T15:22:31.348Z</time>
      </trkpt>
      <trkpt lat="49.43205" lon="1.25035">
        <ele>153</ele>
        <time>2022-10-25T15:22:36.337Z</time>
      </trkpt>
      <trkpt lat="49.43206" lon="1.25043">
        <ele>152</ele>
        <time>2022-10-25T15:22:41.356Z</time>
      </trkpt>
      <trkpt lat="49.43207" lon="1.25052">
        <ele>152</ele>
        <time>2022-10-25T15:22:46.348Z</time>
      </trkpt>
      <trkpt lat="49.43207" lon="1.25058">
        <ele>152</ele>
        <time>2022-10-25T15:22:50.343Z</time>
      </trkpt>
      <trkpt lat="49.43208" lon="1.25066">
        <ele>152</ele>
        <time>2022-10-25T15:22:55.329Z</time>
      </trkpt>
      <trkpt lat="49.43208" lon="1.25075">
        <ele>153</ele>
        <time>2022-10-25T15:23:00.306Z</time>
      </trkpt>
      <trkpt lat="49.43209" lon="1.2508">
        <ele>151</ele>
        <time>2022-10-25T15:23:04.330Z</time>
      </trkpt>
      <trkpt lat="49.43211" lon="1.25088">
        <ele>151</ele>
        <time>2022-10-25T15:23:08.329Z</time>
      </trkpt>
      <trkpt lat="49.43213" lon="1.25099">
        <ele>152</ele>
        <time>2022-10-25T15:23:13.356Z</time>
      </trkpt>
      <trkpt lat="49.43216" lon="1.25109">
        <ele>152</ele>
        <time>2022-10-25T15:23:18.351Z</time>
      </trkpt>
      <trkpt lat="49.43218" lon="1.25118">
        <ele>152</ele>
        <time>2022-10-25T15:23:23.339Z</time>
      </trkpt>
      <trkpt lat="49.4322" lon="1.25125">
        <ele>153</ele>
        <time>2022-10-25T15:23:28.346Z</time>
      </trkpt>
      <trkpt lat="49.43222" lon="1.25135">
        <ele>153</ele>
        <time>2022-10-25T15:23:33.311Z</time>
      </trkpt>
      <trkpt lat="49.43224" lon="1.25142">
        <ele>153</ele>
        <time>2022-10-25T15:23:37.340Z</time>
      </trkpt>
      <trkpt lat="49.43226" lon="1.25151">
        <ele>153</ele>
        <time>2022-10-25T15:23:42.297Z</time>
      </trkpt>
      <trkpt lat="49.43227" lon="1.25157">
        <ele>153</ele>
        <time>2022-10-25T15:23:46.353Z</time>
      </trkpt>
      <trkpt lat="49.43229" lon="1.25167">
        <ele>153</ele>
        <time>2022-10-25T15:23:51.331Z</time>
      </trkpt>
      <trkpt lat="49.4323" lon="1.25173">
        <ele>153</ele>
        <time>2022-10-25T15:23:55.342Z</time>
      </trkpt>
      <trkpt lat="49.43232" lon="1.2518">
        <ele>153</ele>
        <time>2022-10-25T15:23:59.351Z</time>
      </trkpt>
      <trkpt lat="49.43233" lon="1.25188">
        <ele>153</ele>
        <time>2022-10-25T15:24:04.320Z</time>
      </trkpt>
      <trkpt lat="49.43235" lon="1.25195">
        <ele>153</ele>
        <time>2022-10-25T15:24:08.336Z</time>
      </trkpt>
      <trkpt lat="49.43236" lon="1.25202">
        <ele>153</ele>
        <time>2022-10-25T15:24:12.341Z</time>
      </trkpt>
      <trkpt lat="49.43238" lon="1.2521">
        <ele>153</ele>
        <time>2022-10-25T15:24:17.353Z</time>
      </trkpt>
      <trkpt lat="49.4324" lon="1.25218">
        <ele>153</ele>
        <time>2022-10-25T15:24:22.341Z</time>
      </trkpt>
      <trkpt lat="49.43242" lon="1.25225">
        <ele>153</ele>
        <time>2022-10-25T15:24:26.349Z</time>
      </trkpt>
      <trkpt lat="49.43243" lon="1.25233">
        <ele>153</ele>
        <time>2022-10-25T15:24:31.315Z</time>
      </trkpt>
      <trkpt lat="49.43245" lon="1.2524">
        <ele>153</ele>
        <time>2022-10-25T15:24:35.338Z</time>
      </trkpt>
      <trkpt lat="49.43246" lon="1.25247">
        <ele>153</ele>
        <time>2022-10-25T15:24:39.343Z</time>
      </trkpt>
      <trkpt lat="49.43247" lon="1.25255">
        <ele>153</ele>
        <time>2022-10-25T15:24:44.309Z</time>
      </trkpt>
      <trkpt lat="49.43249" lon="1.25262">
        <ele>153</ele>
        <time>2022-10-25T15:24:48.330Z</time>
      </trkpt>
      <trkpt lat="49.4325" lon="1.25271">
        <ele>152</ele>
        <time>2022-10-25T15:24:53.361Z</time>
      </trkpt>
      <trkpt lat="49.43252" lon="1.25279">
        <ele>152</ele>
        <time>2022-10-25T15:24:58.328Z</time>
      </trkpt>
      <trkpt lat="49.43253" lon="1.25285">
        <ele>152</ele>
        <time>2022-10-25T15:25:02.353Z</time>
      </trkpt>
      <trkpt lat="49.43255" lon="1.25293">
        <ele>151</ele>
        <time>2022-10-25T15:25:07.305Z</time>
      </trkpt>
      <trkpt lat="49.43256" lon="1.25299">
        <ele>151</ele>
        <time>2022-10-25T15:25:11.338Z</time>
      </trkpt>
      <trkpt lat="49.43258" lon="1.25308">
        <ele>151</ele>
        <time>2022-10-25T15:25:16.336Z</time>
      </trkpt>
      <trkpt lat="49.4326" lon="1.25316">
        <ele>151</ele>
        <time>2022-10-25T15:25:21.335Z</time>
      </trkpt>
      <trkpt lat="49.43262" lon="1.25325">
        <ele>151</ele>
        <time>2022-10-25T15:25:26.315Z</time>
      </trkpt>
      <trkpt lat="49.43263" lon="1.25332">
        <ele>151</ele>
        <time>2022-10-25T15:25:30.355Z</time>
      </trkpt>
      <trkpt lat="49.43265" lon="1.2534">
        <ele>151</ele>
        <time>2022-10-25T15:25:35.327Z</time>
      </trkpt>
      <trkpt lat="49.43267" lon="1.25345">
        <ele>151</ele>
        <time>2022-10-25T15:25:39.334Z</time>
      </trkpt>
      <trkpt lat="49.43268" lon="1.25352">
        <ele>151</ele>
        <time>2022-10-25T15:25:43.343Z</time>
      </trkpt>
      <trkpt lat="49.4327" lon="1.2536">
        <ele>151</ele>
        <time>2022-10-25T15:25:48.295Z</time>
      </trkpt>
      <trkpt lat="49.43271" lon="1.25366">
        <ele>151</ele>
        <time>2022-10-25T15:25:52.353Z</time>
      </trkpt>
      <trkpt lat="49.43272" lon="1.25372">
        <ele>151</ele>
        <time>2022-10-25T15:25:56.348Z</time>
      </trkpt>
      <trkpt lat="49.43273" lon="1.2538">
        <ele>152</ele>
        <time>2022-10-25T15:26:01.334Z</time>
      </trkpt>
      <trkpt lat="49.43274" lon="1.25388">
        <ele>152</ele>
        <time>2022-10-25T15:26:06.331Z</time>
      </trkpt>
      <trkpt lat="49.43276" lon="1.25396">
        <ele>152</ele>
        <time>2022-10-25T15:26:11.337Z</time>
      </trkpt>
      <trkpt lat="49.43278" lon="1.25404">
        <ele>152</ele>
        <time>2022-10-25T15:26:16.330Z</time>
      </trkpt>
      <trkpt lat="49.4328" lon="1.25412">
        <ele>152</ele>
        <time>2022-10-25T15:26:21.346Z</time>
      </trkpt>
      <trkpt lat="49.43281" lon="1.2542">
        <ele>152</ele>
        <time>2022-10-25T15:26:26.354Z</time>
      </trkpt>
      <trkpt lat="49.43282" lon="1.25429">
        <ele>152</ele>
        <time>2022-10-25T15:26:31.304Z</time>
      </trkpt>
      <trkpt lat="49.43283" lon="1.25435">
        <ele>152</ele>
        <time>2022-10-25T15:26:35.335Z</time>
      </trkpt>
      <trkpt lat="49.43284" lon="1.25443">
        <ele>152</ele>
        <time>2022-10-25T15:26:40.327Z</time>
      </trkpt>
      <trkpt lat="49.43284" lon="1.25448">
        <ele>152</ele>
        <time>2022-10-25T15:26:44.335Z</time>
      </trkpt>
      <trkpt lat="49.43284" lon="1.25449">
        <ele>152</ele>
        <time>2022-10-25T15:26:48.327Z</time>
      </trkpt>
      <trkpt lat="49.43284" lon="1.25449">
        <ele>152</ele>
        <time>2022-10-25T15:26:53.329Z</time>
      </trkpt>
      <trkpt lat="49.43285" lon="1.25455">
        <ele>152</ele>
        <time>2022-10-25T15:26:58.330Z</time>
      </trkpt>
      <trkpt lat="49.43286" lon="1.25462">
        <ele>152</ele>
        <time>2022-10-25T15:27:03.334Z</time>
      </trkpt>
      <trkpt lat="49.43288" lon="1.25471">
        <ele>152</ele>
        <time>2022-10-25T15:27:08.331Z</time>
      </trkpt>
      <trkpt lat="49.43291" lon="1.25479">
        <ele>152</ele>
        <time>2022-10-25T15:27:13.322Z</time>
      </trkpt>
      <trkpt lat="49.43292" lon="1.25484">
        <ele>153</ele>
        <time>2022-10-25T15:27:17.341Z</time>
      </trkpt>
      <trkpt lat="49.43293" lon="1.25492">
        <ele>153</ele>
        <time>2022-10-25T15:27:21.349Z</time>
      </trkpt>
      <trkpt lat="49.43295" lon="1.255">
        <ele>153</ele>
        <time>2022-10-25T15:27:26.345Z</time>
      </trkpt>
      <trkpt lat="49.43296" lon="1.25508">
        <ele>153</ele>
        <time>2022-10-25T15:27:31.320Z</time>
      </trkpt>
      <trkpt lat="49.43298" lon="1.25515">
        <ele>154</ele>
        <time>2022-10-25T15:27:35.334Z</time>
      </trkpt>
      <trkpt lat="49.43298" lon="1.25522">
        <ele>154</ele>
        <time>2022-10-25T15:27:40.321Z</time>
      </trkpt>
      <trkpt lat="49.43299" lon="1.2553">
        <ele>154</ele>
        <time>2022-10-25T15:27:45.332Z</time>
      </trkpt>
      <trkpt lat="49.433" lon="1.25536">
        <ele>154</ele>
        <time>2022-10-25T15:27:49.348Z</time>
      </trkpt>
      <trkpt lat="49.43301" lon="1.25542">
        <ele>154</ele>
        <time>2022-10-25T15:27:54.352Z</time>
      </trkpt>
      <trkpt lat="49.43303" lon="1.25549">
        <ele>154</ele>
        <time>2022-10-25T15:27:59.368Z</time>
      </trkpt>
      <trkpt lat="49.43304" lon="1.25558">
        <ele>154</ele>
        <time>2022-10-25T15:28:04.333Z</time>
      </trkpt>
      <trkpt lat="49.43305" lon="1.25564">
        <ele>154</ele>
        <time>2022-10-25T15:28:08.339Z</time>
      </trkpt>
      <trkpt lat="49.43307" lon="1.25573">
        <ele>155</ele>
        <time>2022-10-25T15:28:13.338Z</time>
      </trkpt>
      <trkpt lat="49.43307" lon="1.25582">
        <ele>155</ele>
        <time>2022-10-25T15:28:18.354Z</time>
      </trkpt>
      <trkpt lat="49.43308" lon="1.2559">
        <ele>155</ele>
        <time>2022-10-25T15:28:23.344Z</time>
      </trkpt>
      <trkpt lat="49.4331" lon="1.25599">
        <ele>155</ele>
        <time>2022-10-25T15:28:28.343Z</time>
      </trkpt>
      <trkpt lat="49.4331" lon="1.25606">
        <ele>155</ele>
        <time>2022-10-25T15:28:32.348Z</time>
      </trkpt>
      <trkpt lat="49.43312" lon="1.25615">
        <ele>155</ele>
        <time>2022-10-25T15:28:37.346Z</time>
      </trkpt>
      <trkpt lat="49.43314" lon="1.25623">
        <ele>155</ele>
        <time>2022-10-25T15:28:42.326Z</time>
      </trkpt>
      <trkpt lat="49.43314" lon="1.2563">
        <ele>154</ele>
        <time>2022-10-25T15:28:47.323Z</time>
      </trkpt>
      <trkpt lat="49.43313" lon="1.25635">
        <ele>154</ele>
        <time>2022-10-25T15:28:51.319Z</time>
      </trkpt>
      <trkpt lat="49.43313" lon="1.25641">
        <ele>154</ele>
        <time>2022-10-25T15:28:55.338Z</time>
      </trkpt>
      <trkpt lat="49.43312" lon="1.25647">
        <ele>154</ele>
        <time>2022-10-25T15:28:59.346Z</time>
      </trkpt>
      <trkpt lat="49.43313" lon="1.25659">
        <ele>153</ele>
        <time>2022-10-25T15:29:28.307Z</time>
      </trkpt>
      <trkpt lat="49.43313" lon="1.25663">
        <ele>153</ele>
        <time>2022-10-25T15:29:33.302Z</time>
      </trkpt>
      <trkpt lat="49.43313" lon="1.25664">
        <ele>153</ele>
        <time>2022-10-25T15:29:37.313Z</time>
      </trkpt>
      <trkpt lat="49.43313" lon="1.25665">
        <ele>153</ele>
        <time>2022-10-25T15:29:41.323Z</time>
      </trkpt>
      <trkpt lat="49.43312" lon="1.25668">
        <ele>153</ele>
        <time>2022-10-25T15:29:45.328Z</time>
      </trkpt>
    </trkseg>
  </trk>
</gpx>